<?xml version="1.0" encoding="UTF-8" standalone="no" ?>
<gpx xmlns="http://www.topografix.com/GPX/1/1" xmlns:xsi="http://www.w3.org/2001/XMLSchema-instance" xsi:schemaLocation="http://www.topografix.com/GPX/1/1 http://www.topografix.com/GPX/1/1/gpx.xsd" version="1.1" creator="VisuGPX - https://www.visugpx.com">
  <metadata>
    <name>131005ROBDolmenClapierLigne</name>
    <desc><![CDATA[350 m - 20 km]]></desc>
  </metadata>
  <trk>
    <name><![CDATA[131005ROBDolmenClapierLigne]]></name>
    <trkseg>
      <trkpt lat="43.40398" lon="6.06539">
        <ele>165.60000610352</ele>
        <time>2013-10-05T12:04:04Z</time>
      </trkpt>
      <trkpt lat="43.404" lon="6.06539">
        <ele>165.60000610352</ele>
        <time>2013-10-05T12:04:05Z</time>
      </trkpt>
      <trkpt lat="43.40401" lon="6.06539">
        <ele>165.60000610352</ele>
        <time>2013-10-05T12:04:07Z</time>
      </trkpt>
      <trkpt lat="43.40401" lon="6.06539">
        <ele>165.60000610352</ele>
        <time>2013-10-05T12:04:08Z</time>
      </trkpt>
      <trkpt lat="43.40403" lon="6.06536">
        <ele>165.60000610352</ele>
        <time>2013-10-05T12:04:12Z</time>
      </trkpt>
      <trkpt lat="43.40403" lon="6.0653">
        <ele>165.60000610352</ele>
        <time>2013-10-05T12:04:15Z</time>
      </trkpt>
      <trkpt lat="43.40405" lon="6.06523">
        <ele>165.60000610352</ele>
        <time>2013-10-05T12:04:18Z</time>
      </trkpt>
      <trkpt lat="43.40405" lon="6.06521">
        <ele>165.60000610352</ele>
        <time>2013-10-05T12:04:19Z</time>
      </trkpt>
      <trkpt lat="43.40407" lon="6.06506">
        <ele>165.60000610352</ele>
        <time>2013-10-05T12:04:25Z</time>
      </trkpt>
      <trkpt lat="43.4041" lon="6.06492">
        <ele>165.60000610352</ele>
        <time>2013-10-05T12:04:32Z</time>
      </trkpt>
      <trkpt lat="43.40414" lon="6.06485">
        <ele>165.60000610352</ele>
        <time>2013-10-05T12:04:36Z</time>
      </trkpt>
      <trkpt lat="43.40418" lon="6.06483">
        <ele>165.60000610352</ele>
        <time>2013-10-05T12:04:38Z</time>
      </trkpt>
      <trkpt lat="43.40431" lon="6.06487">
        <ele>165.60000610352</ele>
        <time>2013-10-05T12:04:44Z</time>
      </trkpt>
      <trkpt lat="43.40449" lon="6.06491">
        <ele>165.60000610352</ele>
        <time>2013-10-05T12:04:49Z</time>
      </trkpt>
      <trkpt lat="43.40463" lon="6.06496">
        <ele>165.19999694824</ele>
        <time>2013-10-05T12:04:54Z</time>
      </trkpt>
      <trkpt lat="43.40467" lon="6.06497">
        <ele>164.60000610352</ele>
        <time>2013-10-05T12:04:55Z</time>
      </trkpt>
      <trkpt lat="43.40474" lon="6.06498">
        <ele>163.80000305176</ele>
        <time>2013-10-05T12:04:57Z</time>
      </trkpt>
      <trkpt lat="43.40486" lon="6.065">
        <ele>163.39999389648</ele>
        <time>2013-10-05T12:05:00Z</time>
      </trkpt>
      <trkpt lat="43.40495" lon="6.06505">
        <ele>163.39999389648</ele>
        <time>2013-10-05T12:05:04Z</time>
      </trkpt>
      <trkpt lat="43.40506" lon="6.06507">
        <ele>163.39999389648</ele>
        <time>2013-10-05T12:05:09Z</time>
      </trkpt>
      <trkpt lat="43.4053" lon="6.06515">
        <ele>163.39999389648</ele>
        <time>2013-10-05T12:05:16Z</time>
      </trkpt>
      <trkpt lat="43.40537" lon="6.06517">
        <ele>163</ele>
        <time>2013-10-05T12:05:18Z</time>
      </trkpt>
      <trkpt lat="43.40541" lon="6.06518">
        <ele>162.60000610352</ele>
        <time>2013-10-05T12:05:19Z</time>
      </trkpt>
      <trkpt lat="43.40545" lon="6.06519">
        <ele>162.19999694824</ele>
        <time>2013-10-05T12:05:20Z</time>
      </trkpt>
      <trkpt lat="43.4055" lon="6.06521">
        <ele>161.80000305176</ele>
        <time>2013-10-05T12:05:21Z</time>
      </trkpt>
      <trkpt lat="43.40555" lon="6.06522">
        <ele>161.39999389648</ele>
        <time>2013-10-05T12:05:22Z</time>
      </trkpt>
      <trkpt lat="43.40574" lon="6.06526">
        <ele>161.39999389648</ele>
        <time>2013-10-05T12:05:26Z</time>
      </trkpt>
      <trkpt lat="43.40577" lon="6.06527">
        <ele>161.39999389648</ele>
        <time>2013-10-05T12:05:27Z</time>
      </trkpt>
      <trkpt lat="43.40593" lon="6.0653">
        <ele>161</ele>
        <time>2013-10-05T12:05:31Z</time>
      </trkpt>
      <trkpt lat="43.40594" lon="6.0653">
        <ele>160.60000610352</ele>
        <time>2013-10-05T12:05:32Z</time>
      </trkpt>
      <trkpt lat="43.40597" lon="6.0653">
        <ele>159.60000610352</ele>
        <time>2013-10-05T12:05:34Z</time>
      </trkpt>
      <trkpt lat="43.40597" lon="6.06529">
        <ele>159.19999694824</ele>
        <time>2013-10-05T12:05:35Z</time>
      </trkpt>
      <trkpt lat="43.40598" lon="6.0653">
        <ele>159.19999694824</ele>
        <time>2013-10-05T12:05:37Z</time>
      </trkpt>
      <trkpt lat="43.40599" lon="6.06531">
        <ele>159.19999694824</ele>
        <time>2013-10-05T12:05:43Z</time>
      </trkpt>
      <trkpt lat="43.40604" lon="6.06533">
        <ele>159.19999694824</ele>
        <time>2013-10-05T12:05:50Z</time>
      </trkpt>
      <trkpt lat="43.40612" lon="6.06534">
        <ele>158.80000305176</ele>
        <time>2013-10-05T12:05:54Z</time>
      </trkpt>
      <trkpt lat="43.40613" lon="6.06534">
        <ele>158.39999389648</ele>
        <time>2013-10-05T12:05:55Z</time>
      </trkpt>
      <trkpt lat="43.40613" lon="6.06534">
        <ele>158</ele>
        <time>2013-10-05T12:05:56Z</time>
      </trkpt>
      <trkpt lat="43.40613" lon="6.06534">
        <ele>157.60000610352</ele>
        <time>2013-10-05T12:05:57Z</time>
      </trkpt>
      <trkpt lat="43.40614" lon="6.06533">
        <ele>157.19999694824</ele>
        <time>2013-10-05T12:05:58Z</time>
      </trkpt>
      <trkpt lat="43.40616" lon="6.06532">
        <ele>157.19999694824</ele>
        <time>2013-10-05T12:05:59Z</time>
      </trkpt>
      <trkpt lat="43.40623" lon="6.06522">
        <ele>157.19999694824</ele>
        <time>2013-10-05T12:06:03Z</time>
      </trkpt>
      <trkpt lat="43.40631" lon="6.06502">
        <ele>157.19999694824</ele>
        <time>2013-10-05T12:06:07Z</time>
      </trkpt>
      <trkpt lat="43.40635" lon="6.06496">
        <ele>157.19999694824</ele>
        <time>2013-10-05T12:06:08Z</time>
      </trkpt>
      <trkpt lat="43.40648" lon="6.06481">
        <ele>156.80000305176</ele>
        <time>2013-10-05T12:06:11Z</time>
      </trkpt>
      <trkpt lat="43.40653" lon="6.06477">
        <ele>156.39999389648</ele>
        <time>2013-10-05T12:06:12Z</time>
      </trkpt>
      <trkpt lat="43.40658" lon="6.06472">
        <ele>155.80000305176</ele>
        <time>2013-10-05T12:06:13Z</time>
      </trkpt>
      <trkpt lat="43.40663" lon="6.06467">
        <ele>155.39999389648</ele>
        <time>2013-10-05T12:06:14Z</time>
      </trkpt>
      <trkpt lat="43.40668" lon="6.06462">
        <ele>155</ele>
        <time>2013-10-05T12:06:15Z</time>
      </trkpt>
      <trkpt lat="43.40678" lon="6.06451">
        <ele>155</ele>
        <time>2013-10-05T12:06:17Z</time>
      </trkpt>
      <trkpt lat="43.40683" lon="6.06446">
        <ele>154.60000610352</ele>
        <time>2013-10-05T12:06:18Z</time>
      </trkpt>
      <trkpt lat="43.40688" lon="6.06442">
        <ele>154</ele>
        <time>2013-10-05T12:06:19Z</time>
      </trkpt>
      <trkpt lat="43.40694" lon="6.06439">
        <ele>153.60000610352</ele>
        <time>2013-10-05T12:06:20Z</time>
      </trkpt>
      <trkpt lat="43.40707" lon="6.06434">
        <ele>152.60000610352</ele>
        <time>2013-10-05T12:06:22Z</time>
      </trkpt>
      <trkpt lat="43.4072" lon="6.06431">
        <ele>151.80000305176</ele>
        <time>2013-10-05T12:06:24Z</time>
      </trkpt>
      <trkpt lat="43.40743" lon="6.0643">
        <ele>150.39999389648</ele>
        <time>2013-10-05T12:06:28Z</time>
      </trkpt>
      <trkpt lat="43.40755" lon="6.06428">
        <ele>150.39999389648</ele>
        <time>2013-10-05T12:06:30Z</time>
      </trkpt>
      <trkpt lat="43.4078" lon="6.06425">
        <ele>149.60000610352</ele>
        <time>2013-10-05T12:06:34Z</time>
      </trkpt>
      <trkpt lat="43.40799" lon="6.0642">
        <ele>148.39999389648</ele>
        <time>2013-10-05T12:06:37Z</time>
      </trkpt>
      <trkpt lat="43.40805" lon="6.06419">
        <ele>148.39999389648</ele>
        <time>2013-10-05T12:06:38Z</time>
      </trkpt>
      <trkpt lat="43.40821" lon="6.06426">
        <ele>148.39999389648</ele>
        <time>2013-10-05T12:06:41Z</time>
      </trkpt>
      <trkpt lat="43.40842" lon="6.06422">
        <ele>148.39999389648</ele>
        <time>2013-10-05T12:06:45Z</time>
      </trkpt>
      <trkpt lat="43.40856" lon="6.06412">
        <ele>148.39999389648</ele>
        <time>2013-10-05T12:06:48Z</time>
      </trkpt>
      <trkpt lat="43.40865" lon="6.06405">
        <ele>148.39999389648</ele>
        <time>2013-10-05T12:06:50Z</time>
      </trkpt>
      <trkpt lat="43.40873" lon="6.06396">
        <ele>148.39999389648</ele>
        <time>2013-10-05T12:06:52Z</time>
      </trkpt>
      <trkpt lat="43.40891" lon="6.06373">
        <ele>148.39999389648</ele>
        <time>2013-10-05T12:06:57Z</time>
      </trkpt>
      <trkpt lat="43.40894" lon="6.06368">
        <ele>148.39999389648</ele>
        <time>2013-10-05T12:06:58Z</time>
      </trkpt>
      <trkpt lat="43.40907" lon="6.06353">
        <ele>148.39999389648</ele>
        <time>2013-10-05T12:07:01Z</time>
      </trkpt>
      <trkpt lat="43.40915" lon="6.06342">
        <ele>148.39999389648</ele>
        <time>2013-10-05T12:07:03Z</time>
      </trkpt>
      <trkpt lat="43.40919" lon="6.06337">
        <ele>148.80000305176</ele>
        <time>2013-10-05T12:07:04Z</time>
      </trkpt>
      <trkpt lat="43.40924" lon="6.06332">
        <ele>149.19999694824</ele>
        <time>2013-10-05T12:07:05Z</time>
      </trkpt>
      <trkpt lat="43.40928" lon="6.06327">
        <ele>149.60000610352</ele>
        <time>2013-10-05T12:07:06Z</time>
      </trkpt>
      <trkpt lat="43.40931" lon="6.06323">
        <ele>150</ele>
        <time>2013-10-05T12:07:07Z</time>
      </trkpt>
      <trkpt lat="43.40935" lon="6.06319">
        <ele>150.39999389648</ele>
        <time>2013-10-05T12:07:08Z</time>
      </trkpt>
      <trkpt lat="43.40945" lon="6.06309">
        <ele>150.39999389648</ele>
        <time>2013-10-05T12:07:11Z</time>
      </trkpt>
      <trkpt lat="43.40952" lon="6.06303">
        <ele>150.39999389648</ele>
        <time>2013-10-05T12:07:14Z</time>
      </trkpt>
      <trkpt lat="43.40955" lon="6.06303">
        <ele>150.39999389648</ele>
        <time>2013-10-05T12:07:15Z</time>
      </trkpt>
      <trkpt lat="43.40958" lon="6.06307">
        <ele>150.39999389648</ele>
        <time>2013-10-05T12:07:17Z</time>
      </trkpt>
      <trkpt lat="43.40964" lon="6.0631">
        <ele>150.39999389648</ele>
        <time>2013-10-05T12:07:19Z</time>
      </trkpt>
      <trkpt lat="43.40965" lon="6.06309">
        <ele>150.39999389648</ele>
        <time>2013-10-05T12:07:20Z</time>
      </trkpt>
      <trkpt lat="43.40965" lon="6.06308">
        <ele>150.39999389648</ele>
        <time>2013-10-05T12:07:24Z</time>
      </trkpt>
      <trkpt lat="43.4097" lon="6.06306">
        <ele>150.39999389648</ele>
        <time>2013-10-05T12:07:31Z</time>
      </trkpt>
      <trkpt lat="43.40978" lon="6.063">
        <ele>150.39999389648</ele>
        <time>2013-10-05T12:07:34Z</time>
      </trkpt>
      <trkpt lat="43.40979" lon="6.06296">
        <ele>150.39999389648</ele>
        <time>2013-10-05T12:07:35Z</time>
      </trkpt>
      <trkpt lat="43.40981" lon="6.06287">
        <ele>150.39999389648</ele>
        <time>2013-10-05T12:07:39Z</time>
      </trkpt>
      <trkpt lat="43.4099" lon="6.06281">
        <ele>150.39999389648</ele>
        <time>2013-10-05T12:07:43Z</time>
      </trkpt>
      <trkpt lat="43.41011" lon="6.06274">
        <ele>150.39999389648</ele>
        <time>2013-10-05T12:07:50Z</time>
      </trkpt>
      <trkpt lat="43.41046" lon="6.06264">
        <ele>150.39999389648</ele>
        <time>2013-10-05T12:08:00Z</time>
      </trkpt>
      <trkpt lat="43.4108" lon="6.06254">
        <ele>150.39999389648</ele>
        <time>2013-10-05T12:08:09Z</time>
      </trkpt>
      <trkpt lat="43.41102" lon="6.06247">
        <ele>150.39999389648</ele>
        <time>2013-10-05T12:08:15Z</time>
      </trkpt>
      <trkpt lat="43.41133" lon="6.06239">
        <ele>150.39999389648</ele>
        <time>2013-10-05T12:08:23Z</time>
      </trkpt>
      <trkpt lat="43.41154" lon="6.06227">
        <ele>150.39999389648</ele>
        <time>2013-10-05T12:08:29Z</time>
      </trkpt>
      <trkpt lat="43.41167" lon="6.06222">
        <ele>150.39999389648</ele>
        <time>2013-10-05T12:08:34Z</time>
      </trkpt>
      <trkpt lat="43.41166" lon="6.06222">
        <ele>150.39999389648</ele>
        <time>2013-10-05T12:08:38Z</time>
      </trkpt>
      <trkpt lat="43.41166" lon="6.06222">
        <ele>150.39999389648</ele>
        <time>2013-10-05T12:08:49Z</time>
      </trkpt>
      <trkpt lat="43.41166" lon="6.06222">
        <ele>150.39999389648</ele>
        <time>2013-10-05T12:08:55Z</time>
      </trkpt>
      <trkpt lat="43.41167" lon="6.06222">
        <ele>150.39999389648</ele>
        <time>2013-10-05T12:09:03Z</time>
      </trkpt>
      <trkpt lat="43.41179" lon="6.06218">
        <ele>150.39999389648</ele>
        <time>2013-10-05T12:09:09Z</time>
      </trkpt>
      <trkpt lat="43.41193" lon="6.06213">
        <ele>150.39999389648</ele>
        <time>2013-10-05T12:09:14Z</time>
      </trkpt>
      <trkpt lat="43.41199" lon="6.06206">
        <ele>150.39999389648</ele>
        <time>2013-10-05T12:09:17Z</time>
      </trkpt>
      <trkpt lat="43.41203" lon="6.06196">
        <ele>150.39999389648</ele>
        <time>2013-10-05T12:09:21Z</time>
      </trkpt>
      <trkpt lat="43.41205" lon="6.06191">
        <ele>150.39999389648</ele>
        <time>2013-10-05T12:09:23Z</time>
      </trkpt>
      <trkpt lat="43.41207" lon="6.06186">
        <ele>151.19999694824</ele>
        <time>2013-10-05T12:09:25Z</time>
      </trkpt>
      <trkpt lat="43.41208" lon="6.06182">
        <ele>151.60000610352</ele>
        <time>2013-10-05T12:09:26Z</time>
      </trkpt>
      <trkpt lat="43.41206" lon="6.06174">
        <ele>152.39999389648</ele>
        <time>2013-10-05T12:09:28Z</time>
      </trkpt>
      <trkpt lat="43.41203" lon="6.06147">
        <ele>152.39999389648</ele>
        <time>2013-10-05T12:09:33Z</time>
      </trkpt>
      <trkpt lat="43.41202" lon="6.06141">
        <ele>152.39999389648</ele>
        <time>2013-10-05T12:09:34Z</time>
      </trkpt>
      <trkpt lat="43.41202" lon="6.06135">
        <ele>152.39999389648</ele>
        <time>2013-10-05T12:09:35Z</time>
      </trkpt>
      <trkpt lat="43.41206" lon="6.06118">
        <ele>152.39999389648</ele>
        <time>2013-10-05T12:09:38Z</time>
      </trkpt>
      <trkpt lat="43.41213" lon="6.06112">
        <ele>152.39999389648</ele>
        <time>2013-10-05T12:09:40Z</time>
      </trkpt>
      <trkpt lat="43.4122" lon="6.06108">
        <ele>152.39999389648</ele>
        <time>2013-10-05T12:09:42Z</time>
      </trkpt>
      <trkpt lat="43.41234" lon="6.06099">
        <ele>152.39999389648</ele>
        <time>2013-10-05T12:09:46Z</time>
      </trkpt>
      <trkpt lat="43.41242" lon="6.06095">
        <ele>152.39999389648</ele>
        <time>2013-10-05T12:09:48Z</time>
      </trkpt>
      <trkpt lat="43.41262" lon="6.06084">
        <ele>152.39999389648</ele>
        <time>2013-10-05T12:09:53Z</time>
      </trkpt>
      <trkpt lat="43.41269" lon="6.0608">
        <ele>152.39999389648</ele>
        <time>2013-10-05T12:09:55Z</time>
      </trkpt>
      <trkpt lat="43.41277" lon="6.06076">
        <ele>152.80000305176</ele>
        <time>2013-10-05T12:09:57Z</time>
      </trkpt>
      <trkpt lat="43.41293" lon="6.06068">
        <ele>154.39999389648</ele>
        <time>2013-10-05T12:10:01Z</time>
      </trkpt>
      <trkpt lat="43.413" lon="6.06064">
        <ele>154.39999389648</ele>
        <time>2013-10-05T12:10:03Z</time>
      </trkpt>
      <trkpt lat="43.41313" lon="6.06068">
        <ele>154.39999389648</ele>
        <time>2013-10-05T12:10:07Z</time>
      </trkpt>
      <trkpt lat="43.41335" lon="6.06091">
        <ele>154.39999389648</ele>
        <time>2013-10-05T12:10:14Z</time>
      </trkpt>
      <trkpt lat="43.4135" lon="6.06107">
        <ele>156.39999389648</ele>
        <time>2013-10-05T12:10:19Z</time>
      </trkpt>
      <trkpt lat="43.4137" lon="6.06128">
        <ele>156.39999389648</ele>
        <time>2013-10-05T12:10:26Z</time>
      </trkpt>
      <trkpt lat="43.41384" lon="6.06144">
        <ele>157.60000610352</ele>
        <time>2013-10-05T12:10:31Z</time>
      </trkpt>
      <trkpt lat="43.41389" lon="6.06149">
        <ele>158.39999389648</ele>
        <time>2013-10-05T12:10:33Z</time>
      </trkpt>
      <trkpt lat="43.41399" lon="6.06158">
        <ele>158.39999389648</ele>
        <time>2013-10-05T12:10:36Z</time>
      </trkpt>
      <trkpt lat="43.41415" lon="6.0617">
        <ele>159</ele>
        <time>2013-10-05T12:10:41Z</time>
      </trkpt>
      <trkpt lat="43.41418" lon="6.06172">
        <ele>159.39999389648</ele>
        <time>2013-10-05T12:10:42Z</time>
      </trkpt>
      <trkpt lat="43.41422" lon="6.06173">
        <ele>159.80000305176</ele>
        <time>2013-10-05T12:10:43Z</time>
      </trkpt>
      <trkpt lat="43.41428" lon="6.06175">
        <ele>160.80000305176</ele>
        <time>2013-10-05T12:10:45Z</time>
      </trkpt>
      <trkpt lat="43.41447" lon="6.0618">
        <ele>160.80000305176</ele>
        <time>2013-10-05T12:10:50Z</time>
      </trkpt>
      <trkpt lat="43.41471" lon="6.06186">
        <ele>160.80000305176</ele>
        <time>2013-10-05T12:10:56Z</time>
      </trkpt>
      <trkpt lat="43.41475" lon="6.06187">
        <ele>160.80000305176</ele>
        <time>2013-10-05T12:10:57Z</time>
      </trkpt>
      <trkpt lat="43.41498" lon="6.06192">
        <ele>161.19999694824</ele>
        <time>2013-10-05T12:11:03Z</time>
      </trkpt>
      <trkpt lat="43.41506" lon="6.06193">
        <ele>162</ele>
        <time>2013-10-05T12:11:05Z</time>
      </trkpt>
      <trkpt lat="43.41514" lon="6.06192">
        <ele>162.80000305176</ele>
        <time>2013-10-05T12:11:07Z</time>
      </trkpt>
      <trkpt lat="43.41532" lon="6.06189">
        <ele>162.80000305176</ele>
        <time>2013-10-05T12:11:13Z</time>
      </trkpt>
      <trkpt lat="43.41539" lon="6.06187">
        <ele>162.80000305176</ele>
        <time>2013-10-05T12:11:17Z</time>
      </trkpt>
      <trkpt lat="43.41542" lon="6.06184">
        <ele>162.80000305176</ele>
        <time>2013-10-05T12:11:19Z</time>
      </trkpt>
      <trkpt lat="43.41545" lon="6.06182">
        <ele>162.80000305176</ele>
        <time>2013-10-05T12:11:21Z</time>
      </trkpt>
      <trkpt lat="43.4155" lon="6.06178">
        <ele>162.80000305176</ele>
        <time>2013-10-05T12:11:23Z</time>
      </trkpt>
      <trkpt lat="43.41556" lon="6.06175">
        <ele>163.60000610352</ele>
        <time>2013-10-05T12:11:25Z</time>
      </trkpt>
      <trkpt lat="43.41559" lon="6.06174">
        <ele>164.19999694824</ele>
        <time>2013-10-05T12:11:26Z</time>
      </trkpt>
      <trkpt lat="43.41564" lon="6.06174">
        <ele>165</ele>
        <time>2013-10-05T12:11:28Z</time>
      </trkpt>
      <trkpt lat="43.41572" lon="6.06176">
        <ele>165</ele>
        <time>2013-10-05T12:11:31Z</time>
      </trkpt>
      <trkpt lat="43.41576" lon="6.06178">
        <ele>165</ele>
        <time>2013-10-05T12:11:33Z</time>
      </trkpt>
      <trkpt lat="43.41585" lon="6.06175">
        <ele>165</ele>
        <time>2013-10-05T12:11:37Z</time>
      </trkpt>
      <trkpt lat="43.41592" lon="6.06176">
        <ele>165</ele>
        <time>2013-10-05T12:11:40Z</time>
      </trkpt>
      <trkpt lat="43.41594" lon="6.06178">
        <ele>165</ele>
        <time>2013-10-05T12:11:41Z</time>
      </trkpt>
      <trkpt lat="43.41599" lon="6.06194">
        <ele>165</ele>
        <time>2013-10-05T12:11:46Z</time>
      </trkpt>
      <trkpt lat="43.4161" lon="6.06205">
        <ele>165</ele>
        <time>2013-10-05T12:11:51Z</time>
      </trkpt>
      <trkpt lat="43.41623" lon="6.0622">
        <ele>165</ele>
        <time>2013-10-05T12:11:57Z</time>
      </trkpt>
      <trkpt lat="43.41627" lon="6.06226">
        <ele>165.80000305176</ele>
        <time>2013-10-05T12:11:59Z</time>
      </trkpt>
      <trkpt lat="43.41631" lon="6.06231">
        <ele>166.60000610352</ele>
        <time>2013-10-05T12:12:01Z</time>
      </trkpt>
      <trkpt lat="43.41636" lon="6.06235">
        <ele>167</ele>
        <time>2013-10-05T12:12:03Z</time>
      </trkpt>
      <trkpt lat="43.4165" lon="6.06242">
        <ele>167</ele>
        <time>2013-10-05T12:12:09Z</time>
      </trkpt>
      <trkpt lat="43.41668" lon="6.06248">
        <ele>167</ele>
        <time>2013-10-05T12:12:16Z</time>
      </trkpt>
      <trkpt lat="43.41684" lon="6.06251">
        <ele>167</ele>
        <time>2013-10-05T12:12:21Z</time>
      </trkpt>
      <trkpt lat="43.41693" lon="6.06251">
        <ele>167</ele>
        <time>2013-10-05T12:12:24Z</time>
      </trkpt>
      <trkpt lat="43.41714" lon="6.06252">
        <ele>167</ele>
        <time>2013-10-05T12:12:30Z</time>
      </trkpt>
      <trkpt lat="43.41722" lon="6.06251">
        <ele>167.39999389648</ele>
        <time>2013-10-05T12:12:32Z</time>
      </trkpt>
      <trkpt lat="43.41726" lon="6.06251">
        <ele>167.80000305176</ele>
        <time>2013-10-05T12:12:33Z</time>
      </trkpt>
      <trkpt lat="43.41737" lon="6.06251">
        <ele>169</ele>
        <time>2013-10-05T12:12:36Z</time>
      </trkpt>
      <trkpt lat="43.41743" lon="6.06251">
        <ele>169</ele>
        <time>2013-10-05T12:12:38Z</time>
      </trkpt>
      <trkpt lat="43.4176" lon="6.06257">
        <ele>169</ele>
        <time>2013-10-05T12:12:44Z</time>
      </trkpt>
      <trkpt lat="43.41771" lon="6.06261">
        <ele>170</ele>
        <time>2013-10-05T12:12:48Z</time>
      </trkpt>
      <trkpt lat="43.41774" lon="6.06263">
        <ele>170.39999389648</ele>
        <time>2013-10-05T12:12:49Z</time>
      </trkpt>
      <trkpt lat="43.41779" lon="6.06267">
        <ele>171.19999694824</ele>
        <time>2013-10-05T12:12:51Z</time>
      </trkpt>
      <trkpt lat="43.41794" lon="6.0628">
        <ele>171.19999694824</ele>
        <time>2013-10-05T12:12:57Z</time>
      </trkpt>
      <trkpt lat="43.41805" lon="6.06289">
        <ele>172.39999389648</ele>
        <time>2013-10-05T12:13:01Z</time>
      </trkpt>
      <trkpt lat="43.41811" lon="6.06292">
        <ele>173.19999694824</ele>
        <time>2013-10-05T12:13:03Z</time>
      </trkpt>
      <trkpt lat="43.41814" lon="6.06293">
        <ele>173.19999694824</ele>
        <time>2013-10-05T12:13:04Z</time>
      </trkpt>
      <trkpt lat="43.41838" lon="6.06293">
        <ele>173.19999694824</ele>
        <time>2013-10-05T12:13:12Z</time>
      </trkpt>
      <trkpt lat="43.41866" lon="6.06294">
        <ele>175.39999389648</ele>
        <time>2013-10-05T12:13:22Z</time>
      </trkpt>
      <trkpt lat="43.41879" lon="6.06294">
        <ele>176.19999694824</ele>
        <time>2013-10-05T12:13:27Z</time>
      </trkpt>
      <trkpt lat="43.41886" lon="6.06295">
        <ele>177.39999389648</ele>
        <time>2013-10-05T12:13:30Z</time>
      </trkpt>
      <trkpt lat="43.41901" lon="6.06296">
        <ele>177.39999389648</ele>
        <time>2013-10-05T12:13:36Z</time>
      </trkpt>
      <trkpt lat="43.41911" lon="6.06295">
        <ele>178.80000305176</ele>
        <time>2013-10-05T12:13:41Z</time>
      </trkpt>
      <trkpt lat="43.41916" lon="6.06295">
        <ele>179.60000610352</ele>
        <time>2013-10-05T12:13:43Z</time>
      </trkpt>
      <trkpt lat="43.41917" lon="6.06294">
        <ele>179.60000610352</ele>
        <time>2013-10-05T12:13:44Z</time>
      </trkpt>
      <trkpt lat="43.41932" lon="6.0629">
        <ele>179.60000610352</ele>
        <time>2013-10-05T12:13:51Z</time>
      </trkpt>
      <trkpt lat="43.41951" lon="6.06285">
        <ele>180</ele>
        <time>2013-10-05T12:13:58Z</time>
      </trkpt>
      <trkpt lat="43.41958" lon="6.06283">
        <ele>181.19999694824</ele>
        <time>2013-10-05T12:14:01Z</time>
      </trkpt>
      <trkpt lat="43.41986" lon="6.06275">
        <ele>182.39999389648</ele>
        <time>2013-10-05T12:14:12Z</time>
      </trkpt>
      <trkpt lat="43.41988" lon="6.06274">
        <ele>182.80000305176</ele>
        <time>2013-10-05T12:14:13Z</time>
      </trkpt>
      <trkpt lat="43.42008" lon="6.06267">
        <ele>185.39999389648</ele>
        <time>2013-10-05T12:14:21Z</time>
      </trkpt>
      <trkpt lat="43.42024" lon="6.06261">
        <ele>187.39999389648</ele>
        <time>2013-10-05T12:14:28Z</time>
      </trkpt>
      <trkpt lat="43.42037" lon="6.06257">
        <ele>188.60000610352</ele>
        <time>2013-10-05T12:14:34Z</time>
      </trkpt>
      <trkpt lat="43.42057" lon="6.06251">
        <ele>191.19999694824</ele>
        <time>2013-10-05T12:14:43Z</time>
      </trkpt>
      <trkpt lat="43.4206" lon="6.06249">
        <ele>192</ele>
        <time>2013-10-05T12:14:45Z</time>
      </trkpt>
      <trkpt lat="43.42072" lon="6.06245">
        <ele>192.80000305176</ele>
        <time>2013-10-05T12:14:51Z</time>
      </trkpt>
      <trkpt lat="43.42085" lon="6.06241">
        <ele>194.60000610352</ele>
        <time>2013-10-05T12:14:58Z</time>
      </trkpt>
      <trkpt lat="43.421" lon="6.06235">
        <ele>196.19999694824</ele>
        <time>2013-10-05T12:15:06Z</time>
      </trkpt>
      <trkpt lat="43.42112" lon="6.06231">
        <ele>198</ele>
        <time>2013-10-05T12:15:13Z</time>
      </trkpt>
      <trkpt lat="43.42123" lon="6.06228">
        <ele>198.39999389648</ele>
        <time>2013-10-05T12:15:19Z</time>
      </trkpt>
      <trkpt lat="43.42133" lon="6.06225">
        <ele>198.80000305176</ele>
        <time>2013-10-05T12:15:24Z</time>
      </trkpt>
      <trkpt lat="43.42139" lon="6.06223">
        <ele>200</ele>
        <time>2013-10-05T12:15:27Z</time>
      </trkpt>
      <trkpt lat="43.42146" lon="6.0622">
        <ele>200.39999389648</ele>
        <time>2013-10-05T12:15:31Z</time>
      </trkpt>
      <trkpt lat="43.42148" lon="6.06216">
        <ele>200.39999389648</ele>
        <time>2013-10-05T12:15:33Z</time>
      </trkpt>
      <trkpt lat="43.42149" lon="6.06212">
        <ele>200.39999389648</ele>
        <time>2013-10-05T12:15:35Z</time>
      </trkpt>
      <trkpt lat="43.42149" lon="6.06207">
        <ele>200.39999389648</ele>
        <time>2013-10-05T12:15:38Z</time>
      </trkpt>
      <trkpt lat="43.42148" lon="6.06203">
        <ele>200.39999389648</ele>
        <time>2013-10-05T12:15:40Z</time>
      </trkpt>
      <trkpt lat="43.42145" lon="6.06192">
        <ele>200.39999389648</ele>
        <time>2013-10-05T12:15:44Z</time>
      </trkpt>
      <trkpt lat="43.42142" lon="6.06182">
        <ele>200.39999389648</ele>
        <time>2013-10-05T12:15:47Z</time>
      </trkpt>
      <trkpt lat="43.42136" lon="6.06165">
        <ele>200.39999389648</ele>
        <time>2013-10-05T12:15:51Z</time>
      </trkpt>
      <trkpt lat="43.42133" lon="6.06155">
        <ele>200.39999389648</ele>
        <time>2013-10-05T12:15:53Z</time>
      </trkpt>
      <trkpt lat="43.42131" lon="6.06149">
        <ele>200.39999389648</ele>
        <time>2013-10-05T12:15:54Z</time>
      </trkpt>
      <trkpt lat="43.42128" lon="6.06139">
        <ele>200.39999389648</ele>
        <time>2013-10-05T12:15:56Z</time>
      </trkpt>
      <trkpt lat="43.42123" lon="6.06119">
        <ele>200.39999389648</ele>
        <time>2013-10-05T12:16:00Z</time>
      </trkpt>
      <trkpt lat="43.4212" lon="6.06102">
        <ele>200.39999389648</ele>
        <time>2013-10-05T12:16:04Z</time>
      </trkpt>
      <trkpt lat="43.42118" lon="6.06086">
        <ele>200.39999389648</ele>
        <time>2013-10-05T12:16:08Z</time>
      </trkpt>
      <trkpt lat="43.42117" lon="6.06078">
        <ele>200.39999389648</ele>
        <time>2013-10-05T12:16:10Z</time>
      </trkpt>
      <trkpt lat="43.42115" lon="6.06066">
        <ele>201.19999694824</ele>
        <time>2013-10-05T12:16:13Z</time>
      </trkpt>
      <trkpt lat="43.42112" lon="6.06042">
        <ele>202.39999389648</ele>
        <time>2013-10-05T12:16:19Z</time>
      </trkpt>
      <trkpt lat="43.42107" lon="6.06016">
        <ele>202.39999389648</ele>
        <time>2013-10-05T12:16:26Z</time>
      </trkpt>
      <trkpt lat="43.421" lon="6.05991">
        <ele>202.39999389648</ele>
        <time>2013-10-05T12:16:32Z</time>
      </trkpt>
      <trkpt lat="43.42094" lon="6.05965">
        <ele>202.39999389648</ele>
        <time>2013-10-05T12:16:38Z</time>
      </trkpt>
      <trkpt lat="43.42083" lon="6.05924">
        <ele>202.39999389648</ele>
        <time>2013-10-05T12:16:47Z</time>
      </trkpt>
      <trkpt lat="43.42078" lon="6.05899">
        <ele>202.39999389648</ele>
        <time>2013-10-05T12:16:52Z</time>
      </trkpt>
      <trkpt lat="43.42073" lon="6.05876">
        <ele>202.39999389648</ele>
        <time>2013-10-05T12:16:57Z</time>
      </trkpt>
      <trkpt lat="43.42065" lon="6.05844">
        <ele>202.39999389648</ele>
        <time>2013-10-05T12:17:03Z</time>
      </trkpt>
      <trkpt lat="43.42062" lon="6.0583">
        <ele>202</ele>
        <time>2013-10-05T12:17:05Z</time>
      </trkpt>
      <trkpt lat="43.42057" lon="6.05812">
        <ele>201.19999694824</ele>
        <time>2013-10-05T12:17:07Z</time>
      </trkpt>
      <trkpt lat="43.42054" lon="6.05796">
        <ele>200.39999389648</ele>
        <time>2013-10-05T12:17:09Z</time>
      </trkpt>
      <trkpt lat="43.42048" lon="6.05767">
        <ele>200.39999389648</ele>
        <time>2013-10-05T12:17:13Z</time>
      </trkpt>
      <trkpt lat="43.42047" lon="6.0576">
        <ele>200.39999389648</ele>
        <time>2013-10-05T12:17:14Z</time>
      </trkpt>
      <trkpt lat="43.42046" lon="6.05753">
        <ele>200</ele>
        <time>2013-10-05T12:17:15Z</time>
      </trkpt>
      <trkpt lat="43.42045" lon="6.05746">
        <ele>199.60000610352</ele>
        <time>2013-10-05T12:17:16Z</time>
      </trkpt>
      <trkpt lat="43.42041" lon="6.05725">
        <ele>198.39999389648</ele>
        <time>2013-10-05T12:17:19Z</time>
      </trkpt>
      <trkpt lat="43.42035" lon="6.05685">
        <ele>198.39999389648</ele>
        <time>2013-10-05T12:17:25Z</time>
      </trkpt>
      <trkpt lat="43.42032" lon="6.05674">
        <ele>198.39999389648</ele>
        <time>2013-10-05T12:17:27Z</time>
      </trkpt>
      <trkpt lat="43.42025" lon="6.05641">
        <ele>198.39999389648</ele>
        <time>2013-10-05T12:17:33Z</time>
      </trkpt>
      <trkpt lat="43.42023" lon="6.05631">
        <ele>198.39999389648</ele>
        <time>2013-10-05T12:17:35Z</time>
      </trkpt>
      <trkpt lat="43.42016" lon="6.05594">
        <ele>200.39999389648</ele>
        <time>2013-10-05T12:17:43Z</time>
      </trkpt>
      <trkpt lat="43.42014" lon="6.05582">
        <ele>200.80000305176</ele>
        <time>2013-10-05T12:17:46Z</time>
      </trkpt>
      <trkpt lat="43.42012" lon="6.05569">
        <ele>202.19999694824</ele>
        <time>2013-10-05T12:17:49Z</time>
      </trkpt>
      <trkpt lat="43.42009" lon="6.05546">
        <ele>202.60000610352</ele>
        <time>2013-10-05T12:17:55Z</time>
      </trkpt>
      <trkpt lat="43.42008" lon="6.05538">
        <ele>203.39999389648</ele>
        <time>2013-10-05T12:17:57Z</time>
      </trkpt>
      <trkpt lat="43.42005" lon="6.0552">
        <ele>204.60000610352</ele>
        <time>2013-10-05T12:18:02Z</time>
      </trkpt>
      <trkpt lat="43.42004" lon="6.05506">
        <ele>205</ele>
        <time>2013-10-05T12:18:06Z</time>
      </trkpt>
      <trkpt lat="43.42003" lon="6.05502">
        <ele>205.39999389648</ele>
        <time>2013-10-05T12:18:07Z</time>
      </trkpt>
      <trkpt lat="43.42002" lon="6.05495">
        <ele>206.19999694824</ele>
        <time>2013-10-05T12:18:09Z</time>
      </trkpt>
      <trkpt lat="43.42001" lon="6.05491">
        <ele>206.60000610352</ele>
        <time>2013-10-05T12:18:10Z</time>
      </trkpt>
      <trkpt lat="43.41997" lon="6.05471">
        <ele>206.60000610352</ele>
        <time>2013-10-05T12:18:15Z</time>
      </trkpt>
      <trkpt lat="43.41989" lon="6.0544">
        <ele>206.60000610352</ele>
        <time>2013-10-05T12:18:21Z</time>
      </trkpt>
      <trkpt lat="43.41983" lon="6.05421">
        <ele>206.60000610352</ele>
        <time>2013-10-05T12:18:24Z</time>
      </trkpt>
      <trkpt lat="43.4198" lon="6.05405">
        <ele>206.60000610352</ele>
        <time>2013-10-05T12:18:26Z</time>
      </trkpt>
      <trkpt lat="43.41975" lon="6.05389">
        <ele>206.19999694824</ele>
        <time>2013-10-05T12:18:28Z</time>
      </trkpt>
      <trkpt lat="43.41971" lon="6.05372">
        <ele>205.39999389648</ele>
        <time>2013-10-05T12:18:30Z</time>
      </trkpt>
      <trkpt lat="43.41967" lon="6.05355">
        <ele>204.39999389648</ele>
        <time>2013-10-05T12:18:32Z</time>
      </trkpt>
      <trkpt lat="43.41963" lon="6.05339">
        <ele>204.39999389648</ele>
        <time>2013-10-05T12:18:34Z</time>
      </trkpt>
      <trkpt lat="43.41959" lon="6.05323">
        <ele>203.60000610352</ele>
        <time>2013-10-05T12:18:36Z</time>
      </trkpt>
      <trkpt lat="43.41952" lon="6.05282">
        <ele>201.19999694824</ele>
        <time>2013-10-05T12:18:41Z</time>
      </trkpt>
      <trkpt lat="43.41949" lon="6.05265">
        <ele>200.39999389648</ele>
        <time>2013-10-05T12:18:43Z</time>
      </trkpt>
      <trkpt lat="43.41948" lon="6.05256">
        <ele>200</ele>
        <time>2013-10-05T12:18:44Z</time>
      </trkpt>
      <trkpt lat="43.41946" lon="6.05236">
        <ele>199.60000610352</ele>
        <time>2013-10-05T12:18:46Z</time>
      </trkpt>
      <trkpt lat="43.41945" lon="6.05226">
        <ele>199</ele>
        <time>2013-10-05T12:18:47Z</time>
      </trkpt>
      <trkpt lat="43.41945" lon="6.05216">
        <ele>198.60000610352</ele>
        <time>2013-10-05T12:18:48Z</time>
      </trkpt>
      <trkpt lat="43.41944" lon="6.05206">
        <ele>198.19999694824</ele>
        <time>2013-10-05T12:18:49Z</time>
      </trkpt>
      <trkpt lat="43.41944" lon="6.05187">
        <ele>197.60000610352</ele>
        <time>2013-10-05T12:18:51Z</time>
      </trkpt>
      <trkpt lat="43.41943" lon="6.05179">
        <ele>197.19999694824</ele>
        <time>2013-10-05T12:18:52Z</time>
      </trkpt>
      <trkpt lat="43.41943" lon="6.05172">
        <ele>196.80000305176</ele>
        <time>2013-10-05T12:18:53Z</time>
      </trkpt>
      <trkpt lat="43.41943" lon="6.05166">
        <ele>196.19999694824</ele>
        <time>2013-10-05T12:18:54Z</time>
      </trkpt>
      <trkpt lat="43.41944" lon="6.05161">
        <ele>195.80000305176</ele>
        <time>2013-10-05T12:18:55Z</time>
      </trkpt>
      <trkpt lat="43.41945" lon="6.05156">
        <ele>195.39999389648</ele>
        <time>2013-10-05T12:18:56Z</time>
      </trkpt>
      <trkpt lat="43.4195" lon="6.0515">
        <ele>194.19999694824</ele>
        <time>2013-10-05T12:18:58Z</time>
      </trkpt>
      <trkpt lat="43.41953" lon="6.05148">
        <ele>193.80000305176</ele>
        <time>2013-10-05T12:18:59Z</time>
      </trkpt>
      <trkpt lat="43.41956" lon="6.05146">
        <ele>193.19999694824</ele>
        <time>2013-10-05T12:19:00Z</time>
      </trkpt>
      <trkpt lat="43.41959" lon="6.05144">
        <ele>193.19999694824</ele>
        <time>2013-10-05T12:19:01Z</time>
      </trkpt>
      <trkpt lat="43.41965" lon="6.05141">
        <ele>193.19999694824</ele>
        <time>2013-10-05T12:19:03Z</time>
      </trkpt>
      <trkpt lat="43.41969" lon="6.0514">
        <ele>193.19999694824</ele>
        <time>2013-10-05T12:19:04Z</time>
      </trkpt>
      <trkpt lat="43.41975" lon="6.05139">
        <ele>193.19999694824</ele>
        <time>2013-10-05T12:19:06Z</time>
      </trkpt>
      <trkpt lat="43.41986" lon="6.05136">
        <ele>193.19999694824</ele>
        <time>2013-10-05T12:19:10Z</time>
      </trkpt>
      <trkpt lat="43.41998" lon="6.05135">
        <ele>194.19999694824</ele>
        <time>2013-10-05T12:19:14Z</time>
      </trkpt>
      <trkpt lat="43.42004" lon="6.05135">
        <ele>195</ele>
        <time>2013-10-05T12:19:16Z</time>
      </trkpt>
      <trkpt lat="43.42007" lon="6.05134">
        <ele>195.39999389648</ele>
        <time>2013-10-05T12:19:17Z</time>
      </trkpt>
      <trkpt lat="43.42021" lon="6.05128">
        <ele>195.39999389648</ele>
        <time>2013-10-05T12:19:22Z</time>
      </trkpt>
      <trkpt lat="43.42039" lon="6.05123">
        <ele>195.39999389648</ele>
        <time>2013-10-05T12:19:28Z</time>
      </trkpt>
      <trkpt lat="43.42059" lon="6.05118">
        <ele>195.80000305176</ele>
        <time>2013-10-05T12:19:36Z</time>
      </trkpt>
      <trkpt lat="43.42064" lon="6.05117">
        <ele>196.60000610352</ele>
        <time>2013-10-05T12:19:38Z</time>
      </trkpt>
      <trkpt lat="43.42069" lon="6.05117">
        <ele>197.39999389648</ele>
        <time>2013-10-05T12:19:40Z</time>
      </trkpt>
      <trkpt lat="43.42088" lon="6.05116">
        <ele>197.39999389648</ele>
        <time>2013-10-05T12:19:47Z</time>
      </trkpt>
      <trkpt lat="43.4211" lon="6.05116">
        <ele>199.60000610352</ele>
        <time>2013-10-05T12:19:56Z</time>
      </trkpt>
      <trkpt lat="43.42123" lon="6.05116">
        <ele>199.60000610352</ele>
        <time>2013-10-05T12:20:01Z</time>
      </trkpt>
      <trkpt lat="43.42133" lon="6.05127">
        <ele>199.60000610352</ele>
        <time>2013-10-05T12:20:06Z</time>
      </trkpt>
      <trkpt lat="43.42141" lon="6.05137">
        <ele>200</ele>
        <time>2013-10-05T12:20:10Z</time>
      </trkpt>
      <trkpt lat="43.42159" lon="6.05159">
        <ele>201.80000305176</ele>
        <time>2013-10-05T12:20:19Z</time>
      </trkpt>
      <trkpt lat="43.42181" lon="6.05172">
        <ele>201.80000305176</ele>
        <time>2013-10-05T12:20:28Z</time>
      </trkpt>
      <trkpt lat="43.42197" lon="6.05184">
        <ele>201.80000305176</ele>
        <time>2013-10-05T12:20:35Z</time>
      </trkpt>
      <trkpt lat="43.42205" lon="6.0519">
        <ele>202.60000610352</ele>
        <time>2013-10-05T12:20:39Z</time>
      </trkpt>
      <trkpt lat="43.42226" lon="6.05201">
        <ele>203.80000305176</ele>
        <time>2013-10-05T12:20:48Z</time>
      </trkpt>
      <trkpt lat="43.42236" lon="6.05214">
        <ele>203.80000305176</ele>
        <time>2013-10-05T12:20:53Z</time>
      </trkpt>
      <trkpt lat="43.42238" lon="6.05216">
        <ele>204.19999694824</ele>
        <time>2013-10-05T12:20:54Z</time>
      </trkpt>
      <trkpt lat="43.42245" lon="6.05218">
        <ele>205.39999389648</ele>
        <time>2013-10-05T12:20:57Z</time>
      </trkpt>
      <trkpt lat="43.42261" lon="6.05218">
        <ele>206</ele>
        <time>2013-10-05T12:21:03Z</time>
      </trkpt>
      <trkpt lat="43.42279" lon="6.05218">
        <ele>206</ele>
        <time>2013-10-05T12:21:10Z</time>
      </trkpt>
      <trkpt lat="43.42286" lon="6.0522">
        <ele>206.80000305176</ele>
        <time>2013-10-05T12:21:13Z</time>
      </trkpt>
      <trkpt lat="43.42298" lon="6.05223">
        <ele>208</ele>
        <time>2013-10-05T12:21:18Z</time>
      </trkpt>
      <trkpt lat="43.4231" lon="6.05227">
        <ele>208</ele>
        <time>2013-10-05T12:21:24Z</time>
      </trkpt>
      <trkpt lat="43.42327" lon="6.05229">
        <ele>208.39999389648</ele>
        <time>2013-10-05T12:21:33Z</time>
      </trkpt>
      <trkpt lat="43.42333" lon="6.0523">
        <ele>209.80000305176</ele>
        <time>2013-10-05T12:21:36Z</time>
      </trkpt>
      <trkpt lat="43.42343" lon="6.05234">
        <ele>210.19999694824</ele>
        <time>2013-10-05T12:21:42Z</time>
      </trkpt>
      <trkpt lat="43.42347" lon="6.05235">
        <ele>211</ele>
        <time>2013-10-05T12:21:44Z</time>
      </trkpt>
      <trkpt lat="43.42351" lon="6.05236">
        <ele>211.80000305176</ele>
        <time>2013-10-05T12:21:46Z</time>
      </trkpt>
      <trkpt lat="43.42355" lon="6.05236">
        <ele>212.19999694824</ele>
        <time>2013-10-05T12:21:48Z</time>
      </trkpt>
      <trkpt lat="43.4238" lon="6.05229">
        <ele>213</ele>
        <time>2013-10-05T12:22:00Z</time>
      </trkpt>
      <trkpt lat="43.42399" lon="6.05226">
        <ele>214.19999694824</ele>
        <time>2013-10-05T12:22:09Z</time>
      </trkpt>
      <trkpt lat="43.42411" lon="6.05224">
        <ele>214.19999694824</ele>
        <time>2013-10-05T12:22:15Z</time>
      </trkpt>
      <trkpt lat="43.42425" lon="6.05225">
        <ele>214.19999694824</ele>
        <time>2013-10-05T12:22:21Z</time>
      </trkpt>
      <trkpt lat="43.42434" lon="6.05225">
        <ele>214.19999694824</ele>
        <time>2013-10-05T12:22:25Z</time>
      </trkpt>
      <trkpt lat="43.4244" lon="6.05224">
        <ele>214.19999694824</ele>
        <time>2013-10-05T12:22:28Z</time>
      </trkpt>
      <trkpt lat="43.42443" lon="6.05224">
        <ele>214.60000610352</ele>
        <time>2013-10-05T12:22:29Z</time>
      </trkpt>
      <trkpt lat="43.42453" lon="6.0522">
        <ele>216.39999389648</ele>
        <time>2013-10-05T12:22:33Z</time>
      </trkpt>
      <trkpt lat="43.42465" lon="6.05214">
        <ele>217.80000305176</ele>
        <time>2013-10-05T12:22:40Z</time>
      </trkpt>
      <trkpt lat="43.42469" lon="6.05215">
        <ele>218.60000610352</ele>
        <time>2013-10-05T12:22:42Z</time>
      </trkpt>
      <trkpt lat="43.42471" lon="6.05216">
        <ele>218.60000610352</ele>
        <time>2013-10-05T12:22:43Z</time>
      </trkpt>
      <trkpt lat="43.42477" lon="6.05217">
        <ele>218.60000610352</ele>
        <time>2013-10-05T12:22:46Z</time>
      </trkpt>
      <trkpt lat="43.42485" lon="6.05219">
        <ele>218.60000610352</ele>
        <time>2013-10-05T12:22:49Z</time>
      </trkpt>
      <trkpt lat="43.42497" lon="6.05225">
        <ele>218.60000610352</ele>
        <time>2013-10-05T12:22:54Z</time>
      </trkpt>
      <trkpt lat="43.42505" lon="6.05228">
        <ele>218.60000610352</ele>
        <time>2013-10-05T12:22:57Z</time>
      </trkpt>
      <trkpt lat="43.42511" lon="6.05229">
        <ele>218.60000610352</ele>
        <time>2013-10-05T12:23:00Z</time>
      </trkpt>
      <trkpt lat="43.42527" lon="6.05229">
        <ele>218.60000610352</ele>
        <time>2013-10-05T12:23:07Z</time>
      </trkpt>
      <trkpt lat="43.42543" lon="6.05226">
        <ele>220.39999389648</ele>
        <time>2013-10-05T12:23:15Z</time>
      </trkpt>
      <trkpt lat="43.42548" lon="6.05225">
        <ele>220.80000305176</ele>
        <time>2013-10-05T12:23:17Z</time>
      </trkpt>
      <trkpt lat="43.42558" lon="6.05222">
        <ele>221.19999694824</ele>
        <time>2013-10-05T12:23:22Z</time>
      </trkpt>
      <trkpt lat="43.4256" lon="6.05222">
        <ele>221.60000610352</ele>
        <time>2013-10-05T12:23:23Z</time>
      </trkpt>
      <trkpt lat="43.42564" lon="6.05222">
        <ele>222.39999389648</ele>
        <time>2013-10-05T12:23:25Z</time>
      </trkpt>
      <trkpt lat="43.42567" lon="6.05222">
        <ele>222.80000305176</ele>
        <time>2013-10-05T12:23:26Z</time>
      </trkpt>
      <trkpt lat="43.42572" lon="6.05223">
        <ele>222.80000305176</ele>
        <time>2013-10-05T12:23:28Z</time>
      </trkpt>
      <trkpt lat="43.42587" lon="6.0523">
        <ele>222.80000305176</ele>
        <time>2013-10-05T12:23:34Z</time>
      </trkpt>
      <trkpt lat="43.42598" lon="6.05239">
        <ele>222.80000305176</ele>
        <time>2013-10-05T12:23:40Z</time>
      </trkpt>
      <trkpt lat="43.42609" lon="6.05251">
        <ele>222.80000305176</ele>
        <time>2013-10-05T12:23:47Z</time>
      </trkpt>
      <trkpt lat="43.42622" lon="6.0526">
        <ele>222.80000305176</ele>
        <time>2013-10-05T12:23:53Z</time>
      </trkpt>
      <trkpt lat="43.42627" lon="6.05264">
        <ele>223.19999694824</ele>
        <time>2013-10-05T12:23:57Z</time>
      </trkpt>
      <trkpt lat="43.42629" lon="6.05265">
        <ele>223.80000305176</ele>
        <time>2013-10-05T12:23:58Z</time>
      </trkpt>
      <trkpt lat="43.42632" lon="6.05266">
        <ele>225</ele>
        <time>2013-10-05T12:24:00Z</time>
      </trkpt>
      <trkpt lat="43.42636" lon="6.0527">
        <ele>225</ele>
        <time>2013-10-05T12:24:06Z</time>
      </trkpt>
      <trkpt lat="43.42636" lon="6.0527">
        <ele>225</ele>
        <time>2013-10-05T12:24:23Z</time>
      </trkpt>
      <trkpt lat="43.42636" lon="6.0527">
        <ele>225</ele>
        <time>2013-10-05T12:24:44Z</time>
      </trkpt>
      <trkpt lat="43.42636" lon="6.0527">
        <ele>225</ele>
        <time>2013-10-05T12:24:49Z</time>
      </trkpt>
      <trkpt lat="43.42636" lon="6.0527">
        <ele>225</ele>
        <time>2013-10-05T12:25:12Z</time>
      </trkpt>
      <trkpt lat="43.42636" lon="6.0527">
        <ele>225</ele>
        <time>2013-10-05T12:25:28Z</time>
      </trkpt>
      <trkpt lat="43.42636" lon="6.0527">
        <ele>225</ele>
        <time>2013-10-05T12:25:35Z</time>
      </trkpt>
      <trkpt lat="43.42636" lon="6.05272">
        <ele>225</ele>
        <time>2013-10-05T12:25:40Z</time>
      </trkpt>
      <trkpt lat="43.42637" lon="6.05275">
        <ele>225</ele>
        <time>2013-10-05T12:25:42Z</time>
      </trkpt>
      <trkpt lat="43.42644" lon="6.05283">
        <ele>225</ele>
        <time>2013-10-05T12:25:47Z</time>
      </trkpt>
      <trkpt lat="43.42651" lon="6.05292">
        <ele>225</ele>
        <time>2013-10-05T12:25:52Z</time>
      </trkpt>
      <trkpt lat="43.42657" lon="6.05301">
        <ele>225.80000305176</ele>
        <time>2013-10-05T12:25:56Z</time>
      </trkpt>
      <trkpt lat="43.42659" lon="6.05305">
        <ele>226.60000610352</ele>
        <time>2013-10-05T12:25:58Z</time>
      </trkpt>
      <trkpt lat="43.42661" lon="6.05307">
        <ele>227</ele>
        <time>2013-10-05T12:25:59Z</time>
      </trkpt>
      <trkpt lat="43.42666" lon="6.05316">
        <ele>227</ele>
        <time>2013-10-05T12:26:03Z</time>
      </trkpt>
      <trkpt lat="43.42675" lon="6.05328">
        <ele>227</ele>
        <time>2013-10-05T12:26:07Z</time>
      </trkpt>
      <trkpt lat="43.42677" lon="6.05331">
        <ele>227.60000610352</ele>
        <time>2013-10-05T12:26:09Z</time>
      </trkpt>
      <trkpt lat="43.42678" lon="6.05332">
        <ele>228</ele>
        <time>2013-10-05T12:26:10Z</time>
      </trkpt>
      <trkpt lat="43.4268" lon="6.05332">
        <ele>228.39999389648</ele>
        <time>2013-10-05T12:26:11Z</time>
      </trkpt>
      <trkpt lat="43.42682" lon="6.05333">
        <ele>229</ele>
        <time>2013-10-05T12:26:12Z</time>
      </trkpt>
      <trkpt lat="43.42684" lon="6.05339">
        <ele>229.39999389648</ele>
        <time>2013-10-05T12:26:15Z</time>
      </trkpt>
      <trkpt lat="43.42687" lon="6.05342">
        <ele>229.39999389648</ele>
        <time>2013-10-05T12:26:17Z</time>
      </trkpt>
      <trkpt lat="43.42689" lon="6.05343">
        <ele>229.39999389648</ele>
        <time>2013-10-05T12:26:18Z</time>
      </trkpt>
      <trkpt lat="43.42693" lon="6.05344">
        <ele>229.39999389648</ele>
        <time>2013-10-05T12:26:20Z</time>
      </trkpt>
      <trkpt lat="43.42698" lon="6.05345">
        <ele>229.80000305176</ele>
        <time>2013-10-05T12:26:24Z</time>
      </trkpt>
      <trkpt lat="43.42705" lon="6.05343">
        <ele>231.39999389648</ele>
        <time>2013-10-05T12:26:28Z</time>
      </trkpt>
      <trkpt lat="43.42717" lon="6.05342">
        <ele>231.39999389648</ele>
        <time>2013-10-05T12:26:34Z</time>
      </trkpt>
      <trkpt lat="43.42721" lon="6.05347">
        <ele>231.39999389648</ele>
        <time>2013-10-05T12:26:37Z</time>
      </trkpt>
      <trkpt lat="43.42723" lon="6.05358">
        <ele>231.39999389648</ele>
        <time>2013-10-05T12:26:42Z</time>
      </trkpt>
      <trkpt lat="43.4272" lon="6.05373">
        <ele>232.60000610352</ele>
        <time>2013-10-05T12:26:48Z</time>
      </trkpt>
      <trkpt lat="43.4272" lon="6.05384">
        <ele>233.39999389648</ele>
        <time>2013-10-05T12:26:53Z</time>
      </trkpt>
      <trkpt lat="43.42724" lon="6.05403">
        <ele>234.19999694824</ele>
        <time>2013-10-05T12:27:02Z</time>
      </trkpt>
      <trkpt lat="43.42729" lon="6.05421">
        <ele>235.39999389648</ele>
        <time>2013-10-05T12:27:11Z</time>
      </trkpt>
      <trkpt lat="43.42731" lon="6.05429">
        <ele>236.19999694824</ele>
        <time>2013-10-05T12:27:15Z</time>
      </trkpt>
      <trkpt lat="43.42731" lon="6.05435">
        <ele>237.60000610352</ele>
        <time>2013-10-05T12:27:18Z</time>
      </trkpt>
      <trkpt lat="43.42731" lon="6.05446">
        <ele>237.60000610352</ele>
        <time>2013-10-05T12:27:23Z</time>
      </trkpt>
      <trkpt lat="43.42729" lon="6.05454">
        <ele>237.60000610352</ele>
        <time>2013-10-05T12:27:27Z</time>
      </trkpt>
      <trkpt lat="43.42726" lon="6.05462">
        <ele>237.60000610352</ele>
        <time>2013-10-05T12:27:31Z</time>
      </trkpt>
      <trkpt lat="43.42724" lon="6.05472">
        <ele>238</ele>
        <time>2013-10-05T12:27:36Z</time>
      </trkpt>
      <trkpt lat="43.42724" lon="6.05475">
        <ele>238.39999389648</ele>
        <time>2013-10-05T12:27:37Z</time>
      </trkpt>
      <trkpt lat="43.42726" lon="6.05495">
        <ele>239.60000610352</ele>
        <time>2013-10-05T12:27:45Z</time>
      </trkpt>
      <trkpt lat="43.42728" lon="6.05522">
        <ele>240</ele>
        <time>2013-10-05T12:27:56Z</time>
      </trkpt>
      <trkpt lat="43.4273" lon="6.05529">
        <ele>241.19999694824</ele>
        <time>2013-10-05T12:27:59Z</time>
      </trkpt>
      <trkpt lat="43.42733" lon="6.05544">
        <ele>241.60000610352</ele>
        <time>2013-10-05T12:28:06Z</time>
      </trkpt>
      <trkpt lat="43.42737" lon="6.0556">
        <ele>242.80000305176</ele>
        <time>2013-10-05T12:28:13Z</time>
      </trkpt>
      <trkpt lat="43.42738" lon="6.05565">
        <ele>243.60000610352</ele>
        <time>2013-10-05T12:28:15Z</time>
      </trkpt>
      <trkpt lat="43.42746" lon="6.05574">
        <ele>243.60000610352</ele>
        <time>2013-10-05T12:28:21Z</time>
      </trkpt>
      <trkpt lat="43.42752" lon="6.05582">
        <ele>244.19999694824</ele>
        <time>2013-10-05T12:28:26Z</time>
      </trkpt>
      <trkpt lat="43.42755" lon="6.05602">
        <ele>245.80000305176</ele>
        <time>2013-10-05T12:28:35Z</time>
      </trkpt>
      <trkpt lat="43.42752" lon="6.05614">
        <ele>246.80000305176</ele>
        <time>2013-10-05T12:28:40Z</time>
      </trkpt>
      <trkpt lat="43.42752" lon="6.05616">
        <ele>247.19999694824</ele>
        <time>2013-10-05T12:28:41Z</time>
      </trkpt>
      <trkpt lat="43.42751" lon="6.05619">
        <ele>248.19999694824</ele>
        <time>2013-10-05T12:28:43Z</time>
      </trkpt>
      <trkpt lat="43.42746" lon="6.05631">
        <ele>248.19999694824</ele>
        <time>2013-10-05T12:28:49Z</time>
      </trkpt>
      <trkpt lat="43.42742" lon="6.05637">
        <ele>248.60000610352</ele>
        <time>2013-10-05T12:28:53Z</time>
      </trkpt>
      <trkpt lat="43.42735" lon="6.05644">
        <ele>250.19999694824</ele>
        <time>2013-10-05T12:29:00Z</time>
      </trkpt>
      <trkpt lat="43.42733" lon="6.05647">
        <ele>250.19999694824</ele>
        <time>2013-10-05T12:29:02Z</time>
      </trkpt>
      <trkpt lat="43.42728" lon="6.05655">
        <ele>250.19999694824</ele>
        <time>2013-10-05T12:29:07Z</time>
      </trkpt>
      <trkpt lat="43.42728" lon="6.05656">
        <ele>250.19999694824</ele>
        <time>2013-10-05T12:29:08Z</time>
      </trkpt>
      <trkpt lat="43.42725" lon="6.05664">
        <ele>250.19999694824</ele>
        <time>2013-10-05T12:29:12Z</time>
      </trkpt>
      <trkpt lat="43.42721" lon="6.05671">
        <ele>250.60000610352</ele>
        <time>2013-10-05T12:29:16Z</time>
      </trkpt>
      <trkpt lat="43.4272" lon="6.05671">
        <ele>251</ele>
        <time>2013-10-05T12:29:17Z</time>
      </trkpt>
      <trkpt lat="43.4272" lon="6.05672">
        <ele>251.39999389648</ele>
        <time>2013-10-05T12:29:18Z</time>
      </trkpt>
      <trkpt lat="43.4272" lon="6.05672">
        <ele>252.19999694824</ele>
        <time>2013-10-05T12:29:21Z</time>
      </trkpt>
      <trkpt lat="43.4272" lon="6.05672">
        <ele>252.19999694824</ele>
        <time>2013-10-05T12:29:31Z</time>
      </trkpt>
      <trkpt lat="43.42715" lon="6.05677">
        <ele>252.19999694824</ele>
        <time>2013-10-05T12:29:36Z</time>
      </trkpt>
      <trkpt lat="43.42708" lon="6.05684">
        <ele>252.19999694824</ele>
        <time>2013-10-05T12:29:41Z</time>
      </trkpt>
      <trkpt lat="43.42707" lon="6.05689">
        <ele>252.19999694824</ele>
        <time>2013-10-05T12:29:44Z</time>
      </trkpt>
      <trkpt lat="43.42707" lon="6.05694">
        <ele>253.19999694824</ele>
        <time>2013-10-05T12:29:46Z</time>
      </trkpt>
      <trkpt lat="43.42705" lon="6.05701">
        <ele>254.39999389648</ele>
        <time>2013-10-05T12:29:49Z</time>
      </trkpt>
      <trkpt lat="43.42702" lon="6.05707">
        <ele>254.39999389648</ele>
        <time>2013-10-05T12:29:52Z</time>
      </trkpt>
      <trkpt lat="43.42702" lon="6.05716">
        <ele>255.19999694824</ele>
        <time>2013-10-05T12:29:55Z</time>
      </trkpt>
      <trkpt lat="43.42701" lon="6.0572">
        <ele>256</ele>
        <time>2013-10-05T12:29:57Z</time>
      </trkpt>
      <trkpt lat="43.42698" lon="6.0573">
        <ele>256.39999389648</ele>
        <time>2013-10-05T12:30:03Z</time>
      </trkpt>
      <trkpt lat="43.42699" lon="6.05732">
        <ele>256.39999389648</ele>
        <time>2013-10-05T12:30:04Z</time>
      </trkpt>
      <trkpt lat="43.42701" lon="6.05735">
        <ele>256.79998779297</ele>
        <time>2013-10-05T12:30:06Z</time>
      </trkpt>
      <trkpt lat="43.42704" lon="6.05737">
        <ele>258.20001220703</ele>
        <time>2013-10-05T12:30:09Z</time>
      </trkpt>
      <trkpt lat="43.42706" lon="6.05737">
        <ele>258.60000610352</ele>
        <time>2013-10-05T12:30:10Z</time>
      </trkpt>
      <trkpt lat="43.42712" lon="6.05737">
        <ele>258.60000610352</ele>
        <time>2013-10-05T12:30:14Z</time>
      </trkpt>
      <trkpt lat="43.42725" lon="6.05739">
        <ele>258.60000610352</ele>
        <time>2013-10-05T12:30:21Z</time>
      </trkpt>
      <trkpt lat="43.42734" lon="6.0574">
        <ele>258.60000610352</ele>
        <time>2013-10-05T12:30:27Z</time>
      </trkpt>
      <trkpt lat="43.42742" lon="6.0574">
        <ele>258.60000610352</ele>
        <time>2013-10-05T12:30:33Z</time>
      </trkpt>
      <trkpt lat="43.4275" lon="6.05742">
        <ele>258.60000610352</ele>
        <time>2013-10-05T12:30:38Z</time>
      </trkpt>
      <trkpt lat="43.42759" lon="6.05734">
        <ele>258.60000610352</ele>
        <time>2013-10-05T12:30:45Z</time>
      </trkpt>
      <trkpt lat="43.42768" lon="6.0573">
        <ele>258.60000610352</ele>
        <time>2013-10-05T12:30:50Z</time>
      </trkpt>
      <trkpt lat="43.42777" lon="6.05731">
        <ele>258.60000610352</ele>
        <time>2013-10-05T12:30:55Z</time>
      </trkpt>
      <trkpt lat="43.42778" lon="6.05732">
        <ele>259</ele>
        <time>2013-10-05T12:30:56Z</time>
      </trkpt>
      <trkpt lat="43.42786" lon="6.05736">
        <ele>260.60000610352</ele>
        <time>2013-10-05T12:31:01Z</time>
      </trkpt>
      <trkpt lat="43.42789" lon="6.05736">
        <ele>260.60000610352</ele>
        <time>2013-10-05T12:31:03Z</time>
      </trkpt>
      <trkpt lat="43.42795" lon="6.05742">
        <ele>260.60000610352</ele>
        <time>2013-10-05T12:31:09Z</time>
      </trkpt>
      <trkpt lat="43.42797" lon="6.05743">
        <ele>260.60000610352</ele>
        <time>2013-10-05T12:31:10Z</time>
      </trkpt>
      <trkpt lat="43.42809" lon="6.05739">
        <ele>260.60000610352</ele>
        <time>2013-10-05T12:31:16Z</time>
      </trkpt>
      <trkpt lat="43.42816" lon="6.05736">
        <ele>260.60000610352</ele>
        <time>2013-10-05T12:31:19Z</time>
      </trkpt>
      <trkpt lat="43.42821" lon="6.05737">
        <ele>260.60000610352</ele>
        <time>2013-10-05T12:31:21Z</time>
      </trkpt>
      <trkpt lat="43.42825" lon="6.05735">
        <ele>260.60000610352</ele>
        <time>2013-10-05T12:31:23Z</time>
      </trkpt>
      <trkpt lat="43.42829" lon="6.05734">
        <ele>260.60000610352</ele>
        <time>2013-10-05T12:31:26Z</time>
      </trkpt>
      <trkpt lat="43.42833" lon="6.05733">
        <ele>260.60000610352</ele>
        <time>2013-10-05T12:31:31Z</time>
      </trkpt>
      <trkpt lat="43.42833" lon="6.05733">
        <ele>260.60000610352</ele>
        <time>2013-10-05T12:31:46Z</time>
      </trkpt>
      <trkpt lat="43.42833" lon="6.05733">
        <ele>260.60000610352</ele>
        <time>2013-10-05T12:32:40Z</time>
      </trkpt>
      <trkpt lat="43.42834" lon="6.05732">
        <ele>260.60000610352</ele>
        <time>2013-10-05T12:32:52Z</time>
      </trkpt>
      <trkpt lat="43.42836" lon="6.0573">
        <ele>260.60000610352</ele>
        <time>2013-10-05T12:32:54Z</time>
      </trkpt>
      <trkpt lat="43.42837" lon="6.05729">
        <ele>260.60000610352</ele>
        <time>2013-10-05T12:32:56Z</time>
      </trkpt>
      <trkpt lat="43.42839" lon="6.05725">
        <ele>260.60000610352</ele>
        <time>2013-10-05T12:32:58Z</time>
      </trkpt>
      <trkpt lat="43.42841" lon="6.05716">
        <ele>260.60000610352</ele>
        <time>2013-10-05T12:33:02Z</time>
      </trkpt>
      <trkpt lat="43.42842" lon="6.0571">
        <ele>260.60000610352</ele>
        <time>2013-10-05T12:33:04Z</time>
      </trkpt>
      <trkpt lat="43.42844" lon="6.05695">
        <ele>260.60000610352</ele>
        <time>2013-10-05T12:33:10Z</time>
      </trkpt>
      <trkpt lat="43.42847" lon="6.05679">
        <ele>261</ele>
        <time>2013-10-05T12:33:16Z</time>
      </trkpt>
      <trkpt lat="43.42846" lon="6.05669">
        <ele>262.60000610352</ele>
        <time>2013-10-05T12:33:20Z</time>
      </trkpt>
      <trkpt lat="43.42847" lon="6.05661">
        <ele>262.60000610352</ele>
        <time>2013-10-05T12:33:23Z</time>
      </trkpt>
      <trkpt lat="43.42849" lon="6.05642">
        <ele>262.60000610352</ele>
        <time>2013-10-05T12:33:29Z</time>
      </trkpt>
      <trkpt lat="43.42851" lon="6.05617">
        <ele>262.60000610352</ele>
        <time>2013-10-05T12:33:36Z</time>
      </trkpt>
      <trkpt lat="43.42856" lon="6.05575">
        <ele>262.60000610352</ele>
        <time>2013-10-05T12:33:48Z</time>
      </trkpt>
      <trkpt lat="43.42859" lon="6.0555">
        <ele>262.60000610352</ele>
        <time>2013-10-05T12:33:54Z</time>
      </trkpt>
      <trkpt lat="43.42861" lon="6.05543">
        <ele>262.60000610352</ele>
        <time>2013-10-05T12:33:56Z</time>
      </trkpt>
      <trkpt lat="43.42865" lon="6.05523">
        <ele>262.60000610352</ele>
        <time>2013-10-05T12:34:02Z</time>
      </trkpt>
      <trkpt lat="43.42867" lon="6.05502">
        <ele>262.60000610352</ele>
        <time>2013-10-05T12:34:08Z</time>
      </trkpt>
      <trkpt lat="43.42869" lon="6.05481">
        <ele>262.60000610352</ele>
        <time>2013-10-05T12:34:14Z</time>
      </trkpt>
      <trkpt lat="43.42871" lon="6.05454">
        <ele>262.60000610352</ele>
        <time>2013-10-05T12:34:22Z</time>
      </trkpt>
      <trkpt lat="43.42873" lon="6.05438">
        <ele>262.60000610352</ele>
        <time>2013-10-05T12:34:27Z</time>
      </trkpt>
      <trkpt lat="43.42877" lon="6.05418">
        <ele>262.60000610352</ele>
        <time>2013-10-05T12:34:34Z</time>
      </trkpt>
      <trkpt lat="43.4288" lon="6.05395">
        <ele>262.60000610352</ele>
        <time>2013-10-05T12:34:41Z</time>
      </trkpt>
      <trkpt lat="43.42881" lon="6.05374">
        <ele>262.60000610352</ele>
        <time>2013-10-05T12:34:48Z</time>
      </trkpt>
      <trkpt lat="43.42882" lon="6.05364">
        <ele>262.60000610352</ele>
        <time>2013-10-05T12:34:52Z</time>
      </trkpt>
      <trkpt lat="43.42883" lon="6.05355">
        <ele>262.60000610352</ele>
        <time>2013-10-05T12:34:55Z</time>
      </trkpt>
      <trkpt lat="43.42883" lon="6.0535">
        <ele>263.60000610352</ele>
        <time>2013-10-05T12:34:57Z</time>
      </trkpt>
      <trkpt lat="43.42885" lon="6.05342">
        <ele>264.79998779297</ele>
        <time>2013-10-05T12:35:00Z</time>
      </trkpt>
      <trkpt lat="43.42887" lon="6.05318">
        <ele>264.79998779297</ele>
        <time>2013-10-05T12:35:08Z</time>
      </trkpt>
      <trkpt lat="43.42894" lon="6.0527">
        <ele>266.79998779297</ele>
        <time>2013-10-05T12:35:23Z</time>
      </trkpt>
      <trkpt lat="43.429" lon="6.0522">
        <ele>266.79998779297</ele>
        <time>2013-10-05T12:35:37Z</time>
      </trkpt>
      <trkpt lat="43.42903" lon="6.05193">
        <ele>266.79998779297</ele>
        <time>2013-10-05T12:35:44Z</time>
      </trkpt>
      <trkpt lat="43.42905" lon="6.05178">
        <ele>266.79998779297</ele>
        <time>2013-10-05T12:35:48Z</time>
      </trkpt>
      <trkpt lat="43.42907" lon="6.05165">
        <ele>266.79998779297</ele>
        <time>2013-10-05T12:35:51Z</time>
      </trkpt>
      <trkpt lat="43.4291" lon="6.05138">
        <ele>266</ele>
        <time>2013-10-05T12:35:56Z</time>
      </trkpt>
      <trkpt lat="43.42913" lon="6.0512">
        <ele>264.79998779297</ele>
        <time>2013-10-05T12:35:59Z</time>
      </trkpt>
      <trkpt lat="43.42914" lon="6.05105">
        <ele>264.79998779297</ele>
        <time>2013-10-05T12:36:02Z</time>
      </trkpt>
      <trkpt lat="43.42918" lon="6.05066">
        <ele>264.79998779297</ele>
        <time>2013-10-05T12:36:10Z</time>
      </trkpt>
      <trkpt lat="43.42919" lon="6.05057">
        <ele>264.79998779297</ele>
        <time>2013-10-05T12:36:12Z</time>
      </trkpt>
      <trkpt lat="43.42922" lon="6.05036">
        <ele>264</ele>
        <time>2013-10-05T12:36:17Z</time>
      </trkpt>
      <trkpt lat="43.42924" lon="6.05003">
        <ele>262.60000610352</ele>
        <time>2013-10-05T12:36:24Z</time>
      </trkpt>
      <trkpt lat="43.42927" lon="6.04985">
        <ele>262.60000610352</ele>
        <time>2013-10-05T12:36:28Z</time>
      </trkpt>
      <trkpt lat="43.42931" lon="6.04949">
        <ele>262.20001220703</ele>
        <time>2013-10-05T12:36:36Z</time>
      </trkpt>
      <trkpt lat="43.42931" lon="6.0494">
        <ele>261.39999389648</ele>
        <time>2013-10-05T12:36:38Z</time>
      </trkpt>
      <trkpt lat="43.42931" lon="6.04927">
        <ele>260.60000610352</ele>
        <time>2013-10-05T12:36:41Z</time>
      </trkpt>
      <trkpt lat="43.4292" lon="6.04917">
        <ele>260.60000610352</ele>
        <time>2013-10-05T12:36:45Z</time>
      </trkpt>
      <trkpt lat="43.42912" lon="6.04918">
        <ele>259.79998779297</ele>
        <time>2013-10-05T12:36:47Z</time>
      </trkpt>
      <trkpt lat="43.42902" lon="6.04921">
        <ele>258.39999389648</ele>
        <time>2013-10-05T12:36:50Z</time>
      </trkpt>
      <trkpt lat="43.42889" lon="6.04923">
        <ele>258.39999389648</ele>
        <time>2013-10-05T12:36:54Z</time>
      </trkpt>
      <trkpt lat="43.42883" lon="6.04921">
        <ele>258.39999389648</ele>
        <time>2013-10-05T12:36:56Z</time>
      </trkpt>
      <trkpt lat="43.4288" lon="6.04917">
        <ele>258.39999389648</ele>
        <time>2013-10-05T12:36:57Z</time>
      </trkpt>
      <trkpt lat="43.42873" lon="6.04901">
        <ele>258.39999389648</ele>
        <time>2013-10-05T12:37:01Z</time>
      </trkpt>
      <trkpt lat="43.42863" lon="6.04884">
        <ele>258.39999389648</ele>
        <time>2013-10-05T12:37:06Z</time>
      </trkpt>
      <trkpt lat="43.42856" lon="6.04871">
        <ele>258.39999389648</ele>
        <time>2013-10-05T12:37:09Z</time>
      </trkpt>
      <trkpt lat="43.42849" lon="6.04863">
        <ele>258.39999389648</ele>
        <time>2013-10-05T12:37:11Z</time>
      </trkpt>
      <trkpt lat="43.42841" lon="6.04857">
        <ele>258.39999389648</ele>
        <time>2013-10-05T12:37:13Z</time>
      </trkpt>
      <trkpt lat="43.4283" lon="6.04854">
        <ele>258.39999389648</ele>
        <time>2013-10-05T12:37:15Z</time>
      </trkpt>
      <trkpt lat="43.42824" lon="6.04855">
        <ele>258</ele>
        <time>2013-10-05T12:37:16Z</time>
      </trkpt>
      <trkpt lat="43.42818" lon="6.04856">
        <ele>257.60000610352</ele>
        <time>2013-10-05T12:37:17Z</time>
      </trkpt>
      <trkpt lat="43.42813" lon="6.04855">
        <ele>257.20001220703</ele>
        <time>2013-10-05T12:37:18Z</time>
      </trkpt>
      <trkpt lat="43.42808" lon="6.0485">
        <ele>256.39999389648</ele>
        <time>2013-10-05T12:37:19Z</time>
      </trkpt>
      <trkpt lat="43.42803" lon="6.04844">
        <ele>255.80000305176</ele>
        <time>2013-10-05T12:37:20Z</time>
      </trkpt>
      <trkpt lat="43.42799" lon="6.04839">
        <ele>255.19999694824</ele>
        <time>2013-10-05T12:37:21Z</time>
      </trkpt>
      <trkpt lat="43.42793" lon="6.04835">
        <ele>254.60000610352</ele>
        <time>2013-10-05T12:37:22Z</time>
      </trkpt>
      <trkpt lat="43.42788" lon="6.04833">
        <ele>254</ele>
        <time>2013-10-05T12:37:23Z</time>
      </trkpt>
      <trkpt lat="43.42782" lon="6.0483">
        <ele>254</ele>
        <time>2013-10-05T12:37:24Z</time>
      </trkpt>
      <trkpt lat="43.42777" lon="6.04828">
        <ele>254</ele>
        <time>2013-10-05T12:37:25Z</time>
      </trkpt>
      <trkpt lat="43.42768" lon="6.04821">
        <ele>254</ele>
        <time>2013-10-05T12:37:28Z</time>
      </trkpt>
      <trkpt lat="43.42757" lon="6.04811">
        <ele>254</ele>
        <time>2013-10-05T12:37:33Z</time>
      </trkpt>
      <trkpt lat="43.42753" lon="6.04808">
        <ele>254</ele>
        <time>2013-10-05T12:37:36Z</time>
      </trkpt>
      <trkpt lat="43.42751" lon="6.04809">
        <ele>254</ele>
        <time>2013-10-05T12:37:38Z</time>
      </trkpt>
      <trkpt lat="43.42744" lon="6.04812">
        <ele>254</ele>
        <time>2013-10-05T12:37:41Z</time>
      </trkpt>
      <trkpt lat="43.42741" lon="6.04812">
        <ele>254</ele>
        <time>2013-10-05T12:37:42Z</time>
      </trkpt>
      <trkpt lat="43.4273" lon="6.04813">
        <ele>254</ele>
        <time>2013-10-05T12:37:45Z</time>
      </trkpt>
      <trkpt lat="43.42727" lon="6.04812">
        <ele>254</ele>
        <time>2013-10-05T12:37:46Z</time>
      </trkpt>
      <trkpt lat="43.42721" lon="6.0481">
        <ele>254</ele>
        <time>2013-10-05T12:37:49Z</time>
      </trkpt>
      <trkpt lat="43.42717" lon="6.04809">
        <ele>254</ele>
        <time>2013-10-05T12:37:51Z</time>
      </trkpt>
      <trkpt lat="43.42715" lon="6.04808">
        <ele>254</ele>
        <time>2013-10-05T12:37:53Z</time>
      </trkpt>
      <trkpt lat="43.42712" lon="6.04805">
        <ele>254</ele>
        <time>2013-10-05T12:37:55Z</time>
      </trkpt>
      <trkpt lat="43.42712" lon="6.04803">
        <ele>254</ele>
        <time>2013-10-05T12:37:56Z</time>
      </trkpt>
      <trkpt lat="43.42709" lon="6.0479">
        <ele>254</ele>
        <time>2013-10-05T12:38:03Z</time>
      </trkpt>
      <trkpt lat="43.42706" lon="6.04779">
        <ele>254</ele>
        <time>2013-10-05T12:38:09Z</time>
      </trkpt>
      <trkpt lat="43.42707" lon="6.04777">
        <ele>254</ele>
        <time>2013-10-05T12:38:10Z</time>
      </trkpt>
      <trkpt lat="43.42706" lon="6.04767">
        <ele>255.19999694824</ele>
        <time>2013-10-05T12:38:15Z</time>
      </trkpt>
      <trkpt lat="43.42706" lon="6.04764">
        <ele>256</ele>
        <time>2013-10-05T12:38:17Z</time>
      </trkpt>
      <trkpt lat="43.42707" lon="6.04757">
        <ele>256</ele>
        <time>2013-10-05T12:38:21Z</time>
      </trkpt>
      <trkpt lat="43.42706" lon="6.04749">
        <ele>256</ele>
        <time>2013-10-05T12:38:25Z</time>
      </trkpt>
      <trkpt lat="43.42704" lon="6.04739">
        <ele>256.39999389648</ele>
        <time>2013-10-05T12:38:29Z</time>
      </trkpt>
      <trkpt lat="43.42702" lon="6.04733">
        <ele>257.39999389648</ele>
        <time>2013-10-05T12:38:31Z</time>
      </trkpt>
      <trkpt lat="43.42702" lon="6.04729">
        <ele>258.20001220703</ele>
        <time>2013-10-05T12:38:33Z</time>
      </trkpt>
      <trkpt lat="43.42701" lon="6.04723">
        <ele>258.20001220703</ele>
        <time>2013-10-05T12:38:36Z</time>
      </trkpt>
      <trkpt lat="43.427" lon="6.04715">
        <ele>258.20001220703</ele>
        <time>2013-10-05T12:38:40Z</time>
      </trkpt>
      <trkpt lat="43.42701" lon="6.04713">
        <ele>258.20001220703</ele>
        <time>2013-10-05T12:38:41Z</time>
      </trkpt>
      <trkpt lat="43.42702" lon="6.04705">
        <ele>258.20001220703</ele>
        <time>2013-10-05T12:38:45Z</time>
      </trkpt>
      <trkpt lat="43.42703" lon="6.04698">
        <ele>259.39999389648</ele>
        <time>2013-10-05T12:38:49Z</time>
      </trkpt>
      <trkpt lat="43.42704" lon="6.0469">
        <ele>260.20001220703</ele>
        <time>2013-10-05T12:38:53Z</time>
      </trkpt>
      <trkpt lat="43.42701" lon="6.04669">
        <ele>260.20001220703</ele>
        <time>2013-10-05T12:39:05Z</time>
      </trkpt>
      <trkpt lat="43.427" lon="6.04644">
        <ele>262.39999389648</ele>
        <time>2013-10-05T12:39:18Z</time>
      </trkpt>
      <trkpt lat="43.42699" lon="6.04637">
        <ele>262.39999389648</ele>
        <time>2013-10-05T12:39:21Z</time>
      </trkpt>
      <trkpt lat="43.42701" lon="6.04628">
        <ele>262.39999389648</ele>
        <time>2013-10-05T12:39:25Z</time>
      </trkpt>
      <trkpt lat="43.42699" lon="6.04604">
        <ele>262.79998779297</ele>
        <time>2013-10-05T12:39:36Z</time>
      </trkpt>
      <trkpt lat="43.42698" lon="6.04588">
        <ele>264.39999389648</ele>
        <time>2013-10-05T12:39:42Z</time>
      </trkpt>
      <trkpt lat="43.42696" lon="6.04574">
        <ele>264.39999389648</ele>
        <time>2013-10-05T12:39:48Z</time>
      </trkpt>
      <trkpt lat="43.42692" lon="6.04557">
        <ele>264.39999389648</ele>
        <time>2013-10-05T12:39:55Z</time>
      </trkpt>
      <trkpt lat="43.42689" lon="6.04549">
        <ele>264.79998779297</ele>
        <time>2013-10-05T12:39:59Z</time>
      </trkpt>
      <trkpt lat="43.42689" lon="6.04548">
        <ele>265.20001220703</ele>
        <time>2013-10-05T12:40:00Z</time>
      </trkpt>
      <trkpt lat="43.42683" lon="6.04534">
        <ele>266.60000610352</ele>
        <time>2013-10-05T12:40:06Z</time>
      </trkpt>
      <trkpt lat="43.42678" lon="6.04525">
        <ele>266.60000610352</ele>
        <time>2013-10-05T12:40:10Z</time>
      </trkpt>
      <trkpt lat="43.42677" lon="6.04522">
        <ele>267</ele>
        <time>2013-10-05T12:40:11Z</time>
      </trkpt>
      <trkpt lat="43.42676" lon="6.0452">
        <ele>267.39999389648</ele>
        <time>2013-10-05T12:40:12Z</time>
      </trkpt>
      <trkpt lat="43.42675" lon="6.04514">
        <ele>268.20001220703</ele>
        <time>2013-10-05T12:40:14Z</time>
      </trkpt>
      <trkpt lat="43.42672" lon="6.04507">
        <ele>268.60000610352</ele>
        <time>2013-10-05T12:40:17Z</time>
      </trkpt>
      <trkpt lat="43.4267" lon="6.04496">
        <ele>269.20001220703</ele>
        <time>2013-10-05T12:40:22Z</time>
      </trkpt>
      <trkpt lat="43.4267" lon="6.04494">
        <ele>269.60000610352</ele>
        <time>2013-10-05T12:40:23Z</time>
      </trkpt>
      <trkpt lat="43.42667" lon="6.04473">
        <ele>270.79998779297</ele>
        <time>2013-10-05T12:40:33Z</time>
      </trkpt>
      <trkpt lat="43.42667" lon="6.04462">
        <ele>272.20001220703</ele>
        <time>2013-10-05T12:40:39Z</time>
      </trkpt>
      <trkpt lat="43.42666" lon="6.04459">
        <ele>273</ele>
        <time>2013-10-05T12:40:41Z</time>
      </trkpt>
      <trkpt lat="43.42664" lon="6.04451">
        <ele>273</ele>
        <time>2013-10-05T12:40:46Z</time>
      </trkpt>
      <trkpt lat="43.42664" lon="6.04449">
        <ele>273</ele>
        <time>2013-10-05T12:40:47Z</time>
      </trkpt>
      <trkpt lat="43.42663" lon="6.04441">
        <ele>273</ele>
        <time>2013-10-05T12:40:52Z</time>
      </trkpt>
      <trkpt lat="43.42662" lon="6.04441">
        <ele>273.39999389648</ele>
        <time>2013-10-05T12:40:54Z</time>
      </trkpt>
      <trkpt lat="43.42662" lon="6.04441">
        <ele>273.79998779297</ele>
        <time>2013-10-05T12:40:55Z</time>
      </trkpt>
      <trkpt lat="43.42662" lon="6.04441">
        <ele>274.60000610352</ele>
        <time>2013-10-05T12:40:57Z</time>
      </trkpt>
      <trkpt lat="43.42662" lon="6.0444">
        <ele>275</ele>
        <time>2013-10-05T12:41:01Z</time>
      </trkpt>
      <trkpt lat="43.42661" lon="6.04435">
        <ele>275</ele>
        <time>2013-10-05T12:41:06Z</time>
      </trkpt>
      <trkpt lat="43.42662" lon="6.04428">
        <ele>275</ele>
        <time>2013-10-05T12:41:11Z</time>
      </trkpt>
      <trkpt lat="43.42663" lon="6.04424">
        <ele>275</ele>
        <time>2013-10-05T12:41:13Z</time>
      </trkpt>
      <trkpt lat="43.42661" lon="6.04416">
        <ele>275</ele>
        <time>2013-10-05T12:41:17Z</time>
      </trkpt>
      <trkpt lat="43.42663" lon="6.04405">
        <ele>275</ele>
        <time>2013-10-05T12:41:22Z</time>
      </trkpt>
      <trkpt lat="43.42662" lon="6.04376">
        <ele>277</ele>
        <time>2013-10-05T12:41:37Z</time>
      </trkpt>
      <trkpt lat="43.42657" lon="6.04368">
        <ele>277.79998779297</ele>
        <time>2013-10-05T12:41:43Z</time>
      </trkpt>
      <trkpt lat="43.42655" lon="6.04362">
        <ele>279</ele>
        <time>2013-10-05T12:41:47Z</time>
      </trkpt>
      <trkpt lat="43.42654" lon="6.04352">
        <ele>279</ele>
        <time>2013-10-05T12:41:54Z</time>
      </trkpt>
      <trkpt lat="43.42653" lon="6.04344">
        <ele>279</ele>
        <time>2013-10-05T12:41:59Z</time>
      </trkpt>
      <trkpt lat="43.42653" lon="6.04333">
        <ele>279</ele>
        <time>2013-10-05T12:42:06Z</time>
      </trkpt>
      <trkpt lat="43.42654" lon="6.04328">
        <ele>280</ele>
        <time>2013-10-05T12:42:08Z</time>
      </trkpt>
      <trkpt lat="43.42656" lon="6.04323">
        <ele>281.20001220703</ele>
        <time>2013-10-05T12:42:11Z</time>
      </trkpt>
      <trkpt lat="43.42659" lon="6.04313">
        <ele>281.20001220703</ele>
        <time>2013-10-05T12:42:17Z</time>
      </trkpt>
      <trkpt lat="43.42658" lon="6.04309">
        <ele>281.20001220703</ele>
        <time>2013-10-05T12:42:19Z</time>
      </trkpt>
      <trkpt lat="43.42657" lon="6.04304">
        <ele>281.20001220703</ele>
        <time>2013-10-05T12:42:22Z</time>
      </trkpt>
      <trkpt lat="43.42653" lon="6.04298">
        <ele>281.20001220703</ele>
        <time>2013-10-05T12:42:26Z</time>
      </trkpt>
      <trkpt lat="43.42651" lon="6.04295">
        <ele>281.20001220703</ele>
        <time>2013-10-05T12:42:28Z</time>
      </trkpt>
      <trkpt lat="43.4265" lon="6.04292">
        <ele>281.20001220703</ele>
        <time>2013-10-05T12:42:30Z</time>
      </trkpt>
      <trkpt lat="43.42649" lon="6.04288">
        <ele>281.20001220703</ele>
        <time>2013-10-05T12:42:33Z</time>
      </trkpt>
      <trkpt lat="43.42649" lon="6.04289">
        <ele>281.60000610352</ele>
        <time>2013-10-05T12:42:34Z</time>
      </trkpt>
      <trkpt lat="43.42649" lon="6.04289">
        <ele>283.20001220703</ele>
        <time>2013-10-05T12:42:48Z</time>
      </trkpt>
      <trkpt lat="43.42649" lon="6.04289">
        <ele>283.20001220703</ele>
        <time>2013-10-05T12:42:50Z</time>
      </trkpt>
      <trkpt lat="43.42649" lon="6.04289">
        <ele>283.20001220703</ele>
        <time>2013-10-05T12:43:06Z</time>
      </trkpt>
      <trkpt lat="43.42649" lon="6.04288">
        <ele>283.20001220703</ele>
        <time>2013-10-05T12:44:12Z</time>
      </trkpt>
      <trkpt lat="43.42649" lon="6.04288">
        <ele>283.20001220703</ele>
        <time>2013-10-05T12:44:34Z</time>
      </trkpt>
      <trkpt lat="43.42649" lon="6.04287">
        <ele>283.20001220703</ele>
        <time>2013-10-05T12:44:36Z</time>
      </trkpt>
      <trkpt lat="43.42649" lon="6.04281">
        <ele>283.20001220703</ele>
        <time>2013-10-05T12:44:39Z</time>
      </trkpt>
      <trkpt lat="43.42646" lon="6.04264">
        <ele>283.20001220703</ele>
        <time>2013-10-05T12:44:46Z</time>
      </trkpt>
      <trkpt lat="43.42644" lon="6.04257">
        <ele>283.20001220703</ele>
        <time>2013-10-05T12:44:49Z</time>
      </trkpt>
      <trkpt lat="43.42641" lon="6.04229">
        <ele>284.39999389648</ele>
        <time>2013-10-05T12:44:59Z</time>
      </trkpt>
      <trkpt lat="43.42636" lon="6.04209">
        <ele>285.39999389648</ele>
        <time>2013-10-05T12:45:07Z</time>
      </trkpt>
      <trkpt lat="43.42637" lon="6.0419">
        <ele>285.39999389648</ele>
        <time>2013-10-05T12:45:14Z</time>
      </trkpt>
      <trkpt lat="43.42649" lon="6.04173">
        <ele>287.39999389648</ele>
        <time>2013-10-05T12:45:23Z</time>
      </trkpt>
      <trkpt lat="43.42656" lon="6.04155">
        <ele>287.39999389648</ele>
        <time>2013-10-05T12:45:31Z</time>
      </trkpt>
      <trkpt lat="43.42665" lon="6.04128">
        <ele>289.39999389648</ele>
        <time>2013-10-05T12:45:43Z</time>
      </trkpt>
      <trkpt lat="43.42667" lon="6.04127">
        <ele>289.39999389648</ele>
        <time>2013-10-05T12:45:44Z</time>
      </trkpt>
      <trkpt lat="43.42687" lon="6.04116">
        <ele>289.79998779297</ele>
        <time>2013-10-05T12:45:57Z</time>
      </trkpt>
      <trkpt lat="43.42688" lon="6.04115">
        <ele>290.20001220703</ele>
        <time>2013-10-05T12:45:58Z</time>
      </trkpt>
      <trkpt lat="43.42692" lon="6.04112">
        <ele>291.60000610352</ele>
        <time>2013-10-05T12:46:01Z</time>
      </trkpt>
      <trkpt lat="43.42693" lon="6.04108">
        <ele>291.60000610352</ele>
        <time>2013-10-05T12:46:03Z</time>
      </trkpt>
      <trkpt lat="43.42694" lon="6.04106">
        <ele>291.60000610352</ele>
        <time>2013-10-05T12:46:04Z</time>
      </trkpt>
      <trkpt lat="43.42695" lon="6.04096">
        <ele>291.60000610352</ele>
        <time>2013-10-05T12:46:08Z</time>
      </trkpt>
      <trkpt lat="43.42693" lon="6.04076">
        <ele>291.60000610352</ele>
        <time>2013-10-05T12:46:14Z</time>
      </trkpt>
      <trkpt lat="43.42693" lon="6.04065">
        <ele>291.60000610352</ele>
        <time>2013-10-05T12:46:19Z</time>
      </trkpt>
      <trkpt lat="43.42693" lon="6.04062">
        <ele>291.60000610352</ele>
        <time>2013-10-05T12:46:20Z</time>
      </trkpt>
      <trkpt lat="43.42702" lon="6.04034">
        <ele>291.60000610352</ele>
        <time>2013-10-05T12:46:33Z</time>
      </trkpt>
      <trkpt lat="43.42703" lon="6.04033">
        <ele>291.60000610352</ele>
        <time>2013-10-05T12:46:34Z</time>
      </trkpt>
      <trkpt lat="43.42708" lon="6.04026">
        <ele>291.60000610352</ele>
        <time>2013-10-05T12:46:39Z</time>
      </trkpt>
      <trkpt lat="43.42714" lon="6.04016">
        <ele>292</ele>
        <time>2013-10-05T12:46:46Z</time>
      </trkpt>
      <trkpt lat="43.42717" lon="6.04012">
        <ele>293.20001220703</ele>
        <time>2013-10-05T12:46:49Z</time>
      </trkpt>
      <trkpt lat="43.42722" lon="6.03987">
        <ele>293.60000610352</ele>
        <time>2013-10-05T12:47:02Z</time>
      </trkpt>
      <trkpt lat="43.42725" lon="6.03975">
        <ele>293.60000610352</ele>
        <time>2013-10-05T12:47:08Z</time>
      </trkpt>
      <trkpt lat="43.42728" lon="6.03963">
        <ele>293.60000610352</ele>
        <time>2013-10-05T12:47:14Z</time>
      </trkpt>
      <trkpt lat="43.42725" lon="6.03952">
        <ele>293.60000610352</ele>
        <time>2013-10-05T12:47:20Z</time>
      </trkpt>
      <trkpt lat="43.42709" lon="6.03954">
        <ele>294.39999389648</ele>
        <time>2013-10-05T12:47:30Z</time>
      </trkpt>
      <trkpt lat="43.42704" lon="6.03951">
        <ele>295.60000610352</ele>
        <time>2013-10-05T12:47:33Z</time>
      </trkpt>
      <trkpt lat="43.42693" lon="6.03938">
        <ele>295.60000610352</ele>
        <time>2013-10-05T12:47:43Z</time>
      </trkpt>
      <trkpt lat="43.42692" lon="6.03934">
        <ele>295.60000610352</ele>
        <time>2013-10-05T12:47:46Z</time>
      </trkpt>
      <trkpt lat="43.42692" lon="6.03925">
        <ele>296.39999389648</ele>
        <time>2013-10-05T12:47:51Z</time>
      </trkpt>
      <trkpt lat="43.42693" lon="6.03916">
        <ele>297.79998779297</ele>
        <time>2013-10-05T12:47:55Z</time>
      </trkpt>
      <trkpt lat="43.42692" lon="6.03913">
        <ele>297.79998779297</ele>
        <time>2013-10-05T12:47:57Z</time>
      </trkpt>
      <trkpt lat="43.42691" lon="6.03909">
        <ele>297.79998779297</ele>
        <time>2013-10-05T12:47:59Z</time>
      </trkpt>
      <trkpt lat="43.42686" lon="6.03902">
        <ele>297.79998779297</ele>
        <time>2013-10-05T12:48:04Z</time>
      </trkpt>
      <trkpt lat="43.42686" lon="6.039">
        <ele>298.20001220703</ele>
        <time>2013-10-05T12:48:05Z</time>
      </trkpt>
      <trkpt lat="43.42687" lon="6.03895">
        <ele>299.39999389648</ele>
        <time>2013-10-05T12:48:08Z</time>
      </trkpt>
      <trkpt lat="43.42688" lon="6.03888">
        <ele>300</ele>
        <time>2013-10-05T12:48:13Z</time>
      </trkpt>
      <trkpt lat="43.42688" lon="6.03887">
        <ele>300</ele>
        <time>2013-10-05T12:48:15Z</time>
      </trkpt>
      <trkpt lat="43.42688" lon="6.03887">
        <ele>300</ele>
        <time>2013-10-05T12:48:19Z</time>
      </trkpt>
      <trkpt lat="43.42688" lon="6.03887">
        <ele>300</ele>
        <time>2013-10-05T12:48:31Z</time>
      </trkpt>
      <trkpt lat="43.42688" lon="6.03887">
        <ele>300</ele>
        <time>2013-10-05T12:48:46Z</time>
      </trkpt>
      <trkpt lat="43.42688" lon="6.03886">
        <ele>300</ele>
        <time>2013-10-05T12:48:50Z</time>
      </trkpt>
      <trkpt lat="43.42689" lon="6.03886">
        <ele>300</ele>
        <time>2013-10-05T12:48:51Z</time>
      </trkpt>
      <trkpt lat="43.42686" lon="6.03878">
        <ele>300</ele>
        <time>2013-10-05T12:48:55Z</time>
      </trkpt>
      <trkpt lat="43.42687" lon="6.03876">
        <ele>300</ele>
        <time>2013-10-05T12:48:56Z</time>
      </trkpt>
      <trkpt lat="43.42687" lon="6.03869">
        <ele>300</ele>
        <time>2013-10-05T12:48:59Z</time>
      </trkpt>
      <trkpt lat="43.42686" lon="6.03867">
        <ele>300.39999389648</ele>
        <time>2013-10-05T12:49:00Z</time>
      </trkpt>
      <trkpt lat="43.42686" lon="6.0386">
        <ele>301.60000610352</ele>
        <time>2013-10-05T12:49:03Z</time>
      </trkpt>
      <trkpt lat="43.42686" lon="6.03853">
        <ele>302</ele>
        <time>2013-10-05T12:49:06Z</time>
      </trkpt>
      <trkpt lat="43.42685" lon="6.03848">
        <ele>302</ele>
        <time>2013-10-05T12:49:08Z</time>
      </trkpt>
      <trkpt lat="43.42685" lon="6.03839">
        <ele>302.79998779297</ele>
        <time>2013-10-05T12:49:12Z</time>
      </trkpt>
      <trkpt lat="43.42684" lon="6.03837">
        <ele>303.20001220703</ele>
        <time>2013-10-05T12:49:13Z</time>
      </trkpt>
      <trkpt lat="43.42684" lon="6.03833">
        <ele>304.20001220703</ele>
        <time>2013-10-05T12:49:15Z</time>
      </trkpt>
      <trkpt lat="43.42683" lon="6.03827">
        <ele>304.20001220703</ele>
        <time>2013-10-05T12:49:18Z</time>
      </trkpt>
      <trkpt lat="43.42683" lon="6.03821">
        <ele>304.60000610352</ele>
        <time>2013-10-05T12:49:21Z</time>
      </trkpt>
      <trkpt lat="43.42682" lon="6.0382">
        <ele>305</ele>
        <time>2013-10-05T12:49:22Z</time>
      </trkpt>
      <trkpt lat="43.42682" lon="6.03818">
        <ele>305.39999389648</ele>
        <time>2013-10-05T12:49:23Z</time>
      </trkpt>
      <trkpt lat="43.42681" lon="6.03817">
        <ele>305.79998779297</ele>
        <time>2013-10-05T12:49:24Z</time>
      </trkpt>
      <trkpt lat="43.42679" lon="6.03816">
        <ele>306.39999389648</ele>
        <time>2013-10-05T12:49:26Z</time>
      </trkpt>
      <trkpt lat="43.42677" lon="6.03815">
        <ele>306.39999389648</ele>
        <time>2013-10-05T12:49:30Z</time>
      </trkpt>
      <trkpt lat="43.42677" lon="6.03815">
        <ele>306.39999389648</ele>
        <time>2013-10-05T12:49:35Z</time>
      </trkpt>
      <trkpt lat="43.42677" lon="6.03814">
        <ele>306.39999389648</ele>
        <time>2013-10-05T12:49:39Z</time>
      </trkpt>
      <trkpt lat="43.42677" lon="6.03813">
        <ele>308.39999389648</ele>
        <time>2013-10-05T12:49:45Z</time>
      </trkpt>
      <trkpt lat="43.42675" lon="6.03811">
        <ele>308.39999389648</ele>
        <time>2013-10-05T12:49:49Z</time>
      </trkpt>
      <trkpt lat="43.42675" lon="6.03811">
        <ele>308.39999389648</ele>
        <time>2013-10-05T12:49:51Z</time>
      </trkpt>
      <trkpt lat="43.42675" lon="6.0381">
        <ele>308.39999389648</ele>
        <time>2013-10-05T12:49:54Z</time>
      </trkpt>
      <trkpt lat="43.42675" lon="6.0381">
        <ele>308.39999389648</ele>
        <time>2013-10-05T12:49:58Z</time>
      </trkpt>
      <trkpt lat="43.42674" lon="6.03809">
        <ele>308.39999389648</ele>
        <time>2013-10-05T12:50:06Z</time>
      </trkpt>
      <trkpt lat="43.42674" lon="6.03809">
        <ele>308.39999389648</ele>
        <time>2013-10-05T12:50:09Z</time>
      </trkpt>
      <trkpt lat="43.42674" lon="6.03808">
        <ele>308.39999389648</ele>
        <time>2013-10-05T12:50:12Z</time>
      </trkpt>
      <trkpt lat="43.42674" lon="6.03807">
        <ele>308.39999389648</ele>
        <time>2013-10-05T12:50:19Z</time>
      </trkpt>
      <trkpt lat="43.42676" lon="6.03798">
        <ele>310.39999389648</ele>
        <time>2013-10-05T12:50:27Z</time>
      </trkpt>
      <trkpt lat="43.42678" lon="6.03793">
        <ele>310.39999389648</ele>
        <time>2013-10-05T12:50:33Z</time>
      </trkpt>
      <trkpt lat="43.42678" lon="6.03788">
        <ele>310.39999389648</ele>
        <time>2013-10-05T12:50:39Z</time>
      </trkpt>
      <trkpt lat="43.42678" lon="6.03786">
        <ele>311.20001220703</ele>
        <time>2013-10-05T12:50:41Z</time>
      </trkpt>
      <trkpt lat="43.42678" lon="6.03783">
        <ele>312.39999389648</ele>
        <time>2013-10-05T12:50:44Z</time>
      </trkpt>
      <trkpt lat="43.42678" lon="6.03781">
        <ele>312.39999389648</ele>
        <time>2013-10-05T12:50:49Z</time>
      </trkpt>
      <trkpt lat="43.42678" lon="6.03781">
        <ele>312.39999389648</ele>
        <time>2013-10-05T12:50:50Z</time>
      </trkpt>
      <trkpt lat="43.42677" lon="6.03778">
        <ele>312.39999389648</ele>
        <time>2013-10-05T12:50:56Z</time>
      </trkpt>
      <trkpt lat="43.42677" lon="6.03773">
        <ele>312.39999389648</ele>
        <time>2013-10-05T12:51:02Z</time>
      </trkpt>
      <trkpt lat="43.42677" lon="6.03772">
        <ele>313.20001220703</ele>
        <time>2013-10-05T12:51:04Z</time>
      </trkpt>
      <trkpt lat="43.42677" lon="6.0377">
        <ele>314.60000610352</ele>
        <time>2013-10-05T12:51:07Z</time>
      </trkpt>
      <trkpt lat="43.42677" lon="6.03769">
        <ele>314.60000610352</ele>
        <time>2013-10-05T12:51:11Z</time>
      </trkpt>
      <trkpt lat="43.42677" lon="6.03769">
        <ele>314.60000610352</ele>
        <time>2013-10-05T12:51:18Z</time>
      </trkpt>
      <trkpt lat="43.42677" lon="6.03768">
        <ele>314.60000610352</ele>
        <time>2013-10-05T12:51:26Z</time>
      </trkpt>
      <trkpt lat="43.42678" lon="6.03764">
        <ele>314.60000610352</ele>
        <time>2013-10-05T12:51:30Z</time>
      </trkpt>
      <trkpt lat="43.42678" lon="6.03762">
        <ele>314.60000610352</ele>
        <time>2013-10-05T12:51:35Z</time>
      </trkpt>
      <trkpt lat="43.42679" lon="6.03758">
        <ele>314.60000610352</ele>
        <time>2013-10-05T12:51:41Z</time>
      </trkpt>
      <trkpt lat="43.42679" lon="6.03758">
        <ele>314.60000610352</ele>
        <time>2013-10-05T12:51:45Z</time>
      </trkpt>
      <trkpt lat="43.42679" lon="6.03758">
        <ele>314.60000610352</ele>
        <time>2013-10-05T12:51:52Z</time>
      </trkpt>
      <trkpt lat="43.4268" lon="6.03755">
        <ele>315.39999389648</ele>
        <time>2013-10-05T12:51:56Z</time>
      </trkpt>
      <trkpt lat="43.4268" lon="6.03753">
        <ele>316.60000610352</ele>
        <time>2013-10-05T12:51:58Z</time>
      </trkpt>
      <trkpt lat="43.4268" lon="6.0375">
        <ele>316.60000610352</ele>
        <time>2013-10-05T12:52:03Z</time>
      </trkpt>
      <trkpt lat="43.4268" lon="6.0375">
        <ele>316.60000610352</ele>
        <time>2013-10-05T12:52:09Z</time>
      </trkpt>
      <trkpt lat="43.4268" lon="6.03746">
        <ele>316.60000610352</ele>
        <time>2013-10-05T12:52:11Z</time>
      </trkpt>
      <trkpt lat="43.4268" lon="6.0374">
        <ele>316.60000610352</ele>
        <time>2013-10-05T12:52:14Z</time>
      </trkpt>
      <trkpt lat="43.42681" lon="6.03733">
        <ele>316.60000610352</ele>
        <time>2013-10-05T12:52:17Z</time>
      </trkpt>
      <trkpt lat="43.4268" lon="6.03728">
        <ele>317.39999389648</ele>
        <time>2013-10-05T12:52:19Z</time>
      </trkpt>
      <trkpt lat="43.4268" lon="6.03726">
        <ele>317.79998779297</ele>
        <time>2013-10-05T12:52:20Z</time>
      </trkpt>
      <trkpt lat="43.4268" lon="6.03721">
        <ele>318.60000610352</ele>
        <time>2013-10-05T12:52:22Z</time>
      </trkpt>
      <trkpt lat="43.4268" lon="6.03715">
        <ele>318.60000610352</ele>
        <time>2013-10-05T12:52:24Z</time>
      </trkpt>
      <trkpt lat="43.4268" lon="6.03711">
        <ele>318.60000610352</ele>
        <time>2013-10-05T12:52:26Z</time>
      </trkpt>
      <trkpt lat="43.42681" lon="6.03704">
        <ele>319.60000610352</ele>
        <time>2013-10-05T12:52:29Z</time>
      </trkpt>
      <trkpt lat="43.42682" lon="6.03694">
        <ele>321</ele>
        <time>2013-10-05T12:52:35Z</time>
      </trkpt>
      <trkpt lat="43.42682" lon="6.03672">
        <ele>323</ele>
        <time>2013-10-05T12:52:50Z</time>
      </trkpt>
      <trkpt lat="43.42682" lon="6.03659">
        <ele>323</ele>
        <time>2013-10-05T12:52:59Z</time>
      </trkpt>
      <trkpt lat="43.42683" lon="6.03653">
        <ele>323</ele>
        <time>2013-10-05T12:53:06Z</time>
      </trkpt>
      <trkpt lat="43.42683" lon="6.03653">
        <ele>323</ele>
        <time>2013-10-05T12:53:26Z</time>
      </trkpt>
      <trkpt lat="43.42683" lon="6.03653">
        <ele>323</ele>
        <time>2013-10-05T12:53:41Z</time>
      </trkpt>
      <trkpt lat="43.42683" lon="6.03653">
        <ele>323</ele>
        <time>2013-10-05T12:53:48Z</time>
      </trkpt>
      <trkpt lat="43.42683" lon="6.03653">
        <ele>323</ele>
        <time>2013-10-05T12:53:58Z</time>
      </trkpt>
      <trkpt lat="43.42683" lon="6.03653">
        <ele>323</ele>
        <time>2013-10-05T12:53:59Z</time>
      </trkpt>
      <trkpt lat="43.42684" lon="6.03648">
        <ele>323</ele>
        <time>2013-10-05T12:54:02Z</time>
      </trkpt>
      <trkpt lat="43.42683" lon="6.03645">
        <ele>323</ele>
        <time>2013-10-05T12:54:04Z</time>
      </trkpt>
      <trkpt lat="43.42681" lon="6.03631">
        <ele>323</ele>
        <time>2013-10-05T12:54:10Z</time>
      </trkpt>
      <trkpt lat="43.42675" lon="6.0362">
        <ele>323</ele>
        <time>2013-10-05T12:54:16Z</time>
      </trkpt>
      <trkpt lat="43.42675" lon="6.03619">
        <ele>323</ele>
        <time>2013-10-05T12:54:17Z</time>
      </trkpt>
      <trkpt lat="43.42664" lon="6.03602">
        <ele>323</ele>
        <time>2013-10-05T12:54:25Z</time>
      </trkpt>
      <trkpt lat="43.42663" lon="6.03597">
        <ele>323</ele>
        <time>2013-10-05T12:54:27Z</time>
      </trkpt>
      <trkpt lat="43.42662" lon="6.03586">
        <ele>323</ele>
        <time>2013-10-05T12:54:31Z</time>
      </trkpt>
      <trkpt lat="43.42658" lon="6.03562">
        <ele>323.79998779297</ele>
        <time>2013-10-05T12:54:41Z</time>
      </trkpt>
      <trkpt lat="43.42655" lon="6.03552">
        <ele>325</ele>
        <time>2013-10-05T12:54:45Z</time>
      </trkpt>
      <trkpt lat="43.42655" lon="6.03545">
        <ele>325</ele>
        <time>2013-10-05T12:54:48Z</time>
      </trkpt>
      <trkpt lat="43.42651" lon="6.03528">
        <ele>325</ele>
        <time>2013-10-05T12:54:54Z</time>
      </trkpt>
      <trkpt lat="43.42647" lon="6.03511">
        <ele>325</ele>
        <time>2013-10-05T12:55:00Z</time>
      </trkpt>
      <trkpt lat="43.42642" lon="6.03492">
        <ele>325</ele>
        <time>2013-10-05T12:55:06Z</time>
      </trkpt>
      <trkpt lat="43.42633" lon="6.03476">
        <ele>325</ele>
        <time>2013-10-05T12:55:11Z</time>
      </trkpt>
      <trkpt lat="43.42621" lon="6.03465">
        <ele>325</ele>
        <time>2013-10-05T12:55:15Z</time>
      </trkpt>
      <trkpt lat="43.42616" lon="6.03463">
        <ele>324.60000610352</ele>
        <time>2013-10-05T12:55:16Z</time>
      </trkpt>
      <trkpt lat="43.42612" lon="6.0346">
        <ele>324.20001220703</ele>
        <time>2013-10-05T12:55:17Z</time>
      </trkpt>
      <trkpt lat="43.42606" lon="6.03455">
        <ele>323.79998779297</ele>
        <time>2013-10-05T12:55:18Z</time>
      </trkpt>
      <trkpt lat="43.42597" lon="6.03447">
        <ele>322.60000610352</ele>
        <time>2013-10-05T12:55:20Z</time>
      </trkpt>
      <trkpt lat="43.42593" lon="6.03443">
        <ele>321.79998779297</ele>
        <time>2013-10-05T12:55:21Z</time>
      </trkpt>
      <trkpt lat="43.42589" lon="6.03439">
        <ele>321.20001220703</ele>
        <time>2013-10-05T12:55:22Z</time>
      </trkpt>
      <trkpt lat="43.42585" lon="6.03435">
        <ele>320.60000610352</ele>
        <time>2013-10-05T12:55:23Z</time>
      </trkpt>
      <trkpt lat="43.42582" lon="6.03431">
        <ele>320.20001220703</ele>
        <time>2013-10-05T12:55:24Z</time>
      </trkpt>
      <trkpt lat="43.4258" lon="6.03426">
        <ele>319.79998779297</ele>
        <time>2013-10-05T12:55:25Z</time>
      </trkpt>
      <trkpt lat="43.42578" lon="6.03421">
        <ele>319.39999389648</ele>
        <time>2013-10-05T12:55:26Z</time>
      </trkpt>
      <trkpt lat="43.42576" lon="6.03416">
        <ele>319</ele>
        <time>2013-10-05T12:55:27Z</time>
      </trkpt>
      <trkpt lat="43.42565" lon="6.03401">
        <ele>318.60000610352</ele>
        <time>2013-10-05T12:55:32Z</time>
      </trkpt>
      <trkpt lat="43.42554" lon="6.03395">
        <ele>318.60000610352</ele>
        <time>2013-10-05T12:55:38Z</time>
      </trkpt>
      <trkpt lat="43.42549" lon="6.03392">
        <ele>318.60000610352</ele>
        <time>2013-10-05T12:55:40Z</time>
      </trkpt>
      <trkpt lat="43.42546" lon="6.03385">
        <ele>318.60000610352</ele>
        <time>2013-10-05T12:55:42Z</time>
      </trkpt>
      <trkpt lat="43.42548" lon="6.03371">
        <ele>318.60000610352</ele>
        <time>2013-10-05T12:55:45Z</time>
      </trkpt>
      <trkpt lat="43.42546" lon="6.03355">
        <ele>318.60000610352</ele>
        <time>2013-10-05T12:55:48Z</time>
      </trkpt>
      <trkpt lat="43.42544" lon="6.03349">
        <ele>318.60000610352</ele>
        <time>2013-10-05T12:55:49Z</time>
      </trkpt>
      <trkpt lat="43.42542" lon="6.03344">
        <ele>318.60000610352</ele>
        <time>2013-10-05T12:55:50Z</time>
      </trkpt>
      <trkpt lat="43.4254" lon="6.03339">
        <ele>318.20001220703</ele>
        <time>2013-10-05T12:55:51Z</time>
      </trkpt>
      <trkpt lat="43.42539" lon="6.03335">
        <ele>317.79998779297</ele>
        <time>2013-10-05T12:55:52Z</time>
      </trkpt>
      <trkpt lat="43.42539" lon="6.03331">
        <ele>317.20001220703</ele>
        <time>2013-10-05T12:55:53Z</time>
      </trkpt>
      <trkpt lat="43.42539" lon="6.03327">
        <ele>316.79998779297</ele>
        <time>2013-10-05T12:55:54Z</time>
      </trkpt>
      <trkpt lat="43.4254" lon="6.03322">
        <ele>316.39999389648</ele>
        <time>2013-10-05T12:55:55Z</time>
      </trkpt>
      <trkpt lat="43.4254" lon="6.03304">
        <ele>316.39999389648</ele>
        <time>2013-10-05T12:55:58Z</time>
      </trkpt>
      <trkpt lat="43.42538" lon="6.03289">
        <ele>315.79998779297</ele>
        <time>2013-10-05T12:56:00Z</time>
      </trkpt>
      <trkpt lat="43.42537" lon="6.03281">
        <ele>315.39999389648</ele>
        <time>2013-10-05T12:56:01Z</time>
      </trkpt>
      <trkpt lat="43.42533" lon="6.03267">
        <ele>314.60000610352</ele>
        <time>2013-10-05T12:56:03Z</time>
      </trkpt>
      <trkpt lat="43.4253" lon="6.03262">
        <ele>314</ele>
        <time>2013-10-05T12:56:04Z</time>
      </trkpt>
      <trkpt lat="43.42524" lon="6.03257">
        <ele>313.60000610352</ele>
        <time>2013-10-05T12:56:06Z</time>
      </trkpt>
      <trkpt lat="43.42521" lon="6.03256">
        <ele>313.20001220703</ele>
        <time>2013-10-05T12:56:07Z</time>
      </trkpt>
      <trkpt lat="43.42518" lon="6.03256">
        <ele>312.79998779297</ele>
        <time>2013-10-05T12:56:08Z</time>
      </trkpt>
      <trkpt lat="43.42513" lon="6.03255">
        <ele>312</ele>
        <time>2013-10-05T12:56:10Z</time>
      </trkpt>
      <trkpt lat="43.42509" lon="6.03256">
        <ele>312</ele>
        <time>2013-10-05T12:56:12Z</time>
      </trkpt>
      <trkpt lat="43.42503" lon="6.03258">
        <ele>312</ele>
        <time>2013-10-05T12:56:15Z</time>
      </trkpt>
      <trkpt lat="43.42501" lon="6.0326">
        <ele>312</ele>
        <time>2013-10-05T12:56:17Z</time>
      </trkpt>
      <trkpt lat="43.42498" lon="6.03263">
        <ele>312</ele>
        <time>2013-10-05T12:56:19Z</time>
      </trkpt>
      <trkpt lat="43.42493" lon="6.03268">
        <ele>312.39999389648</ele>
        <time>2013-10-05T12:56:23Z</time>
      </trkpt>
      <trkpt lat="43.42492" lon="6.0327">
        <ele>312.79998779297</ele>
        <time>2013-10-05T12:56:24Z</time>
      </trkpt>
      <trkpt lat="43.42485" lon="6.03282">
        <ele>314</ele>
        <time>2013-10-05T12:56:31Z</time>
      </trkpt>
      <trkpt lat="43.4248" lon="6.0329">
        <ele>314.79998779297</ele>
        <time>2013-10-05T12:56:35Z</time>
      </trkpt>
      <trkpt lat="43.42473" lon="6.03299">
        <ele>316.20001220703</ele>
        <time>2013-10-05T12:56:42Z</time>
      </trkpt>
      <trkpt lat="43.42471" lon="6.03301">
        <ele>316.20001220703</ele>
        <time>2013-10-05T12:56:44Z</time>
      </trkpt>
      <trkpt lat="43.42463" lon="6.03309">
        <ele>318.20001220703</ele>
        <time>2013-10-05T12:56:51Z</time>
      </trkpt>
      <trkpt lat="43.42459" lon="6.03311">
        <ele>318.20001220703</ele>
        <time>2013-10-05T12:56:55Z</time>
      </trkpt>
      <trkpt lat="43.42458" lon="6.03311">
        <ele>318.20001220703</ele>
        <time>2013-10-05T12:56:56Z</time>
      </trkpt>
      <trkpt lat="43.42454" lon="6.03312">
        <ele>319.60000610352</ele>
        <time>2013-10-05T12:57:00Z</time>
      </trkpt>
      <trkpt lat="43.42449" lon="6.03313">
        <ele>320.39999389648</ele>
        <time>2013-10-05T12:57:06Z</time>
      </trkpt>
      <trkpt lat="43.42445" lon="6.03313">
        <ele>321.60000610352</ele>
        <time>2013-10-05T12:57:09Z</time>
      </trkpt>
      <trkpt lat="43.42439" lon="6.03314">
        <ele>323</ele>
        <time>2013-10-05T12:57:16Z</time>
      </trkpt>
      <trkpt lat="43.42431" lon="6.03317">
        <ele>324.60000610352</ele>
        <time>2013-10-05T12:57:24Z</time>
      </trkpt>
      <trkpt lat="43.42426" lon="6.0332">
        <ele>325.79998779297</ele>
        <time>2013-10-05T12:57:29Z</time>
      </trkpt>
      <trkpt lat="43.42424" lon="6.0332">
        <ele>326.60000610352</ele>
        <time>2013-10-05T12:57:31Z</time>
      </trkpt>
      <trkpt lat="43.42419" lon="6.03323">
        <ele>326.60000610352</ele>
        <time>2013-10-05T12:57:36Z</time>
      </trkpt>
      <trkpt lat="43.42417" lon="6.03323">
        <ele>326.60000610352</ele>
        <time>2013-10-05T12:57:38Z</time>
      </trkpt>
      <trkpt lat="43.42415" lon="6.03323">
        <ele>327</ele>
        <time>2013-10-05T12:57:40Z</time>
      </trkpt>
      <trkpt lat="43.42414" lon="6.03322">
        <ele>327.39999389648</ele>
        <time>2013-10-05T12:57:41Z</time>
      </trkpt>
      <trkpt lat="43.42414" lon="6.03322">
        <ele>327.79998779297</ele>
        <time>2013-10-05T12:57:42Z</time>
      </trkpt>
      <trkpt lat="43.42414" lon="6.03322">
        <ele>328.60000610352</ele>
        <time>2013-10-05T12:57:43Z</time>
      </trkpt>
      <trkpt lat="43.42414" lon="6.03322">
        <ele>328.60000610352</ele>
        <time>2013-10-05T12:57:44Z</time>
      </trkpt>
      <trkpt lat="43.42414" lon="6.03322">
        <ele>328.60000610352</ele>
        <time>2013-10-05T12:57:49Z</time>
      </trkpt>
      <trkpt lat="43.42413" lon="6.03322">
        <ele>328.60000610352</ele>
        <time>2013-10-05T12:57:50Z</time>
      </trkpt>
      <trkpt lat="43.42413" lon="6.03322">
        <ele>328.60000610352</ele>
        <time>2013-10-05T12:58:07Z</time>
      </trkpt>
      <trkpt lat="43.42413" lon="6.03322">
        <ele>328.60000610352</ele>
        <time>2013-10-05T12:58:18Z</time>
      </trkpt>
      <trkpt lat="43.42412" lon="6.03322">
        <ele>328.60000610352</ele>
        <time>2013-10-05T12:58:23Z</time>
      </trkpt>
      <trkpt lat="43.42411" lon="6.03322">
        <ele>328.60000610352</ele>
        <time>2013-10-05T12:58:24Z</time>
      </trkpt>
      <trkpt lat="43.42411" lon="6.03322">
        <ele>328.60000610352</ele>
        <time>2013-10-05T12:58:28Z</time>
      </trkpt>
      <trkpt lat="43.42411" lon="6.03322">
        <ele>328.60000610352</ele>
        <time>2013-10-05T12:58:45Z</time>
      </trkpt>
      <trkpt lat="43.42411" lon="6.03322">
        <ele>328.60000610352</ele>
        <time>2013-10-05T12:58:59Z</time>
      </trkpt>
      <trkpt lat="43.4241" lon="6.03322">
        <ele>328.60000610352</ele>
        <time>2013-10-05T12:59:06Z</time>
      </trkpt>
      <trkpt lat="43.42408" lon="6.03321">
        <ele>328.60000610352</ele>
        <time>2013-10-05T12:59:08Z</time>
      </trkpt>
      <trkpt lat="43.42403" lon="6.03322">
        <ele>328.60000610352</ele>
        <time>2013-10-05T12:59:13Z</time>
      </trkpt>
      <trkpt lat="43.42397" lon="6.03324">
        <ele>329.20001220703</ele>
        <time>2013-10-05T12:59:18Z</time>
      </trkpt>
      <trkpt lat="43.42392" lon="6.03327">
        <ele>330.79998779297</ele>
        <time>2013-10-05T12:59:22Z</time>
      </trkpt>
      <trkpt lat="43.42384" lon="6.03328">
        <ele>330.79998779297</ele>
        <time>2013-10-05T12:59:28Z</time>
      </trkpt>
      <trkpt lat="43.42378" lon="6.03322">
        <ele>330.79998779297</ele>
        <time>2013-10-05T12:59:34Z</time>
      </trkpt>
      <trkpt lat="43.42377" lon="6.03316">
        <ele>330.79998779297</ele>
        <time>2013-10-05T12:59:37Z</time>
      </trkpt>
      <trkpt lat="43.42379" lon="6.03312">
        <ele>330.79998779297</ele>
        <time>2013-10-05T12:59:40Z</time>
      </trkpt>
      <trkpt lat="43.42379" lon="6.03303">
        <ele>330.79998779297</ele>
        <time>2013-10-05T12:59:45Z</time>
      </trkpt>
      <trkpt lat="43.42379" lon="6.03301">
        <ele>330.79998779297</ele>
        <time>2013-10-05T12:59:46Z</time>
      </trkpt>
      <trkpt lat="43.42377" lon="6.0329">
        <ele>330.79998779297</ele>
        <time>2013-10-05T12:59:52Z</time>
      </trkpt>
      <trkpt lat="43.42376" lon="6.03284">
        <ele>330.79998779297</ele>
        <time>2013-10-05T12:59:55Z</time>
      </trkpt>
      <trkpt lat="43.42374" lon="6.03276">
        <ele>330.79998779297</ele>
        <time>2013-10-05T12:59:59Z</time>
      </trkpt>
      <trkpt lat="43.42371" lon="6.03267">
        <ele>330.79998779297</ele>
        <time>2013-10-05T13:00:04Z</time>
      </trkpt>
      <trkpt lat="43.42369" lon="6.03261">
        <ele>330.79998779297</ele>
        <time>2013-10-05T13:00:09Z</time>
      </trkpt>
      <trkpt lat="43.42368" lon="6.0326">
        <ele>330.79998779297</ele>
        <time>2013-10-05T13:00:11Z</time>
      </trkpt>
      <trkpt lat="43.42368" lon="6.03258">
        <ele>330.79998779297</ele>
        <time>2013-10-05T13:00:15Z</time>
      </trkpt>
      <trkpt lat="43.42368" lon="6.03258">
        <ele>330.79998779297</ele>
        <time>2013-10-05T13:00:16Z</time>
      </trkpt>
      <trkpt lat="43.42368" lon="6.03257">
        <ele>330.79998779297</ele>
        <time>2013-10-05T13:00:18Z</time>
      </trkpt>
      <trkpt lat="43.42368" lon="6.03255">
        <ele>330.79998779297</ele>
        <time>2013-10-05T13:00:20Z</time>
      </trkpt>
      <trkpt lat="43.42368" lon="6.03255">
        <ele>330.79998779297</ele>
        <time>2013-10-05T13:00:22Z</time>
      </trkpt>
      <trkpt lat="43.42368" lon="6.0325">
        <ele>330.79998779297</ele>
        <time>2013-10-05T13:00:27Z</time>
      </trkpt>
      <trkpt lat="43.42368" lon="6.03236">
        <ele>330.79998779297</ele>
        <time>2013-10-05T13:00:35Z</time>
      </trkpt>
      <trkpt lat="43.42369" lon="6.0322">
        <ele>330.79998779297</ele>
        <time>2013-10-05T13:00:44Z</time>
      </trkpt>
      <trkpt lat="43.42369" lon="6.03216">
        <ele>330.79998779297</ele>
        <time>2013-10-05T13:00:46Z</time>
      </trkpt>
      <trkpt lat="43.42369" lon="6.03206">
        <ele>330.79998779297</ele>
        <time>2013-10-05T13:00:50Z</time>
      </trkpt>
      <trkpt lat="43.42369" lon="6.03196">
        <ele>330.79998779297</ele>
        <time>2013-10-05T13:00:55Z</time>
      </trkpt>
      <trkpt lat="43.42369" lon="6.03185">
        <ele>333</ele>
        <time>2013-10-05T13:01:01Z</time>
      </trkpt>
      <trkpt lat="43.42369" lon="6.03175">
        <ele>333</ele>
        <time>2013-10-05T13:01:06Z</time>
      </trkpt>
      <trkpt lat="43.42369" lon="6.03173">
        <ele>333</ele>
        <time>2013-10-05T13:01:07Z</time>
      </trkpt>
      <trkpt lat="43.42371" lon="6.03158">
        <ele>333</ele>
        <time>2013-10-05T13:01:14Z</time>
      </trkpt>
      <trkpt lat="43.42373" lon="6.03143">
        <ele>333</ele>
        <time>2013-10-05T13:01:22Z</time>
      </trkpt>
      <trkpt lat="43.42373" lon="6.03127">
        <ele>333</ele>
        <time>2013-10-05T13:01:30Z</time>
      </trkpt>
      <trkpt lat="43.42373" lon="6.03121">
        <ele>333.79998779297</ele>
        <time>2013-10-05T13:01:33Z</time>
      </trkpt>
      <trkpt lat="43.42375" lon="6.03109">
        <ele>335</ele>
        <time>2013-10-05T13:01:39Z</time>
      </trkpt>
      <trkpt lat="43.42376" lon="6.03095">
        <ele>335</ele>
        <time>2013-10-05T13:01:46Z</time>
      </trkpt>
      <trkpt lat="43.42379" lon="6.03086">
        <ele>335</ele>
        <time>2013-10-05T13:01:51Z</time>
      </trkpt>
      <trkpt lat="43.42379" lon="6.03073">
        <ele>337</ele>
        <time>2013-10-05T13:01:58Z</time>
      </trkpt>
      <trkpt lat="43.42382" lon="6.0305">
        <ele>337.39999389648</ele>
        <time>2013-10-05T13:02:10Z</time>
      </trkpt>
      <trkpt lat="43.42382" lon="6.03037">
        <ele>339.20001220703</ele>
        <time>2013-10-05T13:02:17Z</time>
      </trkpt>
      <trkpt lat="43.42382" lon="6.03022">
        <ele>340.79998779297</ele>
        <time>2013-10-05T13:02:25Z</time>
      </trkpt>
      <trkpt lat="43.4238" lon="6.0301">
        <ele>341.20001220703</ele>
        <time>2013-10-05T13:02:31Z</time>
      </trkpt>
      <trkpt lat="43.42377" lon="6.02999">
        <ele>343.39999389648</ele>
        <time>2013-10-05T13:02:38Z</time>
      </trkpt>
      <trkpt lat="43.42377" lon="6.02994">
        <ele>343.39999389648</ele>
        <time>2013-10-05T13:02:41Z</time>
      </trkpt>
      <trkpt lat="43.42377" lon="6.02965">
        <ele>345.39999389648</ele>
        <time>2013-10-05T13:02:57Z</time>
      </trkpt>
      <trkpt lat="43.42378" lon="6.02954">
        <ele>345.39999389648</ele>
        <time>2013-10-05T13:03:03Z</time>
      </trkpt>
      <trkpt lat="43.42385" lon="6.02922">
        <ele>345.39999389648</ele>
        <time>2013-10-05T13:03:17Z</time>
      </trkpt>
      <trkpt lat="43.4239" lon="6.02901">
        <ele>345.39999389648</ele>
        <time>2013-10-05T13:03:25Z</time>
      </trkpt>
      <trkpt lat="43.42393" lon="6.02895">
        <ele>345.39999389648</ele>
        <time>2013-10-05T13:03:28Z</time>
      </trkpt>
      <trkpt lat="43.42397" lon="6.02886">
        <ele>345.39999389648</ele>
        <time>2013-10-05T13:03:32Z</time>
      </trkpt>
      <trkpt lat="43.42402" lon="6.02876">
        <ele>345.39999389648</ele>
        <time>2013-10-05T13:03:36Z</time>
      </trkpt>
      <trkpt lat="43.42408" lon="6.02862">
        <ele>345.39999389648</ele>
        <time>2013-10-05T13:03:41Z</time>
      </trkpt>
      <trkpt lat="43.42411" lon="6.02852">
        <ele>345.39999389648</ele>
        <time>2013-10-05T13:03:44Z</time>
      </trkpt>
      <trkpt lat="43.42413" lon="6.02844">
        <ele>345.39999389648</ele>
        <time>2013-10-05T13:03:46Z</time>
      </trkpt>
      <trkpt lat="43.42417" lon="6.02836">
        <ele>345.39999389648</ele>
        <time>2013-10-05T13:03:48Z</time>
      </trkpt>
      <trkpt lat="43.42422" lon="6.02824">
        <ele>345.39999389648</ele>
        <time>2013-10-05T13:03:51Z</time>
      </trkpt>
      <trkpt lat="43.42426" lon="6.0281">
        <ele>345.39999389648</ele>
        <time>2013-10-05T13:03:54Z</time>
      </trkpt>
      <trkpt lat="43.42429" lon="6.02802">
        <ele>345.39999389648</ele>
        <time>2013-10-05T13:03:56Z</time>
      </trkpt>
      <trkpt lat="43.42432" lon="6.02785">
        <ele>345.39999389648</ele>
        <time>2013-10-05T13:04:00Z</time>
      </trkpt>
      <trkpt lat="43.42431" lon="6.02776">
        <ele>345.39999389648</ele>
        <time>2013-10-05T13:04:02Z</time>
      </trkpt>
      <trkpt lat="43.42431" lon="6.02767">
        <ele>345</ele>
        <time>2013-10-05T13:04:04Z</time>
      </trkpt>
      <trkpt lat="43.42438" lon="6.0275">
        <ele>343.20001220703</ele>
        <time>2013-10-05T13:04:08Z</time>
      </trkpt>
      <trkpt lat="43.4244" lon="6.02735">
        <ele>343.20001220703</ele>
        <time>2013-10-05T13:04:11Z</time>
      </trkpt>
      <trkpt lat="43.4244" lon="6.0273">
        <ele>343.20001220703</ele>
        <time>2013-10-05T13:04:12Z</time>
      </trkpt>
      <trkpt lat="43.4244" lon="6.02714">
        <ele>343.20001220703</ele>
        <time>2013-10-05T13:04:15Z</time>
      </trkpt>
      <trkpt lat="43.4244" lon="6.02702">
        <ele>343.20001220703</ele>
        <time>2013-10-05T13:04:17Z</time>
      </trkpt>
      <trkpt lat="43.42441" lon="6.02692">
        <ele>342.39999389648</ele>
        <time>2013-10-05T13:04:19Z</time>
      </trkpt>
      <trkpt lat="43.42441" lon="6.02687">
        <ele>342</ele>
        <time>2013-10-05T13:04:20Z</time>
      </trkpt>
      <trkpt lat="43.42442" lon="6.02684">
        <ele>341.60000610352</ele>
        <time>2013-10-05T13:04:21Z</time>
      </trkpt>
      <trkpt lat="43.42442" lon="6.02681">
        <ele>341.20001220703</ele>
        <time>2013-10-05T13:04:22Z</time>
      </trkpt>
      <trkpt lat="43.42442" lon="6.02679">
        <ele>341.20001220703</ele>
        <time>2013-10-05T13:04:23Z</time>
      </trkpt>
      <trkpt lat="43.42442" lon="6.02678">
        <ele>341.20001220703</ele>
        <time>2013-10-05T13:04:27Z</time>
      </trkpt>
      <trkpt lat="43.42442" lon="6.02678">
        <ele>341.20001220703</ele>
        <time>2013-10-05T13:04:41Z</time>
      </trkpt>
      <trkpt lat="43.42442" lon="6.02678">
        <ele>341.20001220703</ele>
        <time>2013-10-05T13:05:09Z</time>
      </trkpt>
      <trkpt lat="43.42442" lon="6.02678">
        <ele>341.20001220703</ele>
        <time>2013-10-05T13:05:20Z</time>
      </trkpt>
      <trkpt lat="43.42442" lon="6.02678">
        <ele>341.20001220703</ele>
        <time>2013-10-05T13:05:36Z</time>
      </trkpt>
      <trkpt lat="43.42444" lon="6.02677">
        <ele>341.20001220703</ele>
        <time>2013-10-05T13:05:39Z</time>
      </trkpt>
      <trkpt lat="43.42444" lon="6.02677">
        <ele>341.20001220703</ele>
        <time>2013-10-05T13:05:46Z</time>
      </trkpt>
      <trkpt lat="43.42444" lon="6.02677">
        <ele>341.20001220703</ele>
        <time>2013-10-05T13:05:56Z</time>
      </trkpt>
      <trkpt lat="43.42444" lon="6.02677">
        <ele>341.20001220703</ele>
        <time>2013-10-05T13:06:06Z</time>
      </trkpt>
      <trkpt lat="43.42445" lon="6.02676">
        <ele>341.20001220703</ele>
        <time>2013-10-05T13:06:16Z</time>
      </trkpt>
      <trkpt lat="43.42448" lon="6.02669">
        <ele>341.20001220703</ele>
        <time>2013-10-05T13:06:20Z</time>
      </trkpt>
      <trkpt lat="43.42451" lon="6.0266">
        <ele>341.20001220703</ele>
        <time>2013-10-05T13:06:24Z</time>
      </trkpt>
      <trkpt lat="43.42457" lon="6.02644">
        <ele>341.20001220703</ele>
        <time>2013-10-05T13:06:29Z</time>
      </trkpt>
      <trkpt lat="43.42458" lon="6.0264">
        <ele>341.20001220703</ele>
        <time>2013-10-05T13:06:30Z</time>
      </trkpt>
      <trkpt lat="43.42469" lon="6.02618">
        <ele>341.20001220703</ele>
        <time>2013-10-05T13:06:36Z</time>
      </trkpt>
      <trkpt lat="43.42472" lon="6.02615">
        <ele>341.20001220703</ele>
        <time>2013-10-05T13:06:37Z</time>
      </trkpt>
      <trkpt lat="43.42484" lon="6.02603">
        <ele>341.20001220703</ele>
        <time>2013-10-05T13:06:41Z</time>
      </trkpt>
      <trkpt lat="43.42492" lon="6.026">
        <ele>340.79998779297</ele>
        <time>2013-10-05T13:06:43Z</time>
      </trkpt>
      <trkpt lat="43.42496" lon="6.02598">
        <ele>340.39999389648</ele>
        <time>2013-10-05T13:06:44Z</time>
      </trkpt>
      <trkpt lat="43.425" lon="6.02597">
        <ele>340</ele>
        <time>2013-10-05T13:06:45Z</time>
      </trkpt>
      <trkpt lat="43.42505" lon="6.02594">
        <ele>339.60000610352</ele>
        <time>2013-10-05T13:06:46Z</time>
      </trkpt>
      <trkpt lat="43.42508" lon="6.02591">
        <ele>339.20001220703</ele>
        <time>2013-10-05T13:06:47Z</time>
      </trkpt>
      <trkpt lat="43.42511" lon="6.02587">
        <ele>339.20001220703</ele>
        <time>2013-10-05T13:06:48Z</time>
      </trkpt>
      <trkpt lat="43.42516" lon="6.0257">
        <ele>339.20001220703</ele>
        <time>2013-10-05T13:06:52Z</time>
      </trkpt>
      <trkpt lat="43.42519" lon="6.02566">
        <ele>339.20001220703</ele>
        <time>2013-10-05T13:06:55Z</time>
      </trkpt>
      <trkpt lat="43.42526" lon="6.02553">
        <ele>339.20001220703</ele>
        <time>2013-10-05T13:06:59Z</time>
      </trkpt>
      <trkpt lat="43.42533" lon="6.02541">
        <ele>339.20001220703</ele>
        <time>2013-10-05T13:07:04Z</time>
      </trkpt>
      <trkpt lat="43.4254" lon="6.02525">
        <ele>339.20001220703</ele>
        <time>2013-10-05T13:07:10Z</time>
      </trkpt>
      <trkpt lat="43.4255" lon="6.02514">
        <ele>339.20001220703</ele>
        <time>2013-10-05T13:07:14Z</time>
      </trkpt>
      <trkpt lat="43.42555" lon="6.02497">
        <ele>339.20001220703</ele>
        <time>2013-10-05T13:07:18Z</time>
      </trkpt>
      <trkpt lat="43.42556" lon="6.02484">
        <ele>339.20001220703</ele>
        <time>2013-10-05T13:07:21Z</time>
      </trkpt>
      <trkpt lat="43.42564" lon="6.0246">
        <ele>339.20001220703</ele>
        <time>2013-10-05T13:07:27Z</time>
      </trkpt>
      <trkpt lat="43.42566" lon="6.02456">
        <ele>339.20001220703</ele>
        <time>2013-10-05T13:07:28Z</time>
      </trkpt>
      <trkpt lat="43.42567" lon="6.02432">
        <ele>339.20001220703</ele>
        <time>2013-10-05T13:07:33Z</time>
      </trkpt>
      <trkpt lat="43.42567" lon="6.02417">
        <ele>339.20001220703</ele>
        <time>2013-10-05T13:07:36Z</time>
      </trkpt>
      <trkpt lat="43.4257" lon="6.02407">
        <ele>339.20001220703</ele>
        <time>2013-10-05T13:07:38Z</time>
      </trkpt>
      <trkpt lat="43.42577" lon="6.02392">
        <ele>339.20001220703</ele>
        <time>2013-10-05T13:07:41Z</time>
      </trkpt>
      <trkpt lat="43.42582" lon="6.02382">
        <ele>338.79998779297</ele>
        <time>2013-10-05T13:07:43Z</time>
      </trkpt>
      <trkpt lat="43.42586" lon="6.02378">
        <ele>338.39999389648</ele>
        <time>2013-10-05T13:07:44Z</time>
      </trkpt>
      <trkpt lat="43.42593" lon="6.02369">
        <ele>337.60000610352</ele>
        <time>2013-10-05T13:07:46Z</time>
      </trkpt>
      <trkpt lat="43.42601" lon="6.02364">
        <ele>337.20001220703</ele>
        <time>2013-10-05T13:07:48Z</time>
      </trkpt>
      <trkpt lat="43.42615" lon="6.02348">
        <ele>337.20001220703</ele>
        <time>2013-10-05T13:07:53Z</time>
      </trkpt>
      <trkpt lat="43.42627" lon="6.02317">
        <ele>337.20001220703</ele>
        <time>2013-10-05T13:08:00Z</time>
      </trkpt>
      <trkpt lat="43.42632" lon="6.02305">
        <ele>337.20001220703</ele>
        <time>2013-10-05T13:08:03Z</time>
      </trkpt>
      <trkpt lat="43.42632" lon="6.02288">
        <ele>338</ele>
        <time>2013-10-05T13:08:07Z</time>
      </trkpt>
      <trkpt lat="43.42631" lon="6.0228">
        <ele>339</ele>
        <time>2013-10-05T13:08:09Z</time>
      </trkpt>
      <trkpt lat="43.42632" lon="6.02271">
        <ele>339.60000610352</ele>
        <time>2013-10-05T13:08:12Z</time>
      </trkpt>
      <trkpt lat="43.42632" lon="6.02257">
        <ele>339.60000610352</ele>
        <time>2013-10-05T13:08:18Z</time>
      </trkpt>
      <trkpt lat="43.42635" lon="6.02241">
        <ele>340</ele>
        <time>2013-10-05T13:08:24Z</time>
      </trkpt>
      <trkpt lat="43.42636" lon="6.02238">
        <ele>340.79998779297</ele>
        <time>2013-10-05T13:08:25Z</time>
      </trkpt>
      <trkpt lat="43.42637" lon="6.02235">
        <ele>341.20001220703</ele>
        <time>2013-10-05T13:08:26Z</time>
      </trkpt>
      <trkpt lat="43.42638" lon="6.02232">
        <ele>341.60000610352</ele>
        <time>2013-10-05T13:08:27Z</time>
      </trkpt>
      <trkpt lat="43.42647" lon="6.02222">
        <ele>341.60000610352</ele>
        <time>2013-10-05T13:08:31Z</time>
      </trkpt>
      <trkpt lat="43.42659" lon="6.02211">
        <ele>341.20001220703</ele>
        <time>2013-10-05T13:08:34Z</time>
      </trkpt>
      <trkpt lat="43.42663" lon="6.02206">
        <ele>340.60000610352</ele>
        <time>2013-10-05T13:08:35Z</time>
      </trkpt>
      <trkpt lat="43.42668" lon="6.02201">
        <ele>340.20001220703</ele>
        <time>2013-10-05T13:08:36Z</time>
      </trkpt>
      <trkpt lat="43.42673" lon="6.02197">
        <ele>339.79998779297</ele>
        <time>2013-10-05T13:08:37Z</time>
      </trkpt>
      <trkpt lat="43.42678" lon="6.02194">
        <ele>339.39999389648</ele>
        <time>2013-10-05T13:08:38Z</time>
      </trkpt>
      <trkpt lat="43.42684" lon="6.02191">
        <ele>339</ele>
        <time>2013-10-05T13:08:39Z</time>
      </trkpt>
      <trkpt lat="43.4269" lon="6.02188">
        <ele>338.60000610352</ele>
        <time>2013-10-05T13:08:40Z</time>
      </trkpt>
      <trkpt lat="43.42695" lon="6.02184">
        <ele>338.20001220703</ele>
        <time>2013-10-05T13:08:41Z</time>
      </trkpt>
      <trkpt lat="43.42699" lon="6.02178">
        <ele>337.79998779297</ele>
        <time>2013-10-05T13:08:42Z</time>
      </trkpt>
      <trkpt lat="43.42704" lon="6.02172">
        <ele>337.20001220703</ele>
        <time>2013-10-05T13:08:43Z</time>
      </trkpt>
      <trkpt lat="43.42708" lon="6.02165">
        <ele>336.60000610352</ele>
        <time>2013-10-05T13:08:44Z</time>
      </trkpt>
      <trkpt lat="43.42712" lon="6.0216">
        <ele>336.20001220703</ele>
        <time>2013-10-05T13:08:45Z</time>
      </trkpt>
      <trkpt lat="43.42715" lon="6.02156">
        <ele>335.60000610352</ele>
        <time>2013-10-05T13:08:46Z</time>
      </trkpt>
      <trkpt lat="43.42718" lon="6.02154">
        <ele>335</ele>
        <time>2013-10-05T13:08:47Z</time>
      </trkpt>
      <trkpt lat="43.42718" lon="6.02154">
        <ele>334.60000610352</ele>
        <time>2013-10-05T13:08:48Z</time>
      </trkpt>
      <trkpt lat="43.42718" lon="6.02155">
        <ele>334</ele>
        <time>2013-10-05T13:08:49Z</time>
      </trkpt>
      <trkpt lat="43.42719" lon="6.02156">
        <ele>333</ele>
        <time>2013-10-05T13:08:50Z</time>
      </trkpt>
      <trkpt lat="43.42719" lon="6.02155">
        <ele>333</ele>
        <time>2013-10-05T13:08:54Z</time>
      </trkpt>
      <trkpt lat="43.42719" lon="6.02155">
        <ele>333</ele>
        <time>2013-10-05T13:09:09Z</time>
      </trkpt>
      <trkpt lat="43.42719" lon="6.02155">
        <ele>333</ele>
        <time>2013-10-05T13:09:14Z</time>
      </trkpt>
      <trkpt lat="43.42719" lon="6.02156">
        <ele>333</ele>
        <time>2013-10-05T13:09:22Z</time>
      </trkpt>
      <trkpt lat="43.42719" lon="6.02157">
        <ele>333</ele>
        <time>2013-10-05T13:09:27Z</time>
      </trkpt>
      <trkpt lat="43.42719" lon="6.02157">
        <ele>333</ele>
        <time>2013-10-05T13:09:30Z</time>
      </trkpt>
      <trkpt lat="43.42719" lon="6.02162">
        <ele>333</ele>
        <time>2013-10-05T13:09:35Z</time>
      </trkpt>
      <trkpt lat="43.42721" lon="6.02168">
        <ele>333</ele>
        <time>2013-10-05T13:09:37Z</time>
      </trkpt>
      <trkpt lat="43.42724" lon="6.02175">
        <ele>333</ele>
        <time>2013-10-05T13:09:39Z</time>
      </trkpt>
      <trkpt lat="43.42729" lon="6.02179">
        <ele>332.60000610352</ele>
        <time>2013-10-05T13:09:41Z</time>
      </trkpt>
      <trkpt lat="43.42731" lon="6.02181">
        <ele>332.20001220703</ele>
        <time>2013-10-05T13:09:42Z</time>
      </trkpt>
      <trkpt lat="43.42735" lon="6.02182">
        <ele>331.60000610352</ele>
        <time>2013-10-05T13:09:43Z</time>
      </trkpt>
      <trkpt lat="43.42742" lon="6.02185">
        <ele>330.79998779297</ele>
        <time>2013-10-05T13:09:45Z</time>
      </trkpt>
      <trkpt lat="43.42748" lon="6.02189">
        <ele>330.20001220703</ele>
        <time>2013-10-05T13:09:47Z</time>
      </trkpt>
      <trkpt lat="43.4275" lon="6.02191">
        <ele>329.79998779297</ele>
        <time>2013-10-05T13:09:48Z</time>
      </trkpt>
      <trkpt lat="43.42753" lon="6.02193">
        <ele>329.20001220703</ele>
        <time>2013-10-05T13:09:49Z</time>
      </trkpt>
      <trkpt lat="43.4276" lon="6.02203">
        <ele>328.20001220703</ele>
        <time>2013-10-05T13:09:53Z</time>
      </trkpt>
      <trkpt lat="43.42762" lon="6.02206">
        <ele>327.79998779297</ele>
        <time>2013-10-05T13:09:54Z</time>
      </trkpt>
      <trkpt lat="43.42764" lon="6.02209">
        <ele>327.39999389648</ele>
        <time>2013-10-05T13:09:55Z</time>
      </trkpt>
      <trkpt lat="43.42767" lon="6.02218">
        <ele>326.20001220703</ele>
        <time>2013-10-05T13:09:58Z</time>
      </trkpt>
      <trkpt lat="43.42775" lon="6.02241">
        <ele>325.60000610352</ele>
        <time>2013-10-05T13:10:03Z</time>
      </trkpt>
      <trkpt lat="43.42783" lon="6.02254">
        <ele>324</ele>
        <time>2013-10-05T13:10:06Z</time>
      </trkpt>
      <trkpt lat="43.42789" lon="6.0226">
        <ele>323.39999389648</ele>
        <time>2013-10-05T13:10:08Z</time>
      </trkpt>
      <trkpt lat="43.42789" lon="6.02265">
        <ele>323</ele>
        <time>2013-10-05T13:10:09Z</time>
      </trkpt>
      <trkpt lat="43.42788" lon="6.02269">
        <ele>322.60000610352</ele>
        <time>2013-10-05T13:10:10Z</time>
      </trkpt>
      <trkpt lat="43.42782" lon="6.0228">
        <ele>321.79998779297</ele>
        <time>2013-10-05T13:10:13Z</time>
      </trkpt>
      <trkpt lat="43.4278" lon="6.02289">
        <ele>321.79998779297</ele>
        <time>2013-10-05T13:10:15Z</time>
      </trkpt>
      <trkpt lat="43.42786" lon="6.02292">
        <ele>321.39999389648</ele>
        <time>2013-10-05T13:10:18Z</time>
      </trkpt>
      <trkpt lat="43.42794" lon="6.02293">
        <ele>320</ele>
        <time>2013-10-05T13:10:21Z</time>
      </trkpt>
      <trkpt lat="43.42797" lon="6.02294">
        <ele>319.39999389648</ele>
        <time>2013-10-05T13:10:22Z</time>
      </trkpt>
      <trkpt lat="43.428" lon="6.02296">
        <ele>319.39999389648</ele>
        <time>2013-10-05T13:10:23Z</time>
      </trkpt>
      <trkpt lat="43.42804" lon="6.0231">
        <ele>319.39999389648</ele>
        <time>2013-10-05T13:10:26Z</time>
      </trkpt>
      <trkpt lat="43.42802" lon="6.0232">
        <ele>319</ele>
        <time>2013-10-05T13:10:28Z</time>
      </trkpt>
      <trkpt lat="43.428" lon="6.02325">
        <ele>318.60000610352</ele>
        <time>2013-10-05T13:10:29Z</time>
      </trkpt>
      <trkpt lat="43.42799" lon="6.02332">
        <ele>318.20001220703</ele>
        <time>2013-10-05T13:10:30Z</time>
      </trkpt>
      <trkpt lat="43.42797" lon="6.02338">
        <ele>317.79998779297</ele>
        <time>2013-10-05T13:10:32Z</time>
      </trkpt>
      <trkpt lat="43.42794" lon="6.02343">
        <ele>317.39999389648</ele>
        <time>2013-10-05T13:10:33Z</time>
      </trkpt>
      <trkpt lat="43.42787" lon="6.02356">
        <ele>317.39999389648</ele>
        <time>2013-10-05T13:10:36Z</time>
      </trkpt>
      <trkpt lat="43.42786" lon="6.02369">
        <ele>317</ele>
        <time>2013-10-05T13:10:39Z</time>
      </trkpt>
      <trkpt lat="43.42787" lon="6.02373">
        <ele>316.39999389648</ele>
        <time>2013-10-05T13:10:40Z</time>
      </trkpt>
      <trkpt lat="43.42788" lon="6.02376">
        <ele>316</ele>
        <time>2013-10-05T13:10:41Z</time>
      </trkpt>
      <trkpt lat="43.42791" lon="6.02384">
        <ele>315</ele>
        <time>2013-10-05T13:10:44Z</time>
      </trkpt>
      <trkpt lat="43.42793" lon="6.02391">
        <ele>314.39999389648</ele>
        <time>2013-10-05T13:10:46Z</time>
      </trkpt>
      <trkpt lat="43.42794" lon="6.02396">
        <ele>314</ele>
        <time>2013-10-05T13:10:47Z</time>
      </trkpt>
      <trkpt lat="43.42797" lon="6.02405">
        <ele>313.20001220703</ele>
        <time>2013-10-05T13:10:49Z</time>
      </trkpt>
      <trkpt lat="43.42799" lon="6.02409">
        <ele>312.60000610352</ele>
        <time>2013-10-05T13:10:50Z</time>
      </trkpt>
      <trkpt lat="43.428" lon="6.02425">
        <ele>312.20001220703</ele>
        <time>2013-10-05T13:10:53Z</time>
      </trkpt>
      <trkpt lat="43.42799" lon="6.02432">
        <ele>311.39999389648</ele>
        <time>2013-10-05T13:10:54Z</time>
      </trkpt>
      <trkpt lat="43.42799" lon="6.02444">
        <ele>310.60000610352</ele>
        <time>2013-10-05T13:10:56Z</time>
      </trkpt>
      <trkpt lat="43.42801" lon="6.02454">
        <ele>310.60000610352</ele>
        <time>2013-10-05T13:10:58Z</time>
      </trkpt>
      <trkpt lat="43.42802" lon="6.02459">
        <ele>310.20001220703</ele>
        <time>2013-10-05T13:10:59Z</time>
      </trkpt>
      <trkpt lat="43.42804" lon="6.02464">
        <ele>309.60000610352</ele>
        <time>2013-10-05T13:11:00Z</time>
      </trkpt>
      <trkpt lat="43.42804" lon="6.02469">
        <ele>309.20001220703</ele>
        <time>2013-10-05T13:11:01Z</time>
      </trkpt>
      <trkpt lat="43.42802" lon="6.02481">
        <ele>308.39999389648</ele>
        <time>2013-10-05T13:11:03Z</time>
      </trkpt>
      <trkpt lat="43.428" lon="6.02498">
        <ele>307.60000610352</ele>
        <time>2013-10-05T13:11:06Z</time>
      </trkpt>
      <trkpt lat="43.42797" lon="6.02514">
        <ele>306.20001220703</ele>
        <time>2013-10-05T13:11:09Z</time>
      </trkpt>
      <trkpt lat="43.42801" lon="6.02521">
        <ele>305.79998779297</ele>
        <time>2013-10-05T13:11:11Z</time>
      </trkpt>
      <trkpt lat="43.42806" lon="6.02525">
        <ele>305</ele>
        <time>2013-10-05T13:11:13Z</time>
      </trkpt>
      <trkpt lat="43.4281" lon="6.02525">
        <ele>304.60000610352</ele>
        <time>2013-10-05T13:11:14Z</time>
      </trkpt>
      <trkpt lat="43.42816" lon="6.02525">
        <ele>304.20001220703</ele>
        <time>2013-10-05T13:11:16Z</time>
      </trkpt>
      <trkpt lat="43.42827" lon="6.02523">
        <ele>304.20001220703</ele>
        <time>2013-10-05T13:11:19Z</time>
      </trkpt>
      <trkpt lat="43.42832" lon="6.02526">
        <ele>304.20001220703</ele>
        <time>2013-10-05T13:11:21Z</time>
      </trkpt>
      <trkpt lat="43.42844" lon="6.02544">
        <ele>303.39999389648</ele>
        <time>2013-10-05T13:11:26Z</time>
      </trkpt>
      <trkpt lat="43.42854" lon="6.02551">
        <ele>302.20001220703</ele>
        <time>2013-10-05T13:11:29Z</time>
      </trkpt>
      <trkpt lat="43.4286" lon="6.02559">
        <ele>302.20001220703</ele>
        <time>2013-10-05T13:11:31Z</time>
      </trkpt>
      <trkpt lat="43.42865" lon="6.02569">
        <ele>301.60000610352</ele>
        <time>2013-10-05T13:11:33Z</time>
      </trkpt>
      <trkpt lat="43.4287" lon="6.02576">
        <ele>300.79998779297</ele>
        <time>2013-10-05T13:11:35Z</time>
      </trkpt>
      <trkpt lat="43.42875" lon="6.02585">
        <ele>300</ele>
        <time>2013-10-05T13:11:37Z</time>
      </trkpt>
      <trkpt lat="43.42885" lon="6.02598">
        <ele>300</ele>
        <time>2013-10-05T13:11:40Z</time>
      </trkpt>
      <trkpt lat="43.42888" lon="6.02608">
        <ele>298.39999389648</ele>
        <time>2013-10-05T13:11:42Z</time>
      </trkpt>
      <trkpt lat="43.42889" lon="6.0262">
        <ele>297.20001220703</ele>
        <time>2013-10-05T13:11:44Z</time>
      </trkpt>
      <trkpt lat="43.4289" lon="6.02625">
        <ele>297.20001220703</ele>
        <time>2013-10-05T13:11:45Z</time>
      </trkpt>
      <trkpt lat="43.42895" lon="6.0264">
        <ele>296.79998779297</ele>
        <time>2013-10-05T13:11:48Z</time>
      </trkpt>
      <trkpt lat="43.42894" lon="6.02651">
        <ele>296</ele>
        <time>2013-10-05T13:11:50Z</time>
      </trkpt>
      <trkpt lat="43.42894" lon="6.02656">
        <ele>295.60000610352</ele>
        <time>2013-10-05T13:11:51Z</time>
      </trkpt>
      <trkpt lat="43.42896" lon="6.02663">
        <ele>295</ele>
        <time>2013-10-05T13:11:53Z</time>
      </trkpt>
      <trkpt lat="43.429" lon="6.0267">
        <ele>295</ele>
        <time>2013-10-05T13:11:56Z</time>
      </trkpt>
      <trkpt lat="43.42905" lon="6.02673">
        <ele>295</ele>
        <time>2013-10-05T13:11:58Z</time>
      </trkpt>
      <trkpt lat="43.42915" lon="6.02681">
        <ele>294.60000610352</ele>
        <time>2013-10-05T13:12:01Z</time>
      </trkpt>
      <trkpt lat="43.42919" lon="6.02705">
        <ele>292.60000610352</ele>
        <time>2013-10-05T13:12:05Z</time>
      </trkpt>
      <trkpt lat="43.42921" lon="6.02723">
        <ele>291.39999389648</ele>
        <time>2013-10-05T13:12:08Z</time>
      </trkpt>
      <trkpt lat="43.42924" lon="6.02726">
        <ele>291</ele>
        <time>2013-10-05T13:12:09Z</time>
      </trkpt>
      <trkpt lat="43.42928" lon="6.02728">
        <ele>290.60000610352</ele>
        <time>2013-10-05T13:12:10Z</time>
      </trkpt>
      <trkpt lat="43.42939" lon="6.02742">
        <ele>290.60000610352</ele>
        <time>2013-10-05T13:12:14Z</time>
      </trkpt>
      <trkpt lat="43.42942" lon="6.02746">
        <ele>290</ele>
        <time>2013-10-05T13:12:15Z</time>
      </trkpt>
      <trkpt lat="43.42945" lon="6.02751">
        <ele>289.60000610352</ele>
        <time>2013-10-05T13:12:16Z</time>
      </trkpt>
      <trkpt lat="43.42947" lon="6.02757">
        <ele>289.20001220703</ele>
        <time>2013-10-05T13:12:17Z</time>
      </trkpt>
      <trkpt lat="43.42949" lon="6.02763">
        <ele>288.79998779297</ele>
        <time>2013-10-05T13:12:18Z</time>
      </trkpt>
      <trkpt lat="43.42955" lon="6.0277">
        <ele>288.20001220703</ele>
        <time>2013-10-05T13:12:19Z</time>
      </trkpt>
      <trkpt lat="43.42963" lon="6.0278">
        <ele>288.20001220703</ele>
        <time>2013-10-05T13:12:21Z</time>
      </trkpt>
      <trkpt lat="43.42968" lon="6.02792">
        <ele>287.79998779297</ele>
        <time>2013-10-05T13:12:23Z</time>
      </trkpt>
      <trkpt lat="43.42971" lon="6.02797">
        <ele>287.39999389648</ele>
        <time>2013-10-05T13:12:24Z</time>
      </trkpt>
      <trkpt lat="43.42973" lon="6.02802">
        <ele>287</ele>
        <time>2013-10-05T13:12:25Z</time>
      </trkpt>
      <trkpt lat="43.42976" lon="6.02807">
        <ele>286.60000610352</ele>
        <time>2013-10-05T13:12:26Z</time>
      </trkpt>
      <trkpt lat="43.42977" lon="6.02812">
        <ele>286</ele>
        <time>2013-10-05T13:12:27Z</time>
      </trkpt>
      <trkpt lat="43.42977" lon="6.0282">
        <ele>285.60000610352</ele>
        <time>2013-10-05T13:12:29Z</time>
      </trkpt>
      <trkpt lat="43.42976" lon="6.02824">
        <ele>285.20001220703</ele>
        <time>2013-10-05T13:12:30Z</time>
      </trkpt>
      <trkpt lat="43.42977" lon="6.02828">
        <ele>284.79998779297</ele>
        <time>2013-10-05T13:12:31Z</time>
      </trkpt>
      <trkpt lat="43.42977" lon="6.02832">
        <ele>283.79998779297</ele>
        <time>2013-10-05T13:12:32Z</time>
      </trkpt>
      <trkpt lat="43.4298" lon="6.02843">
        <ele>283.79998779297</ele>
        <time>2013-10-05T13:12:34Z</time>
      </trkpt>
      <trkpt lat="43.4299" lon="6.02861">
        <ele>283.39999389648</ele>
        <time>2013-10-05T13:12:38Z</time>
      </trkpt>
      <trkpt lat="43.42993" lon="6.02862">
        <ele>283</ele>
        <time>2013-10-05T13:12:39Z</time>
      </trkpt>
      <trkpt lat="43.42997" lon="6.02863">
        <ele>282.60000610352</ele>
        <time>2013-10-05T13:12:40Z</time>
      </trkpt>
      <trkpt lat="43.43" lon="6.02863">
        <ele>282.20001220703</ele>
        <time>2013-10-05T13:12:41Z</time>
      </trkpt>
      <trkpt lat="43.43005" lon="6.02865">
        <ele>281.79998779297</ele>
        <time>2013-10-05T13:12:42Z</time>
      </trkpt>
      <trkpt lat="43.4302" lon="6.02876">
        <ele>281.79998779297</ele>
        <time>2013-10-05T13:12:46Z</time>
      </trkpt>
      <trkpt lat="43.43029" lon="6.02882">
        <ele>281.39999389648</ele>
        <time>2013-10-05T13:12:48Z</time>
      </trkpt>
      <trkpt lat="43.43033" lon="6.02886">
        <ele>281</ele>
        <time>2013-10-05T13:12:49Z</time>
      </trkpt>
      <trkpt lat="43.43036" lon="6.0289">
        <ele>280.39999389648</ele>
        <time>2013-10-05T13:12:50Z</time>
      </trkpt>
      <trkpt lat="43.43037" lon="6.02893">
        <ele>280</ele>
        <time>2013-10-05T13:12:51Z</time>
      </trkpt>
      <trkpt lat="43.43038" lon="6.02894">
        <ele>279.60000610352</ele>
        <time>2013-10-05T13:12:52Z</time>
      </trkpt>
      <trkpt lat="43.43039" lon="6.02894">
        <ele>279.60000610352</ele>
        <time>2013-10-05T13:12:54Z</time>
      </trkpt>
      <trkpt lat="43.43039" lon="6.02894">
        <ele>279.60000610352</ele>
        <time>2013-10-05T13:13:15Z</time>
      </trkpt>
      <trkpt lat="43.43039" lon="6.02894">
        <ele>279.60000610352</ele>
        <time>2013-10-05T13:13:28Z</time>
      </trkpt>
      <trkpt lat="43.4304" lon="6.02894">
        <ele>279.60000610352</ele>
        <time>2013-10-05T13:13:37Z</time>
      </trkpt>
      <trkpt lat="43.4304" lon="6.02894">
        <ele>279.60000610352</ele>
        <time>2013-10-05T13:13:55Z</time>
      </trkpt>
      <trkpt lat="43.4304" lon="6.02894">
        <ele>279.60000610352</ele>
        <time>2013-10-05T13:14:05Z</time>
      </trkpt>
      <trkpt lat="43.43041" lon="6.02895">
        <ele>279.60000610352</ele>
        <time>2013-10-05T13:14:14Z</time>
      </trkpt>
      <trkpt lat="43.43041" lon="6.02895">
        <ele>279.60000610352</ele>
        <time>2013-10-05T13:14:32Z</time>
      </trkpt>
      <trkpt lat="43.43041" lon="6.02895">
        <ele>279.60000610352</ele>
        <time>2013-10-05T13:14:48Z</time>
      </trkpt>
      <trkpt lat="43.43041" lon="6.02896">
        <ele>279.60000610352</ele>
        <time>2013-10-05T13:14:53Z</time>
      </trkpt>
      <trkpt lat="43.43041" lon="6.02896">
        <ele>279.60000610352</ele>
        <time>2013-10-05T13:15:19Z</time>
      </trkpt>
      <trkpt lat="43.43041" lon="6.02896">
        <ele>279.60000610352</ele>
        <time>2013-10-05T13:15:31Z</time>
      </trkpt>
      <trkpt lat="43.43042" lon="6.02896">
        <ele>279.60000610352</ele>
        <time>2013-10-05T13:15:33Z</time>
      </trkpt>
      <trkpt lat="43.43042" lon="6.02896">
        <ele>279.20001220703</ele>
        <time>2013-10-05T13:16:03Z</time>
      </trkpt>
      <trkpt lat="43.43042" lon="6.02896">
        <ele>277.60000610352</ele>
        <time>2013-10-05T13:16:36Z</time>
      </trkpt>
      <trkpt lat="43.43042" lon="6.02896">
        <ele>277.60000610352</ele>
        <time>2013-10-05T13:16:49Z</time>
      </trkpt>
      <trkpt lat="43.43042" lon="6.02896">
        <ele>277.60000610352</ele>
        <time>2013-10-05T13:16:56Z</time>
      </trkpt>
      <trkpt lat="43.43042" lon="6.02896">
        <ele>277.60000610352</ele>
        <time>2013-10-05T13:17:02Z</time>
      </trkpt>
      <trkpt lat="43.43048" lon="6.02903">
        <ele>277.60000610352</ele>
        <time>2013-10-05T13:17:09Z</time>
      </trkpt>
      <trkpt lat="43.43057" lon="6.02916">
        <ele>277.60000610352</ele>
        <time>2013-10-05T13:17:14Z</time>
      </trkpt>
      <trkpt lat="43.4307" lon="6.02933">
        <ele>277.60000610352</ele>
        <time>2013-10-05T13:17:18Z</time>
      </trkpt>
      <trkpt lat="43.43073" lon="6.02938">
        <ele>277.60000610352</ele>
        <time>2013-10-05T13:17:19Z</time>
      </trkpt>
      <trkpt lat="43.43076" lon="6.02942">
        <ele>277.60000610352</ele>
        <time>2013-10-05T13:17:20Z</time>
      </trkpt>
      <trkpt lat="43.43083" lon="6.0295">
        <ele>276.79998779297</ele>
        <time>2013-10-05T13:17:22Z</time>
      </trkpt>
      <trkpt lat="43.43085" lon="6.02956">
        <ele>276.39999389648</ele>
        <time>2013-10-05T13:17:23Z</time>
      </trkpt>
      <trkpt lat="43.43089" lon="6.02961">
        <ele>276</ele>
        <time>2013-10-05T13:17:24Z</time>
      </trkpt>
      <trkpt lat="43.43092" lon="6.02965">
        <ele>275.60000610352</ele>
        <time>2013-10-05T13:17:25Z</time>
      </trkpt>
      <trkpt lat="43.43098" lon="6.02975">
        <ele>275</ele>
        <time>2013-10-05T13:17:27Z</time>
      </trkpt>
      <trkpt lat="43.43106" lon="6.02984">
        <ele>274.20001220703</ele>
        <time>2013-10-05T13:17:29Z</time>
      </trkpt>
      <trkpt lat="43.43108" lon="6.02989">
        <ele>273.79998779297</ele>
        <time>2013-10-05T13:17:30Z</time>
      </trkpt>
      <trkpt lat="43.43112" lon="6.03001">
        <ele>273.39999389648</ele>
        <time>2013-10-05T13:17:32Z</time>
      </trkpt>
      <trkpt lat="43.43119" lon="6.0302">
        <ele>273.39999389648</ele>
        <time>2013-10-05T13:17:36Z</time>
      </trkpt>
      <trkpt lat="43.43121" lon="6.03023">
        <ele>273</ele>
        <time>2013-10-05T13:17:37Z</time>
      </trkpt>
      <trkpt lat="43.43123" lon="6.03025">
        <ele>272.39999389648</ele>
        <time>2013-10-05T13:17:38Z</time>
      </trkpt>
      <trkpt lat="43.43125" lon="6.03029">
        <ele>272</ele>
        <time>2013-10-05T13:17:39Z</time>
      </trkpt>
      <trkpt lat="43.43127" lon="6.03032">
        <ele>271.60000610352</ele>
        <time>2013-10-05T13:17:40Z</time>
      </trkpt>
      <trkpt lat="43.43128" lon="6.03036">
        <ele>271</ele>
        <time>2013-10-05T13:17:41Z</time>
      </trkpt>
      <trkpt lat="43.4313" lon="6.03041">
        <ele>271</ele>
        <time>2013-10-05T13:17:44Z</time>
      </trkpt>
      <trkpt lat="43.4313" lon="6.03042">
        <ele>271</ele>
        <time>2013-10-05T13:17:46Z</time>
      </trkpt>
      <trkpt lat="43.43132" lon="6.03051">
        <ele>271</ele>
        <time>2013-10-05T13:17:48Z</time>
      </trkpt>
      <trkpt lat="43.43135" lon="6.0307">
        <ele>270.20001220703</ele>
        <time>2013-10-05T13:17:51Z</time>
      </trkpt>
      <trkpt lat="43.43135" lon="6.03077">
        <ele>269.39999389648</ele>
        <time>2013-10-05T13:17:52Z</time>
      </trkpt>
      <trkpt lat="43.43134" lon="6.03097">
        <ele>269</ele>
        <time>2013-10-05T13:17:55Z</time>
      </trkpt>
      <trkpt lat="43.43133" lon="6.03108">
        <ele>268.60000610352</ele>
        <time>2013-10-05T13:17:57Z</time>
      </trkpt>
      <trkpt lat="43.43132" lon="6.03114">
        <ele>268.20001220703</ele>
        <time>2013-10-05T13:17:58Z</time>
      </trkpt>
      <trkpt lat="43.43132" lon="6.0312">
        <ele>267.79998779297</ele>
        <time>2013-10-05T13:17:59Z</time>
      </trkpt>
      <trkpt lat="43.43132" lon="6.03127">
        <ele>267.39999389648</ele>
        <time>2013-10-05T13:18:00Z</time>
      </trkpt>
      <trkpt lat="43.43132" lon="6.03133">
        <ele>267</ele>
        <time>2013-10-05T13:18:01Z</time>
      </trkpt>
      <trkpt lat="43.43132" lon="6.03148">
        <ele>267</ele>
        <time>2013-10-05T13:18:03Z</time>
      </trkpt>
      <trkpt lat="43.4313" lon="6.0317">
        <ele>267</ele>
        <time>2013-10-05T13:18:07Z</time>
      </trkpt>
      <trkpt lat="43.43131" lon="6.03179">
        <ele>267</ele>
        <time>2013-10-05T13:18:09Z</time>
      </trkpt>
      <trkpt lat="43.43131" lon="6.03185">
        <ele>267</ele>
        <time>2013-10-05T13:18:11Z</time>
      </trkpt>
      <trkpt lat="43.4313" lon="6.03197">
        <ele>267.39999389648</ele>
        <time>2013-10-05T13:18:16Z</time>
      </trkpt>
      <trkpt lat="43.4313" lon="6.03199">
        <ele>268.20001220703</ele>
        <time>2013-10-05T13:18:17Z</time>
      </trkpt>
      <trkpt lat="43.4313" lon="6.03201">
        <ele>268.79998779297</ele>
        <time>2013-10-05T13:18:18Z</time>
      </trkpt>
      <trkpt lat="43.4313" lon="6.03202">
        <ele>269.20001220703</ele>
        <time>2013-10-05T13:18:19Z</time>
      </trkpt>
      <trkpt lat="43.4313" lon="6.03205">
        <ele>269.20001220703</ele>
        <time>2013-10-05T13:18:21Z</time>
      </trkpt>
      <trkpt lat="43.43129" lon="6.0321">
        <ele>270</ele>
        <time>2013-10-05T13:18:23Z</time>
      </trkpt>
      <trkpt lat="43.43129" lon="6.03216">
        <ele>271.20001220703</ele>
        <time>2013-10-05T13:18:26Z</time>
      </trkpt>
      <trkpt lat="43.43128" lon="6.03222">
        <ele>271.20001220703</ele>
        <time>2013-10-05T13:18:31Z</time>
      </trkpt>
      <trkpt lat="43.43128" lon="6.03222">
        <ele>271.20001220703</ele>
        <time>2013-10-05T13:18:46Z</time>
      </trkpt>
      <trkpt lat="43.43128" lon="6.03222">
        <ele>271.20001220703</ele>
        <time>2013-10-05T13:19:32Z</time>
      </trkpt>
      <trkpt lat="43.43128" lon="6.03222">
        <ele>271.20001220703</ele>
        <time>2013-10-05T13:19:56Z</time>
      </trkpt>
      <trkpt lat="43.43128" lon="6.03224">
        <ele>271.20001220703</ele>
        <time>2013-10-05T13:20:01Z</time>
      </trkpt>
      <trkpt lat="43.43127" lon="6.03228">
        <ele>271.20001220703</ele>
        <time>2013-10-05T13:20:03Z</time>
      </trkpt>
      <trkpt lat="43.43126" lon="6.03247">
        <ele>271.20001220703</ele>
        <time>2013-10-05T13:20:09Z</time>
      </trkpt>
      <trkpt lat="43.43125" lon="6.03272">
        <ele>271.20001220703</ele>
        <time>2013-10-05T13:20:16Z</time>
      </trkpt>
      <trkpt lat="43.43124" lon="6.03277">
        <ele>271.20001220703</ele>
        <time>2013-10-05T13:20:17Z</time>
      </trkpt>
      <trkpt lat="43.43124" lon="6.03291">
        <ele>271.20001220703</ele>
        <time>2013-10-05T13:20:20Z</time>
      </trkpt>
      <trkpt lat="43.43123" lon="6.03311">
        <ele>271.20001220703</ele>
        <time>2013-10-05T13:20:24Z</time>
      </trkpt>
      <trkpt lat="43.4312" lon="6.03351">
        <ele>271.20001220703</ele>
        <time>2013-10-05T13:20:31Z</time>
      </trkpt>
      <trkpt lat="43.43118" lon="6.03381">
        <ele>271.20001220703</ele>
        <time>2013-10-05T13:20:36Z</time>
      </trkpt>
      <trkpt lat="43.43118" lon="6.03393">
        <ele>271.20001220703</ele>
        <time>2013-10-05T13:20:38Z</time>
      </trkpt>
      <trkpt lat="43.43117" lon="6.03398">
        <ele>270.79998779297</ele>
        <time>2013-10-05T13:20:39Z</time>
      </trkpt>
      <trkpt lat="43.43116" lon="6.0341">
        <ele>270</ele>
        <time>2013-10-05T13:20:41Z</time>
      </trkpt>
      <trkpt lat="43.43116" lon="6.03415">
        <ele>269.60000610352</ele>
        <time>2013-10-05T13:20:42Z</time>
      </trkpt>
      <trkpt lat="43.43115" lon="6.03441">
        <ele>269.20001220703</ele>
        <time>2013-10-05T13:20:48Z</time>
      </trkpt>
      <trkpt lat="43.43113" lon="6.03452">
        <ele>269.20001220703</ele>
        <time>2013-10-05T13:20:51Z</time>
      </trkpt>
      <trkpt lat="43.43111" lon="6.03473">
        <ele>269.20001220703</ele>
        <time>2013-10-05T13:20:57Z</time>
      </trkpt>
      <trkpt lat="43.43109" lon="6.03498">
        <ele>269.20001220703</ele>
        <time>2013-10-05T13:21:03Z</time>
      </trkpt>
      <trkpt lat="43.43108" lon="6.03517">
        <ele>268.60000610352</ele>
        <time>2013-10-05T13:21:07Z</time>
      </trkpt>
      <trkpt lat="43.43107" lon="6.03528">
        <ele>267.79998779297</ele>
        <time>2013-10-05T13:21:09Z</time>
      </trkpt>
      <trkpt lat="43.43107" lon="6.03534">
        <ele>267.20001220703</ele>
        <time>2013-10-05T13:21:10Z</time>
      </trkpt>
      <trkpt lat="43.43108" lon="6.03539">
        <ele>266.79998779297</ele>
        <time>2013-10-05T13:21:11Z</time>
      </trkpt>
      <trkpt lat="43.43107" lon="6.03561">
        <ele>266.79998779297</ele>
        <time>2013-10-05T13:21:15Z</time>
      </trkpt>
      <trkpt lat="43.43108" lon="6.03576">
        <ele>266.39999389648</ele>
        <time>2013-10-05T13:21:18Z</time>
      </trkpt>
      <trkpt lat="43.43108" lon="6.03581">
        <ele>266</ele>
        <time>2013-10-05T13:21:19Z</time>
      </trkpt>
      <trkpt lat="43.43108" lon="6.03586">
        <ele>265.60000610352</ele>
        <time>2013-10-05T13:21:20Z</time>
      </trkpt>
      <trkpt lat="43.43107" lon="6.03589">
        <ele>265.20001220703</ele>
        <time>2013-10-05T13:21:21Z</time>
      </trkpt>
      <trkpt lat="43.43108" lon="6.03591">
        <ele>264.79998779297</ele>
        <time>2013-10-05T13:21:22Z</time>
      </trkpt>
      <trkpt lat="43.43108" lon="6.03591">
        <ele>264.79998779297</ele>
        <time>2013-10-05T13:21:24Z</time>
      </trkpt>
      <trkpt lat="43.43108" lon="6.03591">
        <ele>264.79998779297</ele>
        <time>2013-10-05T13:21:43Z</time>
      </trkpt>
      <trkpt lat="43.43108" lon="6.03591">
        <ele>264.79998779297</ele>
        <time>2013-10-05T13:22:02Z</time>
      </trkpt>
      <trkpt lat="43.43106" lon="6.03593">
        <ele>264.79998779297</ele>
        <time>2013-10-05T13:22:04Z</time>
      </trkpt>
      <trkpt lat="43.43106" lon="6.03598">
        <ele>264.79998779297</ele>
        <time>2013-10-05T13:22:06Z</time>
      </trkpt>
      <trkpt lat="43.43102" lon="6.0362">
        <ele>264.79998779297</ele>
        <time>2013-10-05T13:22:11Z</time>
      </trkpt>
      <trkpt lat="43.43102" lon="6.0363">
        <ele>264.79998779297</ele>
        <time>2013-10-05T13:22:13Z</time>
      </trkpt>
      <trkpt lat="43.43101" lon="6.03639">
        <ele>264.79998779297</ele>
        <time>2013-10-05T13:22:15Z</time>
      </trkpt>
      <trkpt lat="43.43102" lon="6.03643">
        <ele>264.79998779297</ele>
        <time>2013-10-05T13:22:16Z</time>
      </trkpt>
      <trkpt lat="43.43103" lon="6.03658">
        <ele>264.39999389648</ele>
        <time>2013-10-05T13:22:19Z</time>
      </trkpt>
      <trkpt lat="43.43103" lon="6.03662">
        <ele>264</ele>
        <time>2013-10-05T13:22:20Z</time>
      </trkpt>
      <trkpt lat="43.431" lon="6.03674">
        <ele>262.60000610352</ele>
        <time>2013-10-05T13:22:23Z</time>
      </trkpt>
      <trkpt lat="43.43097" lon="6.03696">
        <ele>262.60000610352</ele>
        <time>2013-10-05T13:22:28Z</time>
      </trkpt>
      <trkpt lat="43.43096" lon="6.037">
        <ele>262.60000610352</ele>
        <time>2013-10-05T13:22:29Z</time>
      </trkpt>
      <trkpt lat="43.43096" lon="6.03723">
        <ele>262.60000610352</ele>
        <time>2013-10-05T13:22:35Z</time>
      </trkpt>
      <trkpt lat="43.43105" lon="6.03725">
        <ele>262.60000610352</ele>
        <time>2013-10-05T13:22:39Z</time>
      </trkpt>
      <trkpt lat="43.43112" lon="6.03735">
        <ele>262.60000610352</ele>
        <time>2013-10-05T13:22:44Z</time>
      </trkpt>
      <trkpt lat="43.43116" lon="6.03746">
        <ele>262.20001220703</ele>
        <time>2013-10-05T13:22:49Z</time>
      </trkpt>
      <trkpt lat="43.43121" lon="6.03747">
        <ele>261</ele>
        <time>2013-10-05T13:22:52Z</time>
      </trkpt>
      <trkpt lat="43.43126" lon="6.03754">
        <ele>260.60000610352</ele>
        <time>2013-10-05T13:22:55Z</time>
      </trkpt>
      <trkpt lat="43.43124" lon="6.03767">
        <ele>260.60000610352</ele>
        <time>2013-10-05T13:23:00Z</time>
      </trkpt>
      <trkpt lat="43.43127" lon="6.03776">
        <ele>260.60000610352</ele>
        <time>2013-10-05T13:23:04Z</time>
      </trkpt>
      <trkpt lat="43.43131" lon="6.03787">
        <ele>260.60000610352</ele>
        <time>2013-10-05T13:23:08Z</time>
      </trkpt>
      <trkpt lat="43.43134" lon="6.03798">
        <ele>260.60000610352</ele>
        <time>2013-10-05T13:23:13Z</time>
      </trkpt>
      <trkpt lat="43.43134" lon="6.03812">
        <ele>260.60000610352</ele>
        <time>2013-10-05T13:23:18Z</time>
      </trkpt>
      <trkpt lat="43.43137" lon="6.03839">
        <ele>260.20001220703</ele>
        <time>2013-10-05T13:23:26Z</time>
      </trkpt>
      <trkpt lat="43.43139" lon="6.03849">
        <ele>258.60000610352</ele>
        <time>2013-10-05T13:23:29Z</time>
      </trkpt>
      <trkpt lat="43.43141" lon="6.03872">
        <ele>258.60000610352</ele>
        <time>2013-10-05T13:23:35Z</time>
      </trkpt>
      <trkpt lat="43.4314" lon="6.03894">
        <ele>258.60000610352</ele>
        <time>2013-10-05T13:23:41Z</time>
      </trkpt>
      <trkpt lat="43.43138" lon="6.03899">
        <ele>258</ele>
        <time>2013-10-05T13:23:43Z</time>
      </trkpt>
      <trkpt lat="43.43138" lon="6.03901">
        <ele>257.60000610352</ele>
        <time>2013-10-05T13:23:44Z</time>
      </trkpt>
      <trkpt lat="43.4314" lon="6.03911">
        <ele>256.39999389648</ele>
        <time>2013-10-05T13:23:47Z</time>
      </trkpt>
      <trkpt lat="43.43139" lon="6.03922">
        <ele>256.39999389648</ele>
        <time>2013-10-05T13:23:50Z</time>
      </trkpt>
      <trkpt lat="43.43139" lon="6.03925">
        <ele>256.39999389648</ele>
        <time>2013-10-05T13:23:51Z</time>
      </trkpt>
      <trkpt lat="43.43134" lon="6.03935">
        <ele>256.39999389648</ele>
        <time>2013-10-05T13:23:55Z</time>
      </trkpt>
      <trkpt lat="43.43124" lon="6.03955">
        <ele>256.39999389648</ele>
        <time>2013-10-05T13:24:02Z</time>
      </trkpt>
      <trkpt lat="43.43116" lon="6.03971">
        <ele>256.39999389648</ele>
        <time>2013-10-05T13:24:08Z</time>
      </trkpt>
      <trkpt lat="43.43107" lon="6.03984">
        <ele>254.80000305176</ele>
        <time>2013-10-05T13:24:13Z</time>
      </trkpt>
      <trkpt lat="43.43105" lon="6.03987">
        <ele>254.19999694824</ele>
        <time>2013-10-05T13:24:14Z</time>
      </trkpt>
      <trkpt lat="43.43103" lon="6.03995">
        <ele>254.19999694824</ele>
        <time>2013-10-05T13:24:17Z</time>
      </trkpt>
      <trkpt lat="43.43095" lon="6.04008">
        <ele>254.19999694824</ele>
        <time>2013-10-05T13:24:22Z</time>
      </trkpt>
      <trkpt lat="43.43084" lon="6.04018">
        <ele>254.19999694824</ele>
        <time>2013-10-05T13:24:27Z</time>
      </trkpt>
      <trkpt lat="43.4308" lon="6.04025">
        <ele>254.19999694824</ele>
        <time>2013-10-05T13:24:32Z</time>
      </trkpt>
      <trkpt lat="43.4308" lon="6.04024">
        <ele>254.19999694824</ele>
        <time>2013-10-05T13:24:37Z</time>
      </trkpt>
      <trkpt lat="43.4308" lon="6.04024">
        <ele>254.19999694824</ele>
        <time>2013-10-05T13:24:55Z</time>
      </trkpt>
      <trkpt lat="43.4308" lon="6.04024">
        <ele>254.19999694824</ele>
        <time>2013-10-05T13:25:08Z</time>
      </trkpt>
      <trkpt lat="43.43079" lon="6.04027">
        <ele>254.19999694824</ele>
        <time>2013-10-05T13:25:18Z</time>
      </trkpt>
      <trkpt lat="43.43079" lon="6.04042">
        <ele>254.19999694824</ele>
        <time>2013-10-05T13:25:23Z</time>
      </trkpt>
      <trkpt lat="43.43079" lon="6.04049">
        <ele>254.19999694824</ele>
        <time>2013-10-05T13:25:25Z</time>
      </trkpt>
      <trkpt lat="43.43082" lon="6.04057">
        <ele>254.19999694824</ele>
        <time>2013-10-05T13:25:27Z</time>
      </trkpt>
      <trkpt lat="43.43087" lon="6.04058">
        <ele>254.19999694824</ele>
        <time>2013-10-05T13:25:29Z</time>
      </trkpt>
      <trkpt lat="43.43098" lon="6.04061">
        <ele>254.19999694824</ele>
        <time>2013-10-05T13:25:33Z</time>
      </trkpt>
      <trkpt lat="43.43103" lon="6.04062">
        <ele>254.19999694824</ele>
        <time>2013-10-05T13:25:35Z</time>
      </trkpt>
      <trkpt lat="43.43106" lon="6.04063">
        <ele>254.19999694824</ele>
        <time>2013-10-05T13:25:37Z</time>
      </trkpt>
      <trkpt lat="43.43111" lon="6.04065">
        <ele>254.19999694824</ele>
        <time>2013-10-05T13:25:40Z</time>
      </trkpt>
      <trkpt lat="43.43117" lon="6.04065">
        <ele>254.60000610352</ele>
        <time>2013-10-05T13:25:44Z</time>
      </trkpt>
      <trkpt lat="43.43119" lon="6.04067">
        <ele>255.60000610352</ele>
        <time>2013-10-05T13:25:46Z</time>
      </trkpt>
      <trkpt lat="43.4312" lon="6.04067">
        <ele>256</ele>
        <time>2013-10-05T13:25:47Z</time>
      </trkpt>
      <trkpt lat="43.43124" lon="6.04066">
        <ele>256.39999389648</ele>
        <time>2013-10-05T13:25:50Z</time>
      </trkpt>
      <trkpt lat="43.43128" lon="6.04064">
        <ele>257.20001220703</ele>
        <time>2013-10-05T13:25:53Z</time>
      </trkpt>
      <trkpt lat="43.43129" lon="6.04064">
        <ele>257.60000610352</ele>
        <time>2013-10-05T13:25:54Z</time>
      </trkpt>
      <trkpt lat="43.4313" lon="6.04063">
        <ele>258.20001220703</ele>
        <time>2013-10-05T13:25:55Z</time>
      </trkpt>
      <trkpt lat="43.43132" lon="6.04062">
        <ele>258.60000610352</ele>
        <time>2013-10-05T13:25:56Z</time>
      </trkpt>
      <trkpt lat="43.43134" lon="6.0406">
        <ele>258.60000610352</ele>
        <time>2013-10-05T13:25:59Z</time>
      </trkpt>
      <trkpt lat="43.43134" lon="6.04059">
        <ele>258.60000610352</ele>
        <time>2013-10-05T13:26:03Z</time>
      </trkpt>
      <trkpt lat="43.43134" lon="6.04059">
        <ele>258.60000610352</ele>
        <time>2013-10-05T13:26:27Z</time>
      </trkpt>
      <trkpt lat="43.43134" lon="6.04059">
        <ele>258.60000610352</ele>
        <time>2013-10-05T13:26:39Z</time>
      </trkpt>
      <trkpt lat="43.43135" lon="6.04059">
        <ele>258.60000610352</ele>
        <time>2013-10-05T13:26:42Z</time>
      </trkpt>
      <trkpt lat="43.43135" lon="6.04059">
        <ele>258.60000610352</ele>
        <time>2013-10-05T13:27:00Z</time>
      </trkpt>
      <trkpt lat="43.43135" lon="6.04059">
        <ele>258.60000610352</ele>
        <time>2013-10-05T13:27:23Z</time>
      </trkpt>
      <trkpt lat="43.43135" lon="6.04059">
        <ele>258.60000610352</ele>
        <time>2013-10-05T13:27:38Z</time>
      </trkpt>
      <trkpt lat="43.43137" lon="6.04059">
        <ele>258.60000610352</ele>
        <time>2013-10-05T13:27:41Z</time>
      </trkpt>
      <trkpt lat="43.43138" lon="6.04058">
        <ele>258.60000610352</ele>
        <time>2013-10-05T13:27:42Z</time>
      </trkpt>
      <trkpt lat="43.43146" lon="6.04041">
        <ele>258.60000610352</ele>
        <time>2013-10-05T13:27:50Z</time>
      </trkpt>
      <trkpt lat="43.43153" lon="6.04014">
        <ele>258.60000610352</ele>
        <time>2013-10-05T13:27:58Z</time>
      </trkpt>
      <trkpt lat="43.43158" lon="6.03993">
        <ele>258.60000610352</ele>
        <time>2013-10-05T13:28:03Z</time>
      </trkpt>
      <trkpt lat="43.43166" lon="6.03971">
        <ele>258.60000610352</ele>
        <time>2013-10-05T13:28:09Z</time>
      </trkpt>
      <trkpt lat="43.43171" lon="6.03967">
        <ele>258.60000610352</ele>
        <time>2013-10-05T13:28:11Z</time>
      </trkpt>
      <trkpt lat="43.43177" lon="6.03967">
        <ele>258.60000610352</ele>
        <time>2013-10-05T13:28:13Z</time>
      </trkpt>
      <trkpt lat="43.43185" lon="6.03967">
        <ele>258.60000610352</ele>
        <time>2013-10-05T13:28:17Z</time>
      </trkpt>
      <trkpt lat="43.43187" lon="6.03968">
        <ele>258.60000610352</ele>
        <time>2013-10-05T13:28:18Z</time>
      </trkpt>
      <trkpt lat="43.43188" lon="6.03969">
        <ele>258.60000610352</ele>
        <time>2013-10-05T13:28:19Z</time>
      </trkpt>
      <trkpt lat="43.43193" lon="6.03969">
        <ele>258.60000610352</ele>
        <time>2013-10-05T13:28:21Z</time>
      </trkpt>
      <trkpt lat="43.43194" lon="6.0397">
        <ele>258.60000610352</ele>
        <time>2013-10-05T13:28:22Z</time>
      </trkpt>
      <trkpt lat="43.43196" lon="6.0397">
        <ele>259</ele>
        <time>2013-10-05T13:28:23Z</time>
      </trkpt>
      <trkpt lat="43.43201" lon="6.03972">
        <ele>260.39999389648</ele>
        <time>2013-10-05T13:28:25Z</time>
      </trkpt>
      <trkpt lat="43.43203" lon="6.03972">
        <ele>260.79998779297</ele>
        <time>2013-10-05T13:28:26Z</time>
      </trkpt>
      <trkpt lat="43.43209" lon="6.03972">
        <ele>260.79998779297</ele>
        <time>2013-10-05T13:28:29Z</time>
      </trkpt>
      <trkpt lat="43.43213" lon="6.03972">
        <ele>260.79998779297</ele>
        <time>2013-10-05T13:28:35Z</time>
      </trkpt>
      <trkpt lat="43.43213" lon="6.03972">
        <ele>260.79998779297</ele>
        <time>2013-10-05T13:29:03Z</time>
      </trkpt>
      <trkpt lat="43.43213" lon="6.03972">
        <ele>260.79998779297</ele>
        <time>2013-10-05T13:29:24Z</time>
      </trkpt>
      <trkpt lat="43.43213" lon="6.03972">
        <ele>260.79998779297</ele>
        <time>2013-10-05T13:29:38Z</time>
      </trkpt>
      <trkpt lat="43.43214" lon="6.03972">
        <ele>260.79998779297</ele>
        <time>2013-10-05T13:29:42Z</time>
      </trkpt>
      <trkpt lat="43.43218" lon="6.0397">
        <ele>260.79998779297</ele>
        <time>2013-10-05T13:29:44Z</time>
      </trkpt>
      <trkpt lat="43.43227" lon="6.03974">
        <ele>260.79998779297</ele>
        <time>2013-10-05T13:29:48Z</time>
      </trkpt>
      <trkpt lat="43.43237" lon="6.03981">
        <ele>260.79998779297</ele>
        <time>2013-10-05T13:29:53Z</time>
      </trkpt>
      <trkpt lat="43.43244" lon="6.03986">
        <ele>260.39999389648</ele>
        <time>2013-10-05T13:29:56Z</time>
      </trkpt>
      <trkpt lat="43.43253" lon="6.03986">
        <ele>258.60000610352</ele>
        <time>2013-10-05T13:30:00Z</time>
      </trkpt>
      <trkpt lat="43.43256" lon="6.03986">
        <ele>258.20001220703</ele>
        <time>2013-10-05T13:30:01Z</time>
      </trkpt>
      <trkpt lat="43.43263" lon="6.03992">
        <ele>255.60000610352</ele>
        <time>2013-10-05T13:30:05Z</time>
      </trkpt>
      <trkpt lat="43.43265" lon="6.03993">
        <ele>255</ele>
        <time>2013-10-05T13:30:06Z</time>
      </trkpt>
      <trkpt lat="43.43268" lon="6.03993">
        <ele>254.60000610352</ele>
        <time>2013-10-05T13:30:07Z</time>
      </trkpt>
      <trkpt lat="43.4327" lon="6.03995">
        <ele>254</ele>
        <time>2013-10-05T13:30:08Z</time>
      </trkpt>
      <trkpt lat="43.43274" lon="6.03995">
        <ele>253.60000610352</ele>
        <time>2013-10-05T13:30:09Z</time>
      </trkpt>
      <trkpt lat="43.43277" lon="6.03998">
        <ele>252.80000305176</ele>
        <time>2013-10-05T13:30:11Z</time>
      </trkpt>
      <trkpt lat="43.4328" lon="6.03998">
        <ele>252.39999389648</ele>
        <time>2013-10-05T13:30:12Z</time>
      </trkpt>
      <trkpt lat="43.43288" lon="6.03999">
        <ele>250.80000305176</ele>
        <time>2013-10-05T13:30:15Z</time>
      </trkpt>
      <trkpt lat="43.43289" lon="6.04002">
        <ele>250.19999694824</ele>
        <time>2013-10-05T13:30:16Z</time>
      </trkpt>
      <trkpt lat="43.43288" lon="6.04003">
        <ele>249.60000610352</ele>
        <time>2013-10-05T13:30:17Z</time>
      </trkpt>
      <trkpt lat="43.43288" lon="6.04002">
        <ele>249</ele>
        <time>2013-10-05T13:30:18Z</time>
      </trkpt>
      <trkpt lat="43.43288" lon="6.04002">
        <ele>247.60000610352</ele>
        <time>2013-10-05T13:30:31Z</time>
      </trkpt>
      <trkpt lat="43.43288" lon="6.04002">
        <ele>247.60000610352</ele>
        <time>2013-10-05T13:30:41Z</time>
      </trkpt>
      <trkpt lat="43.43288" lon="6.04002">
        <ele>247.60000610352</ele>
        <time>2013-10-05T13:30:43Z</time>
      </trkpt>
      <trkpt lat="43.43288" lon="6.04002">
        <ele>247.60000610352</ele>
        <time>2013-10-05T13:31:08Z</time>
      </trkpt>
      <trkpt lat="43.43288" lon="6.04002">
        <ele>246.80000305176</ele>
        <time>2013-10-05T13:31:43Z</time>
      </trkpt>
      <trkpt lat="43.43288" lon="6.04003">
        <ele>246.80000305176</ele>
        <time>2013-10-05T13:32:33Z</time>
      </trkpt>
      <trkpt lat="43.43288" lon="6.04003">
        <ele>246.80000305176</ele>
        <time>2013-10-05T13:32:41Z</time>
      </trkpt>
      <trkpt lat="43.43288" lon="6.04006">
        <ele>246.80000305176</ele>
        <time>2013-10-05T13:32:52Z</time>
      </trkpt>
      <trkpt lat="43.43291" lon="6.04016">
        <ele>246.80000305176</ele>
        <time>2013-10-05T13:32:56Z</time>
      </trkpt>
      <trkpt lat="43.43292" lon="6.04019">
        <ele>246.80000305176</ele>
        <time>2013-10-05T13:32:57Z</time>
      </trkpt>
      <trkpt lat="43.43294" lon="6.04037">
        <ele>246.80000305176</ele>
        <time>2013-10-05T13:33:02Z</time>
      </trkpt>
      <trkpt lat="43.43297" lon="6.04051">
        <ele>244.60000610352</ele>
        <time>2013-10-05T13:33:06Z</time>
      </trkpt>
      <trkpt lat="43.43299" lon="6.04057">
        <ele>243.19999694824</ele>
        <time>2013-10-05T13:33:09Z</time>
      </trkpt>
      <trkpt lat="43.43298" lon="6.0406">
        <ele>242.60000610352</ele>
        <time>2013-10-05T13:33:10Z</time>
      </trkpt>
      <trkpt lat="43.43298" lon="6.04064">
        <ele>242.19999694824</ele>
        <time>2013-10-05T13:33:11Z</time>
      </trkpt>
      <trkpt lat="43.43298" lon="6.04069">
        <ele>241.80000305176</ele>
        <time>2013-10-05T13:33:12Z</time>
      </trkpt>
      <trkpt lat="43.43298" lon="6.04073">
        <ele>241.39999389648</ele>
        <time>2013-10-05T13:33:13Z</time>
      </trkpt>
      <trkpt lat="43.43299" lon="6.04078">
        <ele>240.80000305176</ele>
        <time>2013-10-05T13:33:14Z</time>
      </trkpt>
      <trkpt lat="43.43299" lon="6.04083">
        <ele>240.39999389648</ele>
        <time>2013-10-05T13:33:15Z</time>
      </trkpt>
      <trkpt lat="43.433" lon="6.04087">
        <ele>239.80000305176</ele>
        <time>2013-10-05T13:33:16Z</time>
      </trkpt>
      <trkpt lat="43.43301" lon="6.04092">
        <ele>239.19999694824</ele>
        <time>2013-10-05T13:33:17Z</time>
      </trkpt>
      <trkpt lat="43.43301" lon="6.04097">
        <ele>238.80000305176</ele>
        <time>2013-10-05T13:33:18Z</time>
      </trkpt>
      <trkpt lat="43.43302" lon="6.04101">
        <ele>238.19999694824</ele>
        <time>2013-10-05T13:33:19Z</time>
      </trkpt>
      <trkpt lat="43.43302" lon="6.04105">
        <ele>238.19999694824</ele>
        <time>2013-10-05T13:33:22Z</time>
      </trkpt>
      <trkpt lat="43.43302" lon="6.04105">
        <ele>238.19999694824</ele>
        <time>2013-10-05T13:33:30Z</time>
      </trkpt>
      <trkpt lat="43.43302" lon="6.04105">
        <ele>238.19999694824</ele>
        <time>2013-10-05T13:33:42Z</time>
      </trkpt>
      <trkpt lat="43.43303" lon="6.04113">
        <ele>238.19999694824</ele>
        <time>2013-10-05T13:33:47Z</time>
      </trkpt>
      <trkpt lat="43.43306" lon="6.0413">
        <ele>237.80000305176</ele>
        <time>2013-10-05T13:33:52Z</time>
      </trkpt>
      <trkpt lat="43.43306" lon="6.04133">
        <ele>237</ele>
        <time>2013-10-05T13:33:53Z</time>
      </trkpt>
      <trkpt lat="43.43305" lon="6.0414">
        <ele>236</ele>
        <time>2013-10-05T13:33:55Z</time>
      </trkpt>
      <trkpt lat="43.43306" lon="6.04148">
        <ele>236</ele>
        <time>2013-10-05T13:33:57Z</time>
      </trkpt>
      <trkpt lat="43.43306" lon="6.04152">
        <ele>236</ele>
        <time>2013-10-05T13:33:58Z</time>
      </trkpt>
      <trkpt lat="43.43306" lon="6.0417">
        <ele>236</ele>
        <time>2013-10-05T13:34:03Z</time>
      </trkpt>
      <trkpt lat="43.43307" lon="6.04199">
        <ele>235.60000610352</ele>
        <time>2013-10-05T13:34:11Z</time>
      </trkpt>
      <trkpt lat="43.43306" lon="6.04205">
        <ele>234.80000305176</ele>
        <time>2013-10-05T13:34:13Z</time>
      </trkpt>
      <trkpt lat="43.43307" lon="6.04209">
        <ele>234</ele>
        <time>2013-10-05T13:34:15Z</time>
      </trkpt>
      <trkpt lat="43.4331" lon="6.04221">
        <ele>234</ele>
        <time>2013-10-05T13:34:19Z</time>
      </trkpt>
      <trkpt lat="43.43311" lon="6.04224">
        <ele>233.60000610352</ele>
        <time>2013-10-05T13:34:20Z</time>
      </trkpt>
      <trkpt lat="43.43312" lon="6.04229">
        <ele>232.80000305176</ele>
        <time>2013-10-05T13:34:22Z</time>
      </trkpt>
      <trkpt lat="43.43312" lon="6.04235">
        <ele>231.80000305176</ele>
        <time>2013-10-05T13:34:24Z</time>
      </trkpt>
      <trkpt lat="43.43313" lon="6.04238">
        <ele>231.39999389648</ele>
        <time>2013-10-05T13:34:25Z</time>
      </trkpt>
      <trkpt lat="43.43314" lon="6.04242">
        <ele>230.80000305176</ele>
        <time>2013-10-05T13:34:26Z</time>
      </trkpt>
      <trkpt lat="43.43314" lon="6.04262">
        <ele>228.80000305176</ele>
        <time>2013-10-05T13:34:30Z</time>
      </trkpt>
      <trkpt lat="43.43315" lon="6.04265">
        <ele>228.39999389648</ele>
        <time>2013-10-05T13:34:31Z</time>
      </trkpt>
      <trkpt lat="43.43316" lon="6.04268">
        <ele>227.80000305176</ele>
        <time>2013-10-05T13:34:32Z</time>
      </trkpt>
      <trkpt lat="43.43317" lon="6.0427">
        <ele>227.39999389648</ele>
        <time>2013-10-05T13:34:33Z</time>
      </trkpt>
      <trkpt lat="43.43318" lon="6.04275">
        <ele>227.39999389648</ele>
        <time>2013-10-05T13:34:36Z</time>
      </trkpt>
      <trkpt lat="43.43317" lon="6.0428">
        <ele>227.39999389648</ele>
        <time>2013-10-05T13:34:38Z</time>
      </trkpt>
      <trkpt lat="43.43318" lon="6.04285">
        <ele>227.39999389648</ele>
        <time>2013-10-05T13:34:40Z</time>
      </trkpt>
      <trkpt lat="43.43318" lon="6.04286">
        <ele>227.39999389648</ele>
        <time>2013-10-05T13:34:41Z</time>
      </trkpt>
      <trkpt lat="43.43319" lon="6.04293">
        <ele>227.39999389648</ele>
        <time>2013-10-05T13:34:46Z</time>
      </trkpt>
      <trkpt lat="43.4332" lon="6.04315">
        <ele>227.39999389648</ele>
        <time>2013-10-05T13:34:51Z</time>
      </trkpt>
      <trkpt lat="43.43321" lon="6.04337">
        <ele>227.39999389648</ele>
        <time>2013-10-05T13:34:56Z</time>
      </trkpt>
      <trkpt lat="43.43324" lon="6.04347">
        <ele>227.39999389648</ele>
        <time>2013-10-05T13:34:59Z</time>
      </trkpt>
      <trkpt lat="43.43324" lon="6.04352">
        <ele>227.39999389648</ele>
        <time>2013-10-05T13:35:00Z</time>
      </trkpt>
      <trkpt lat="43.43326" lon="6.04366">
        <ele>226.39999389648</ele>
        <time>2013-10-05T13:35:04Z</time>
      </trkpt>
      <trkpt lat="43.43326" lon="6.0437">
        <ele>225.80000305176</ele>
        <time>2013-10-05T13:35:05Z</time>
      </trkpt>
      <trkpt lat="43.43326" lon="6.04375">
        <ele>225.39999389648</ele>
        <time>2013-10-05T13:35:06Z</time>
      </trkpt>
      <trkpt lat="43.43327" lon="6.0438">
        <ele>224.19999694824</ele>
        <time>2013-10-05T13:35:07Z</time>
      </trkpt>
      <trkpt lat="43.43327" lon="6.04384">
        <ele>223.60000610352</ele>
        <time>2013-10-05T13:35:08Z</time>
      </trkpt>
      <trkpt lat="43.43327" lon="6.04398">
        <ele>222.60000610352</ele>
        <time>2013-10-05T13:35:12Z</time>
      </trkpt>
      <trkpt lat="43.43327" lon="6.04416">
        <ele>222.60000610352</ele>
        <time>2013-10-05T13:35:16Z</time>
      </trkpt>
      <trkpt lat="43.43329" lon="6.04451">
        <ele>220.60000610352</ele>
        <time>2013-10-05T13:35:22Z</time>
      </trkpt>
      <trkpt lat="43.43331" lon="6.04459">
        <ele>220.60000610352</ele>
        <time>2013-10-05T13:35:24Z</time>
      </trkpt>
      <trkpt lat="43.43332" lon="6.04481">
        <ele>220.60000610352</ele>
        <time>2013-10-05T13:35:29Z</time>
      </trkpt>
      <trkpt lat="43.43332" lon="6.04503">
        <ele>220.60000610352</ele>
        <time>2013-10-05T13:35:34Z</time>
      </trkpt>
      <trkpt lat="43.4333" lon="6.04517">
        <ele>220.60000610352</ele>
        <time>2013-10-05T13:35:37Z</time>
      </trkpt>
      <trkpt lat="43.43332" lon="6.04529">
        <ele>220.60000610352</ele>
        <time>2013-10-05T13:35:39Z</time>
      </trkpt>
      <trkpt lat="43.43336" lon="6.04541">
        <ele>219.60000610352</ele>
        <time>2013-10-05T13:35:42Z</time>
      </trkpt>
      <trkpt lat="43.4334" lon="6.04549">
        <ele>218.80000305176</ele>
        <time>2013-10-05T13:35:44Z</time>
      </trkpt>
      <trkpt lat="43.43341" lon="6.04555">
        <ele>218.39999389648</ele>
        <time>2013-10-05T13:35:45Z</time>
      </trkpt>
      <trkpt lat="43.43342" lon="6.04568">
        <ele>217.39999389648</ele>
        <time>2013-10-05T13:35:47Z</time>
      </trkpt>
      <trkpt lat="43.43342" lon="6.04582">
        <ele>216.39999389648</ele>
        <time>2013-10-05T13:35:49Z</time>
      </trkpt>
      <trkpt lat="43.43342" lon="6.04588">
        <ele>215.60000610352</ele>
        <time>2013-10-05T13:35:50Z</time>
      </trkpt>
      <trkpt lat="43.43347" lon="6.04624">
        <ele>212.39999389648</ele>
        <time>2013-10-05T13:35:56Z</time>
      </trkpt>
      <trkpt lat="43.43349" lon="6.04635">
        <ele>210.60000610352</ele>
        <time>2013-10-05T13:35:59Z</time>
      </trkpt>
      <trkpt lat="43.43348" lon="6.04653">
        <ele>208.39999389648</ele>
        <time>2013-10-05T13:36:03Z</time>
      </trkpt>
      <trkpt lat="43.43349" lon="6.0466">
        <ele>207.80000305176</ele>
        <time>2013-10-05T13:36:04Z</time>
      </trkpt>
      <trkpt lat="43.43351" lon="6.04685">
        <ele>205.19999694824</ele>
        <time>2013-10-05T13:36:08Z</time>
      </trkpt>
      <trkpt lat="43.43351" lon="6.04692">
        <ele>204.60000610352</ele>
        <time>2013-10-05T13:36:09Z</time>
      </trkpt>
      <trkpt lat="43.43353" lon="6.04703">
        <ele>204.19999694824</ele>
        <time>2013-10-05T13:36:11Z</time>
      </trkpt>
      <trkpt lat="43.43354" lon="6.04708">
        <ele>203.80000305176</ele>
        <time>2013-10-05T13:36:12Z</time>
      </trkpt>
      <trkpt lat="43.43353" lon="6.04718">
        <ele>203</ele>
        <time>2013-10-05T13:36:14Z</time>
      </trkpt>
      <trkpt lat="43.43354" lon="6.0473">
        <ele>202.60000610352</ele>
        <time>2013-10-05T13:36:17Z</time>
      </trkpt>
      <trkpt lat="43.43354" lon="6.04747">
        <ele>202.60000610352</ele>
        <time>2013-10-05T13:36:22Z</time>
      </trkpt>
      <trkpt lat="43.43355" lon="6.04754">
        <ele>202.60000610352</ele>
        <time>2013-10-05T13:36:24Z</time>
      </trkpt>
      <trkpt lat="43.43356" lon="6.04763">
        <ele>202.60000610352</ele>
        <time>2013-10-05T13:36:27Z</time>
      </trkpt>
      <trkpt lat="43.43355" lon="6.04768">
        <ele>202.60000610352</ele>
        <time>2013-10-05T13:36:29Z</time>
      </trkpt>
      <trkpt lat="43.43355" lon="6.04773">
        <ele>202.60000610352</ele>
        <time>2013-10-05T13:36:31Z</time>
      </trkpt>
      <trkpt lat="43.43356" lon="6.04775">
        <ele>202.60000610352</ele>
        <time>2013-10-05T13:36:33Z</time>
      </trkpt>
      <trkpt lat="43.43356" lon="6.04775">
        <ele>202.60000610352</ele>
        <time>2013-10-05T13:36:40Z</time>
      </trkpt>
      <trkpt lat="43.43356" lon="6.04775">
        <ele>202.60000610352</ele>
        <time>2013-10-05T13:36:42Z</time>
      </trkpt>
      <trkpt lat="43.43356" lon="6.04775">
        <ele>202.60000610352</ele>
        <time>2013-10-05T13:36:44Z</time>
      </trkpt>
      <trkpt lat="43.43356" lon="6.04775">
        <ele>202.60000610352</ele>
        <time>2013-10-05T13:36:49Z</time>
      </trkpt>
      <trkpt lat="43.43356" lon="6.04777">
        <ele>202.60000610352</ele>
        <time>2013-10-05T13:36:55Z</time>
      </trkpt>
      <trkpt lat="43.43357" lon="6.04778">
        <ele>202.60000610352</ele>
        <time>2013-10-05T13:37:00Z</time>
      </trkpt>
      <trkpt lat="43.43357" lon="6.04779">
        <ele>202.60000610352</ele>
        <time>2013-10-05T13:37:06Z</time>
      </trkpt>
      <trkpt lat="43.43357" lon="6.0478">
        <ele>202.60000610352</ele>
        <time>2013-10-05T13:37:08Z</time>
      </trkpt>
      <trkpt lat="43.43359" lon="6.04787">
        <ele>202.60000610352</ele>
        <time>2013-10-05T13:37:10Z</time>
      </trkpt>
      <trkpt lat="43.4336" lon="6.04792">
        <ele>202.19999694824</ele>
        <time>2013-10-05T13:37:11Z</time>
      </trkpt>
      <trkpt lat="43.43361" lon="6.04798">
        <ele>201.80000305176</ele>
        <time>2013-10-05T13:37:12Z</time>
      </trkpt>
      <trkpt lat="43.43361" lon="6.04804">
        <ele>201.39999389648</ele>
        <time>2013-10-05T13:37:13Z</time>
      </trkpt>
      <trkpt lat="43.43362" lon="6.0481">
        <ele>201</ele>
        <time>2013-10-05T13:37:14Z</time>
      </trkpt>
      <trkpt lat="43.43364" lon="6.04816">
        <ele>200.39999389648</ele>
        <time>2013-10-05T13:37:15Z</time>
      </trkpt>
      <trkpt lat="43.43364" lon="6.04822">
        <ele>199.80000305176</ele>
        <time>2013-10-05T13:37:16Z</time>
      </trkpt>
      <trkpt lat="43.43363" lon="6.04828">
        <ele>199.39999389648</ele>
        <time>2013-10-05T13:37:17Z</time>
      </trkpt>
      <trkpt lat="43.43364" lon="6.04834">
        <ele>198.80000305176</ele>
        <time>2013-10-05T13:37:18Z</time>
      </trkpt>
      <trkpt lat="43.43364" lon="6.04841">
        <ele>198.19999694824</ele>
        <time>2013-10-05T13:37:19Z</time>
      </trkpt>
      <trkpt lat="43.43365" lon="6.04854">
        <ele>198.19999694824</ele>
        <time>2013-10-05T13:37:21Z</time>
      </trkpt>
      <trkpt lat="43.43362" lon="6.04864">
        <ele>197.39999389648</ele>
        <time>2013-10-05T13:37:23Z</time>
      </trkpt>
      <trkpt lat="43.43362" lon="6.04868">
        <ele>197</ele>
        <time>2013-10-05T13:37:24Z</time>
      </trkpt>
      <trkpt lat="43.43362" lon="6.04871">
        <ele>196.60000610352</ele>
        <time>2013-10-05T13:37:25Z</time>
      </trkpt>
      <trkpt lat="43.43362" lon="6.04873">
        <ele>196</ele>
        <time>2013-10-05T13:37:26Z</time>
      </trkpt>
      <trkpt lat="43.43365" lon="6.04886">
        <ele>196</ele>
        <time>2013-10-05T13:37:30Z</time>
      </trkpt>
      <trkpt lat="43.43368" lon="6.04904">
        <ele>196</ele>
        <time>2013-10-05T13:37:34Z</time>
      </trkpt>
      <trkpt lat="43.43372" lon="6.04922">
        <ele>196</ele>
        <time>2013-10-05T13:37:38Z</time>
      </trkpt>
      <trkpt lat="43.43373" lon="6.04932">
        <ele>196</ele>
        <time>2013-10-05T13:37:40Z</time>
      </trkpt>
      <trkpt lat="43.43374" lon="6.04945">
        <ele>196</ele>
        <time>2013-10-05T13:37:43Z</time>
      </trkpt>
      <trkpt lat="43.43378" lon="6.04972">
        <ele>196</ele>
        <time>2013-10-05T13:37:50Z</time>
      </trkpt>
      <trkpt lat="43.43379" lon="6.04977">
        <ele>196</ele>
        <time>2013-10-05T13:37:51Z</time>
      </trkpt>
      <trkpt lat="43.4338" lon="6.04984">
        <ele>196</ele>
        <time>2013-10-05T13:37:53Z</time>
      </trkpt>
      <trkpt lat="43.4338" lon="6.05012">
        <ele>196</ele>
        <time>2013-10-05T13:38:00Z</time>
      </trkpt>
      <trkpt lat="43.43382" lon="6.05026">
        <ele>196</ele>
        <time>2013-10-05T13:38:04Z</time>
      </trkpt>
      <trkpt lat="43.43383" lon="6.05037">
        <ele>196</ele>
        <time>2013-10-05T13:38:06Z</time>
      </trkpt>
      <trkpt lat="43.43384" lon="6.05047">
        <ele>196</ele>
        <time>2013-10-05T13:38:09Z</time>
      </trkpt>
      <trkpt lat="43.43384" lon="6.05064">
        <ele>196</ele>
        <time>2013-10-05T13:38:16Z</time>
      </trkpt>
      <trkpt lat="43.43385" lon="6.0507">
        <ele>196</ele>
        <time>2013-10-05T13:38:19Z</time>
      </trkpt>
      <trkpt lat="43.43386" lon="6.05076">
        <ele>196</ele>
        <time>2013-10-05T13:38:22Z</time>
      </trkpt>
      <trkpt lat="43.43389" lon="6.05083">
        <ele>196</ele>
        <time>2013-10-05T13:38:25Z</time>
      </trkpt>
      <trkpt lat="43.4339" lon="6.05088">
        <ele>196</ele>
        <time>2013-10-05T13:38:27Z</time>
      </trkpt>
      <trkpt lat="43.4339" lon="6.05091">
        <ele>196</ele>
        <time>2013-10-05T13:38:28Z</time>
      </trkpt>
      <trkpt lat="43.43392" lon="6.05106">
        <ele>196</ele>
        <time>2013-10-05T13:38:34Z</time>
      </trkpt>
      <trkpt lat="43.43393" lon="6.05108">
        <ele>196</ele>
        <time>2013-10-05T13:38:38Z</time>
      </trkpt>
      <trkpt lat="43.43393" lon="6.05108">
        <ele>196</ele>
        <time>2013-10-05T13:39:01Z</time>
      </trkpt>
      <trkpt lat="43.43393" lon="6.05108">
        <ele>196</ele>
        <time>2013-10-05T13:40:00Z</time>
      </trkpt>
      <trkpt lat="43.43393" lon="6.05108">
        <ele>196</ele>
        <time>2013-10-05T13:40:19Z</time>
      </trkpt>
      <trkpt lat="43.43393" lon="6.05107">
        <ele>196</ele>
        <time>2013-10-05T13:40:40Z</time>
      </trkpt>
      <trkpt lat="43.43393" lon="6.05107">
        <ele>196</ele>
        <time>2013-10-05T13:40:53Z</time>
      </trkpt>
      <trkpt lat="43.43393" lon="6.05108">
        <ele>196</ele>
        <time>2013-10-05T13:40:56Z</time>
      </trkpt>
      <trkpt lat="43.43392" lon="6.05113">
        <ele>196</ele>
        <time>2013-10-05T13:40:59Z</time>
      </trkpt>
      <trkpt lat="43.43392" lon="6.05131">
        <ele>196</ele>
        <time>2013-10-05T13:41:05Z</time>
      </trkpt>
      <trkpt lat="43.43393" lon="6.05148">
        <ele>196</ele>
        <time>2013-10-05T13:41:09Z</time>
      </trkpt>
      <trkpt lat="43.43394" lon="6.05158">
        <ele>196</ele>
        <time>2013-10-05T13:41:13Z</time>
      </trkpt>
      <trkpt lat="43.43393" lon="6.05162">
        <ele>195.60000610352</ele>
        <time>2013-10-05T13:41:15Z</time>
      </trkpt>
      <trkpt lat="43.43393" lon="6.05165">
        <ele>195.19999694824</ele>
        <time>2013-10-05T13:41:16Z</time>
      </trkpt>
      <trkpt lat="43.43393" lon="6.05168">
        <ele>194.39999389648</ele>
        <time>2013-10-05T13:41:17Z</time>
      </trkpt>
      <trkpt lat="43.43393" lon="6.05168">
        <ele>194</ele>
        <time>2013-10-05T13:41:18Z</time>
      </trkpt>
      <trkpt lat="43.43394" lon="6.05169">
        <ele>194</ele>
        <time>2013-10-05T13:41:25Z</time>
      </trkpt>
      <trkpt lat="43.43394" lon="6.05169">
        <ele>194</ele>
        <time>2013-10-05T13:41:37Z</time>
      </trkpt>
      <trkpt lat="43.43393" lon="6.05169">
        <ele>194</ele>
        <time>2013-10-05T13:41:47Z</time>
      </trkpt>
      <trkpt lat="43.43393" lon="6.05173">
        <ele>194</ele>
        <time>2013-10-05T13:41:49Z</time>
      </trkpt>
      <trkpt lat="43.43394" lon="6.05186">
        <ele>194</ele>
        <time>2013-10-05T13:41:53Z</time>
      </trkpt>
      <trkpt lat="43.43397" lon="6.05196">
        <ele>193.60000610352</ele>
        <time>2013-10-05T13:41:56Z</time>
      </trkpt>
      <trkpt lat="43.43398" lon="6.052">
        <ele>193.19999694824</ele>
        <time>2013-10-05T13:41:57Z</time>
      </trkpt>
      <trkpt lat="43.43399" lon="6.05204">
        <ele>192.80000305176</ele>
        <time>2013-10-05T13:41:58Z</time>
      </trkpt>
      <trkpt lat="43.434" lon="6.05208">
        <ele>192.39999389648</ele>
        <time>2013-10-05T13:41:59Z</time>
      </trkpt>
      <trkpt lat="43.434" lon="6.05213">
        <ele>192</ele>
        <time>2013-10-05T13:42:00Z</time>
      </trkpt>
      <trkpt lat="43.434" lon="6.0522">
        <ele>192</ele>
        <time>2013-10-05T13:42:02Z</time>
      </trkpt>
      <trkpt lat="43.43401" lon="6.05222">
        <ele>192</ele>
        <time>2013-10-05T13:42:03Z</time>
      </trkpt>
      <trkpt lat="43.43402" lon="6.05228">
        <ele>191.39999389648</ele>
        <time>2013-10-05T13:42:05Z</time>
      </trkpt>
      <trkpt lat="43.43403" lon="6.05231">
        <ele>190.60000610352</ele>
        <time>2013-10-05T13:42:06Z</time>
      </trkpt>
      <trkpt lat="43.43402" lon="6.05234">
        <ele>190.19999694824</ele>
        <time>2013-10-05T13:42:07Z</time>
      </trkpt>
      <trkpt lat="43.43401" lon="6.05236">
        <ele>189.80000305176</ele>
        <time>2013-10-05T13:42:08Z</time>
      </trkpt>
      <trkpt lat="43.434" lon="6.05238">
        <ele>189.80000305176</ele>
        <time>2013-10-05T13:42:09Z</time>
      </trkpt>
      <trkpt lat="43.434" lon="6.05239">
        <ele>189.80000305176</ele>
        <time>2013-10-05T13:42:11Z</time>
      </trkpt>
      <trkpt lat="43.434" lon="6.05239">
        <ele>189.80000305176</ele>
        <time>2013-10-05T13:42:13Z</time>
      </trkpt>
      <trkpt lat="43.43401" lon="6.05244">
        <ele>189.80000305176</ele>
        <time>2013-10-05T13:42:15Z</time>
      </trkpt>
      <trkpt lat="43.434" lon="6.05253">
        <ele>189.80000305176</ele>
        <time>2013-10-05T13:42:19Z</time>
      </trkpt>
      <trkpt lat="43.43401" lon="6.05267">
        <ele>189.80000305176</ele>
        <time>2013-10-05T13:42:24Z</time>
      </trkpt>
      <trkpt lat="43.43402" lon="6.05282">
        <ele>189.80000305176</ele>
        <time>2013-10-05T13:42:29Z</time>
      </trkpt>
      <trkpt lat="43.43407" lon="6.05301">
        <ele>189.80000305176</ele>
        <time>2013-10-05T13:42:35Z</time>
      </trkpt>
      <trkpt lat="43.43406" lon="6.05309">
        <ele>189</ele>
        <time>2013-10-05T13:42:38Z</time>
      </trkpt>
      <trkpt lat="43.43406" lon="6.05315">
        <ele>188.19999694824</ele>
        <time>2013-10-05T13:42:40Z</time>
      </trkpt>
      <trkpt lat="43.43406" lon="6.05327">
        <ele>187.80000305176</ele>
        <time>2013-10-05T13:42:44Z</time>
      </trkpt>
      <trkpt lat="43.4341" lon="6.05343">
        <ele>187.80000305176</ele>
        <time>2013-10-05T13:42:48Z</time>
      </trkpt>
      <trkpt lat="43.43414" lon="6.05357">
        <ele>187.80000305176</ele>
        <time>2013-10-05T13:42:51Z</time>
      </trkpt>
      <trkpt lat="43.43421" lon="6.05355">
        <ele>187.39999389648</ele>
        <time>2013-10-05T13:42:54Z</time>
      </trkpt>
      <trkpt lat="43.43422" lon="6.05354">
        <ele>186.60000610352</ele>
        <time>2013-10-05T13:42:55Z</time>
      </trkpt>
      <trkpt lat="43.43425" lon="6.05353">
        <ele>186.19999694824</ele>
        <time>2013-10-05T13:42:56Z</time>
      </trkpt>
      <trkpt lat="43.43428" lon="6.05353">
        <ele>185.80000305176</ele>
        <time>2013-10-05T13:42:57Z</time>
      </trkpt>
      <trkpt lat="43.43435" lon="6.05353">
        <ele>185.39999389648</ele>
        <time>2013-10-05T13:42:59Z</time>
      </trkpt>
      <trkpt lat="43.43443" lon="6.05346">
        <ele>184.39999389648</ele>
        <time>2013-10-05T13:43:01Z</time>
      </trkpt>
      <trkpt lat="43.43446" lon="6.05341">
        <ele>184</ele>
        <time>2013-10-05T13:43:02Z</time>
      </trkpt>
      <trkpt lat="43.43454" lon="6.05338">
        <ele>182.80000305176</ele>
        <time>2013-10-05T13:43:04Z</time>
      </trkpt>
      <trkpt lat="43.43459" lon="6.05339">
        <ele>182.19999694824</ele>
        <time>2013-10-05T13:43:05Z</time>
      </trkpt>
      <trkpt lat="43.43463" lon="6.05341">
        <ele>181.80000305176</ele>
        <time>2013-10-05T13:43:06Z</time>
      </trkpt>
      <trkpt lat="43.43468" lon="6.05343">
        <ele>181.19999694824</ele>
        <time>2013-10-05T13:43:07Z</time>
      </trkpt>
      <trkpt lat="43.43473" lon="6.05344">
        <ele>181.19999694824</ele>
        <time>2013-10-05T13:43:08Z</time>
      </trkpt>
      <trkpt lat="43.43477" lon="6.05345">
        <ele>181.19999694824</ele>
        <time>2013-10-05T13:43:09Z</time>
      </trkpt>
      <trkpt lat="43.43487" lon="6.05347">
        <ele>181.19999694824</ele>
        <time>2013-10-05T13:43:11Z</time>
      </trkpt>
      <trkpt lat="43.435" lon="6.05352">
        <ele>180.80000305176</ele>
        <time>2013-10-05T13:43:14Z</time>
      </trkpt>
      <trkpt lat="43.43504" lon="6.05353">
        <ele>180.39999389648</ele>
        <time>2013-10-05T13:43:15Z</time>
      </trkpt>
      <trkpt lat="43.43509" lon="6.05353">
        <ele>180</ele>
        <time>2013-10-05T13:43:16Z</time>
      </trkpt>
      <trkpt lat="43.43515" lon="6.05347">
        <ele>179.19999694824</ele>
        <time>2013-10-05T13:43:18Z</time>
      </trkpt>
      <trkpt lat="43.43524" lon="6.05333">
        <ele>178.60000610352</ele>
        <time>2013-10-05T13:43:21Z</time>
      </trkpt>
      <trkpt lat="43.4353" lon="6.05326">
        <ele>177.80000305176</ele>
        <time>2013-10-05T13:43:23Z</time>
      </trkpt>
      <trkpt lat="43.43533" lon="6.05325">
        <ele>177.39999389648</ele>
        <time>2013-10-05T13:43:24Z</time>
      </trkpt>
      <trkpt lat="43.43537" lon="6.05326">
        <ele>176.80000305176</ele>
        <time>2013-10-05T13:43:26Z</time>
      </trkpt>
      <trkpt lat="43.43546" lon="6.0533">
        <ele>176.80000305176</ele>
        <time>2013-10-05T13:43:30Z</time>
      </trkpt>
      <trkpt lat="43.43558" lon="6.05335">
        <ele>176.80000305176</ele>
        <time>2013-10-05T13:43:35Z</time>
      </trkpt>
      <trkpt lat="43.43567" lon="6.05342">
        <ele>176.80000305176</ele>
        <time>2013-10-05T13:43:40Z</time>
      </trkpt>
      <trkpt lat="43.43568" lon="6.05343">
        <ele>177.39999389648</ele>
        <time>2013-10-05T13:43:41Z</time>
      </trkpt>
      <trkpt lat="43.43568" lon="6.05345">
        <ele>177.80000305176</ele>
        <time>2013-10-05T13:43:42Z</time>
      </trkpt>
      <trkpt lat="43.4357" lon="6.05353">
        <ele>179</ele>
        <time>2013-10-05T13:43:45Z</time>
      </trkpt>
      <trkpt lat="43.43571" lon="6.05366">
        <ele>179</ele>
        <time>2013-10-05T13:43:49Z</time>
      </trkpt>
      <trkpt lat="43.4357" lon="6.0538">
        <ele>179</ele>
        <time>2013-10-05T13:43:53Z</time>
      </trkpt>
      <trkpt lat="43.43569" lon="6.05386">
        <ele>179</ele>
        <time>2013-10-05T13:43:55Z</time>
      </trkpt>
      <trkpt lat="43.43566" lon="6.05403">
        <ele>180</ele>
        <time>2013-10-05T13:44:00Z</time>
      </trkpt>
      <trkpt lat="43.43562" lon="6.05437">
        <ele>181.19999694824</ele>
        <time>2013-10-05T13:44:10Z</time>
      </trkpt>
      <trkpt lat="43.43558" lon="6.05462">
        <ele>181.19999694824</ele>
        <time>2013-10-05T13:44:17Z</time>
      </trkpt>
      <trkpt lat="43.43557" lon="6.05468">
        <ele>181.60000610352</ele>
        <time>2013-10-05T13:44:19Z</time>
      </trkpt>
      <trkpt lat="43.43557" lon="6.05481">
        <ele>183.19999694824</ele>
        <time>2013-10-05T13:44:23Z</time>
      </trkpt>
      <trkpt lat="43.43557" lon="6.05504">
        <ele>183.19999694824</ele>
        <time>2013-10-05T13:44:30Z</time>
      </trkpt>
      <trkpt lat="43.43562" lon="6.05532">
        <ele>183.19999694824</ele>
        <time>2013-10-05T13:44:38Z</time>
      </trkpt>
      <trkpt lat="43.43566" lon="6.0555">
        <ele>183.19999694824</ele>
        <time>2013-10-05T13:44:43Z</time>
      </trkpt>
      <trkpt lat="43.43573" lon="6.05568">
        <ele>183.19999694824</ele>
        <time>2013-10-05T13:44:48Z</time>
      </trkpt>
      <trkpt lat="43.43576" lon="6.05575">
        <ele>183.19999694824</ele>
        <time>2013-10-05T13:44:50Z</time>
      </trkpt>
      <trkpt lat="43.43583" lon="6.05591">
        <ele>183.19999694824</ele>
        <time>2013-10-05T13:44:55Z</time>
      </trkpt>
      <trkpt lat="43.43587" lon="6.05603">
        <ele>183.19999694824</ele>
        <time>2013-10-05T13:44:58Z</time>
      </trkpt>
      <trkpt lat="43.43595" lon="6.05621">
        <ele>183.19999694824</ele>
        <time>2013-10-05T13:45:02Z</time>
      </trkpt>
      <trkpt lat="43.43601" lon="6.05635">
        <ele>183.19999694824</ele>
        <time>2013-10-05T13:45:05Z</time>
      </trkpt>
      <trkpt lat="43.43604" lon="6.05638">
        <ele>183.19999694824</ele>
        <time>2013-10-05T13:45:06Z</time>
      </trkpt>
      <trkpt lat="43.43609" lon="6.05639">
        <ele>183.19999694824</ele>
        <time>2013-10-05T13:45:08Z</time>
      </trkpt>
      <trkpt lat="43.43621" lon="6.05642">
        <ele>183.19999694824</ele>
        <time>2013-10-05T13:45:14Z</time>
      </trkpt>
      <trkpt lat="43.43627" lon="6.05643">
        <ele>183.19999694824</ele>
        <time>2013-10-05T13:45:17Z</time>
      </trkpt>
      <trkpt lat="43.43628" lon="6.05642">
        <ele>183.19999694824</ele>
        <time>2013-10-05T13:45:18Z</time>
      </trkpt>
      <trkpt lat="43.43638" lon="6.05634">
        <ele>183.19999694824</ele>
        <time>2013-10-05T13:45:24Z</time>
      </trkpt>
      <trkpt lat="43.43643" lon="6.05629">
        <ele>183.60000610352</ele>
        <time>2013-10-05T13:45:27Z</time>
      </trkpt>
      <trkpt lat="43.43649" lon="6.05621">
        <ele>185.39999389648</ele>
        <time>2013-10-05T13:45:31Z</time>
      </trkpt>
      <trkpt lat="43.43653" lon="6.05616">
        <ele>185.80000305176</ele>
        <time>2013-10-05T13:45:34Z</time>
      </trkpt>
      <trkpt lat="43.43657" lon="6.05613">
        <ele>186.60000610352</ele>
        <time>2013-10-05T13:45:36Z</time>
      </trkpt>
      <trkpt lat="43.43659" lon="6.05608">
        <ele>187.39999389648</ele>
        <time>2013-10-05T13:45:38Z</time>
      </trkpt>
      <trkpt lat="43.43668" lon="6.05592">
        <ele>189</ele>
        <time>2013-10-05T13:45:45Z</time>
      </trkpt>
      <trkpt lat="43.43673" lon="6.05575">
        <ele>190</ele>
        <time>2013-10-05T13:45:51Z</time>
      </trkpt>
      <trkpt lat="43.43677" lon="6.05562">
        <ele>191.60000610352</ele>
        <time>2013-10-05T13:45:56Z</time>
      </trkpt>
      <trkpt lat="43.43681" lon="6.05547">
        <ele>191.60000610352</ele>
        <time>2013-10-05T13:46:02Z</time>
      </trkpt>
      <trkpt lat="43.43683" lon="6.05533">
        <ele>193.60000610352</ele>
        <time>2013-10-05T13:46:07Z</time>
      </trkpt>
      <trkpt lat="43.4368" lon="6.05522">
        <ele>195</ele>
        <time>2013-10-05T13:46:12Z</time>
      </trkpt>
      <trkpt lat="43.43679" lon="6.05521">
        <ele>195.39999389648</ele>
        <time>2013-10-05T13:46:13Z</time>
      </trkpt>
      <trkpt lat="43.4366" lon="6.05517">
        <ele>197</ele>
        <time>2013-10-05T13:46:23Z</time>
      </trkpt>
      <trkpt lat="43.43652" lon="6.05513">
        <ele>197.80000305176</ele>
        <time>2013-10-05T13:46:28Z</time>
      </trkpt>
      <trkpt lat="43.43649" lon="6.05511">
        <ele>197.80000305176</ele>
        <time>2013-10-05T13:46:30Z</time>
      </trkpt>
      <trkpt lat="43.43649" lon="6.05507">
        <ele>198.39999389648</ele>
        <time>2013-10-05T13:46:32Z</time>
      </trkpt>
      <trkpt lat="43.43649" lon="6.05504">
        <ele>198.80000305176</ele>
        <time>2013-10-05T13:46:33Z</time>
      </trkpt>
      <trkpt lat="43.43651" lon="6.055">
        <ele>199.60000610352</ele>
        <time>2013-10-05T13:46:35Z</time>
      </trkpt>
      <trkpt lat="43.43653" lon="6.05492">
        <ele>200</ele>
        <time>2013-10-05T13:46:39Z</time>
      </trkpt>
      <trkpt lat="43.43661" lon="6.05464">
        <ele>200</ele>
        <time>2013-10-05T13:46:50Z</time>
      </trkpt>
      <trkpt lat="43.43666" lon="6.05443">
        <ele>200</ele>
        <time>2013-10-05T13:46:57Z</time>
      </trkpt>
      <trkpt lat="43.43669" lon="6.05432">
        <ele>200</ele>
        <time>2013-10-05T13:47:00Z</time>
      </trkpt>
      <trkpt lat="43.43674" lon="6.05422">
        <ele>200</ele>
        <time>2013-10-05T13:47:04Z</time>
      </trkpt>
      <trkpt lat="43.43678" lon="6.05421">
        <ele>200</ele>
        <time>2013-10-05T13:47:05Z</time>
      </trkpt>
      <trkpt lat="43.43685" lon="6.0542">
        <ele>200</ele>
        <time>2013-10-05T13:47:07Z</time>
      </trkpt>
      <trkpt lat="43.43689" lon="6.05421">
        <ele>200</ele>
        <time>2013-10-05T13:47:08Z</time>
      </trkpt>
      <trkpt lat="43.43695" lon="6.05423">
        <ele>200</ele>
        <time>2013-10-05T13:47:09Z</time>
      </trkpt>
      <trkpt lat="43.43705" lon="6.05425">
        <ele>200</ele>
        <time>2013-10-05T13:47:11Z</time>
      </trkpt>
      <trkpt lat="43.43717" lon="6.05424">
        <ele>200</ele>
        <time>2013-10-05T13:47:14Z</time>
      </trkpt>
      <trkpt lat="43.43721" lon="6.05416">
        <ele>199.19999694824</ele>
        <time>2013-10-05T13:47:16Z</time>
      </trkpt>
      <trkpt lat="43.43724" lon="6.05405">
        <ele>197.80000305176</ele>
        <time>2013-10-05T13:47:19Z</time>
      </trkpt>
      <trkpt lat="43.43728" lon="6.05389">
        <ele>197.80000305176</ele>
        <time>2013-10-05T13:47:23Z</time>
      </trkpt>
      <trkpt lat="43.43732" lon="6.05373">
        <ele>197.80000305176</ele>
        <time>2013-10-05T13:47:26Z</time>
      </trkpt>
      <trkpt lat="43.43736" lon="6.05355">
        <ele>197.39999389648</ele>
        <time>2013-10-05T13:47:29Z</time>
      </trkpt>
      <trkpt lat="43.43736" lon="6.05344">
        <ele>196.60000610352</ele>
        <time>2013-10-05T13:47:31Z</time>
      </trkpt>
      <trkpt lat="43.43736" lon="6.0534">
        <ele>196.19999694824</ele>
        <time>2013-10-05T13:47:32Z</time>
      </trkpt>
      <trkpt lat="43.43735" lon="6.05332">
        <ele>195.80000305176</ele>
        <time>2013-10-05T13:47:34Z</time>
      </trkpt>
      <trkpt lat="43.43735" lon="6.05328">
        <ele>195.80000305176</ele>
        <time>2013-10-05T13:47:35Z</time>
      </trkpt>
      <trkpt lat="43.43734" lon="6.05316">
        <ele>196.19999694824</ele>
        <time>2013-10-05T13:47:38Z</time>
      </trkpt>
      <trkpt lat="43.43734" lon="6.05312">
        <ele>196.60000610352</ele>
        <time>2013-10-05T13:47:39Z</time>
      </trkpt>
      <trkpt lat="43.43734" lon="6.05308">
        <ele>197</ele>
        <time>2013-10-05T13:47:40Z</time>
      </trkpt>
      <trkpt lat="43.43734" lon="6.05304">
        <ele>197.39999389648</ele>
        <time>2013-10-05T13:47:41Z</time>
      </trkpt>
      <trkpt lat="43.43734" lon="6.053">
        <ele>198</ele>
        <time>2013-10-05T13:47:42Z</time>
      </trkpt>
      <trkpt lat="43.43732" lon="6.0529">
        <ele>198</ele>
        <time>2013-10-05T13:47:45Z</time>
      </trkpt>
      <trkpt lat="43.43732" lon="6.05287">
        <ele>198</ele>
        <time>2013-10-05T13:47:46Z</time>
      </trkpt>
      <trkpt lat="43.43738" lon="6.05272">
        <ele>198</ele>
        <time>2013-10-05T13:47:50Z</time>
      </trkpt>
      <trkpt lat="43.43753" lon="6.05269">
        <ele>198</ele>
        <time>2013-10-05T13:47:53Z</time>
      </trkpt>
      <trkpt lat="43.43768" lon="6.05269">
        <ele>198</ele>
        <time>2013-10-05T13:47:56Z</time>
      </trkpt>
      <trkpt lat="43.43782" lon="6.05268">
        <ele>198</ele>
        <time>2013-10-05T13:47:59Z</time>
      </trkpt>
      <trkpt lat="43.43797" lon="6.05269">
        <ele>198</ele>
        <time>2013-10-05T13:48:03Z</time>
      </trkpt>
      <trkpt lat="43.4382" lon="6.05277">
        <ele>198</ele>
        <time>2013-10-05T13:48:10Z</time>
      </trkpt>
      <trkpt lat="43.43831" lon="6.05274">
        <ele>198</ele>
        <time>2013-10-05T13:48:14Z</time>
      </trkpt>
      <trkpt lat="43.43834" lon="6.05268">
        <ele>198</ele>
        <time>2013-10-05T13:48:16Z</time>
      </trkpt>
      <trkpt lat="43.43835" lon="6.0526">
        <ele>198</ele>
        <time>2013-10-05T13:48:18Z</time>
      </trkpt>
      <trkpt lat="43.43836" lon="6.05246">
        <ele>198</ele>
        <time>2013-10-05T13:48:22Z</time>
      </trkpt>
      <trkpt lat="43.43842" lon="6.05221">
        <ele>198</ele>
        <time>2013-10-05T13:48:28Z</time>
      </trkpt>
      <trkpt lat="43.43843" lon="6.05217">
        <ele>198</ele>
        <time>2013-10-05T13:48:29Z</time>
      </trkpt>
      <trkpt lat="43.43851" lon="6.05191">
        <ele>198</ele>
        <time>2013-10-05T13:48:36Z</time>
      </trkpt>
      <trkpt lat="43.43857" lon="6.05186">
        <ele>198.80000305176</ele>
        <time>2013-10-05T13:48:39Z</time>
      </trkpt>
      <trkpt lat="43.4386" lon="6.05185">
        <ele>199.19999694824</ele>
        <time>2013-10-05T13:48:40Z</time>
      </trkpt>
      <trkpt lat="43.43866" lon="6.05185">
        <ele>200</ele>
        <time>2013-10-05T13:48:42Z</time>
      </trkpt>
      <trkpt lat="43.43879" lon="6.05185">
        <ele>200</ele>
        <time>2013-10-05T13:48:47Z</time>
      </trkpt>
      <trkpt lat="43.43901" lon="6.05187">
        <ele>200</ele>
        <time>2013-10-05T13:48:55Z</time>
      </trkpt>
      <trkpt lat="43.43921" lon="6.05187">
        <ele>200</ele>
        <time>2013-10-05T13:49:02Z</time>
      </trkpt>
      <trkpt lat="43.43926" lon="6.05187">
        <ele>200.39999389648</ele>
        <time>2013-10-05T13:49:04Z</time>
      </trkpt>
      <trkpt lat="43.43939" lon="6.05184">
        <ele>202.19999694824</ele>
        <time>2013-10-05T13:49:09Z</time>
      </trkpt>
      <trkpt lat="43.43954" lon="6.05181">
        <ele>202.19999694824</ele>
        <time>2013-10-05T13:49:15Z</time>
      </trkpt>
      <trkpt lat="43.44004" lon="6.05185">
        <ele>202.60000610352</ele>
        <time>2013-10-05T13:49:34Z</time>
      </trkpt>
      <trkpt lat="43.44049" lon="6.05187">
        <ele>204.19999694824</ele>
        <time>2013-10-05T13:49:51Z</time>
      </trkpt>
      <trkpt lat="43.44061" lon="6.05187">
        <ele>204.60000610352</ele>
        <time>2013-10-05T13:49:55Z</time>
      </trkpt>
      <trkpt lat="43.44066" lon="6.05187">
        <ele>205.39999389648</ele>
        <time>2013-10-05T13:49:57Z</time>
      </trkpt>
      <trkpt lat="43.44071" lon="6.05188">
        <ele>206.19999694824</ele>
        <time>2013-10-05T13:49:59Z</time>
      </trkpt>
      <trkpt lat="43.44074" lon="6.05188">
        <ele>206.19999694824</ele>
        <time>2013-10-05T13:50:00Z</time>
      </trkpt>
      <trkpt lat="43.44082" lon="6.05197">
        <ele>206.19999694824</ele>
        <time>2013-10-05T13:50:04Z</time>
      </trkpt>
      <trkpt lat="43.44083" lon="6.052">
        <ele>206.19999694824</ele>
        <time>2013-10-05T13:50:05Z</time>
      </trkpt>
      <trkpt lat="43.44086" lon="6.05208">
        <ele>206.60000610352</ele>
        <time>2013-10-05T13:50:08Z</time>
      </trkpt>
      <trkpt lat="43.44087" lon="6.05214">
        <ele>207.60000610352</ele>
        <time>2013-10-05T13:50:10Z</time>
      </trkpt>
      <trkpt lat="43.44088" lon="6.0522">
        <ele>208.39999389648</ele>
        <time>2013-10-05T13:50:12Z</time>
      </trkpt>
      <trkpt lat="43.44085" lon="6.05262">
        <ele>208.39999389648</ele>
        <time>2013-10-05T13:50:23Z</time>
      </trkpt>
      <trkpt lat="43.44083" lon="6.05277">
        <ele>208.39999389648</ele>
        <time>2013-10-05T13:50:26Z</time>
      </trkpt>
      <trkpt lat="43.4408" lon="6.05301">
        <ele>208.39999389648</ele>
        <time>2013-10-05T13:50:31Z</time>
      </trkpt>
      <trkpt lat="43.44078" lon="6.05324">
        <ele>208.39999389648</ele>
        <time>2013-10-05T13:50:36Z</time>
      </trkpt>
      <trkpt lat="43.44075" lon="6.05349">
        <ele>208.39999389648</ele>
        <time>2013-10-05T13:50:42Z</time>
      </trkpt>
      <trkpt lat="43.44073" lon="6.05362">
        <ele>208.39999389648</ele>
        <time>2013-10-05T13:50:45Z</time>
      </trkpt>
      <trkpt lat="43.4407" lon="6.05381">
        <ele>208.39999389648</ele>
        <time>2013-10-05T13:50:50Z</time>
      </trkpt>
      <trkpt lat="43.44066" lon="6.05412">
        <ele>208.39999389648</ele>
        <time>2013-10-05T13:50:57Z</time>
      </trkpt>
      <trkpt lat="43.44062" lon="6.05447">
        <ele>208.39999389648</ele>
        <time>2013-10-05T13:51:04Z</time>
      </trkpt>
      <trkpt lat="43.4406" lon="6.05463">
        <ele>208.39999389648</ele>
        <time>2013-10-05T13:51:07Z</time>
      </trkpt>
      <trkpt lat="43.44057" lon="6.055">
        <ele>208.39999389648</ele>
        <time>2013-10-05T13:51:14Z</time>
      </trkpt>
      <trkpt lat="43.44054" lon="6.05528">
        <ele>208.39999389648</ele>
        <time>2013-10-05T13:51:19Z</time>
      </trkpt>
      <trkpt lat="43.44051" lon="6.05557">
        <ele>208.39999389648</ele>
        <time>2013-10-05T13:51:24Z</time>
      </trkpt>
      <trkpt lat="43.44046" lon="6.05594">
        <ele>208.39999389648</ele>
        <time>2013-10-05T13:51:30Z</time>
      </trkpt>
      <trkpt lat="43.4404" lon="6.05656">
        <ele>208.39999389648</ele>
        <time>2013-10-05T13:51:39Z</time>
      </trkpt>
      <trkpt lat="43.44038" lon="6.05677">
        <ele>208</ele>
        <time>2013-10-05T13:51:42Z</time>
      </trkpt>
      <trkpt lat="43.44035" lon="6.057">
        <ele>206.80000305176</ele>
        <time>2013-10-05T13:51:45Z</time>
      </trkpt>
      <trkpt lat="43.44033" lon="6.05716">
        <ele>206.39999389648</ele>
        <time>2013-10-05T13:51:47Z</time>
      </trkpt>
      <trkpt lat="43.44031" lon="6.0573">
        <ele>206.39999389648</ele>
        <time>2013-10-05T13:51:49Z</time>
      </trkpt>
      <trkpt lat="43.44022" lon="6.05765">
        <ele>206.39999389648</ele>
        <time>2013-10-05T13:51:54Z</time>
      </trkpt>
      <trkpt lat="43.4402" lon="6.05772">
        <ele>206.39999389648</ele>
        <time>2013-10-05T13:51:55Z</time>
      </trkpt>
      <trkpt lat="43.44012" lon="6.05797">
        <ele>206</ele>
        <time>2013-10-05T13:51:59Z</time>
      </trkpt>
      <trkpt lat="43.44007" lon="6.05809">
        <ele>205</ele>
        <time>2013-10-05T13:52:01Z</time>
      </trkpt>
      <trkpt lat="43.43995" lon="6.0585">
        <ele>204.19999694824</ele>
        <time>2013-10-05T13:52:07Z</time>
      </trkpt>
      <trkpt lat="43.43981" lon="6.0589">
        <ele>204.19999694824</ele>
        <time>2013-10-05T13:52:13Z</time>
      </trkpt>
      <trkpt lat="43.43968" lon="6.05936">
        <ele>204.19999694824</ele>
        <time>2013-10-05T13:52:20Z</time>
      </trkpt>
      <trkpt lat="43.43956" lon="6.05995">
        <ele>202.19999694824</ele>
        <time>2013-10-05T13:52:29Z</time>
      </trkpt>
      <trkpt lat="43.43948" lon="6.06036">
        <ele>202.19999694824</ele>
        <time>2013-10-05T13:52:36Z</time>
      </trkpt>
      <trkpt lat="43.43944" lon="6.06055">
        <ele>202.19999694824</ele>
        <time>2013-10-05T13:52:39Z</time>
      </trkpt>
      <trkpt lat="43.43941" lon="6.06075">
        <ele>202.19999694824</ele>
        <time>2013-10-05T13:52:42Z</time>
      </trkpt>
      <trkpt lat="43.43939" lon="6.06112">
        <ele>201.80000305176</ele>
        <time>2013-10-05T13:52:47Z</time>
      </trkpt>
      <trkpt lat="43.43939" lon="6.06127">
        <ele>201</ele>
        <time>2013-10-05T13:52:49Z</time>
      </trkpt>
      <trkpt lat="43.43938" lon="6.06142">
        <ele>200.19999694824</ele>
        <time>2013-10-05T13:52:51Z</time>
      </trkpt>
      <trkpt lat="43.43933" lon="6.06189">
        <ele>200.19999694824</ele>
        <time>2013-10-05T13:52:57Z</time>
      </trkpt>
      <trkpt lat="43.43932" lon="6.06197">
        <ele>200.19999694824</ele>
        <time>2013-10-05T13:52:58Z</time>
      </trkpt>
      <trkpt lat="43.43928" lon="6.06215">
        <ele>199.80000305176</ele>
        <time>2013-10-05T13:53:00Z</time>
      </trkpt>
      <trkpt lat="43.43922" lon="6.06243">
        <ele>198.39999389648</ele>
        <time>2013-10-05T13:53:03Z</time>
      </trkpt>
      <trkpt lat="43.43919" lon="6.06251">
        <ele>198</ele>
        <time>2013-10-05T13:53:04Z</time>
      </trkpt>
      <trkpt lat="43.43907" lon="6.06285">
        <ele>197.60000610352</ele>
        <time>2013-10-05T13:53:08Z</time>
      </trkpt>
      <trkpt lat="43.43903" lon="6.06292">
        <ele>197.19999694824</ele>
        <time>2013-10-05T13:53:09Z</time>
      </trkpt>
      <trkpt lat="43.43901" lon="6.063">
        <ele>196.80000305176</ele>
        <time>2013-10-05T13:53:10Z</time>
      </trkpt>
      <trkpt lat="43.43896" lon="6.06318">
        <ele>196</ele>
        <time>2013-10-05T13:53:12Z</time>
      </trkpt>
      <trkpt lat="43.43893" lon="6.06379">
        <ele>194.39999389648</ele>
        <time>2013-10-05T13:53:18Z</time>
      </trkpt>
      <trkpt lat="43.43892" lon="6.06404">
        <ele>193.19999694824</ele>
        <time>2013-10-05T13:53:20Z</time>
      </trkpt>
      <trkpt lat="43.4389" lon="6.06429">
        <ele>191.80000305176</ele>
        <time>2013-10-05T13:53:22Z</time>
      </trkpt>
      <trkpt lat="43.4389" lon="6.06455">
        <ele>190.60000610352</ele>
        <time>2013-10-05T13:53:24Z</time>
      </trkpt>
      <trkpt lat="43.43889" lon="6.06468">
        <ele>189.80000305176</ele>
        <time>2013-10-05T13:53:25Z</time>
      </trkpt>
      <trkpt lat="43.43889" lon="6.06481">
        <ele>189.19999694824</ele>
        <time>2013-10-05T13:53:26Z</time>
      </trkpt>
      <trkpt lat="43.43888" lon="6.06494">
        <ele>188.39999389648</ele>
        <time>2013-10-05T13:53:27Z</time>
      </trkpt>
      <trkpt lat="43.43887" lon="6.06507">
        <ele>187.80000305176</ele>
        <time>2013-10-05T13:53:28Z</time>
      </trkpt>
      <trkpt lat="43.43886" lon="6.06533">
        <ele>186.60000610352</ele>
        <time>2013-10-05T13:53:30Z</time>
      </trkpt>
      <trkpt lat="43.43885" lon="6.0656">
        <ele>185.39999389648</ele>
        <time>2013-10-05T13:53:32Z</time>
      </trkpt>
      <trkpt lat="43.43883" lon="6.06612">
        <ele>183.60000610352</ele>
        <time>2013-10-05T13:53:36Z</time>
      </trkpt>
      <trkpt lat="43.43882" lon="6.06637">
        <ele>182.80000305176</ele>
        <time>2013-10-05T13:53:38Z</time>
      </trkpt>
      <trkpt lat="43.43879" lon="6.06687">
        <ele>181.39999389648</ele>
        <time>2013-10-05T13:53:42Z</time>
      </trkpt>
      <trkpt lat="43.43875" lon="6.06762">
        <ele>179.80000305176</ele>
        <time>2013-10-05T13:53:48Z</time>
      </trkpt>
      <trkpt lat="43.43873" lon="6.06787">
        <ele>179</ele>
        <time>2013-10-05T13:53:50Z</time>
      </trkpt>
      <trkpt lat="43.43873" lon="6.06799">
        <ele>178.60000610352</ele>
        <time>2013-10-05T13:53:51Z</time>
      </trkpt>
      <trkpt lat="43.43871" lon="6.06823">
        <ele>178.60000610352</ele>
        <time>2013-10-05T13:53:53Z</time>
      </trkpt>
      <trkpt lat="43.43871" lon="6.06836">
        <ele>178.19999694824</ele>
        <time>2013-10-05T13:53:54Z</time>
      </trkpt>
      <trkpt lat="43.43869" lon="6.06848">
        <ele>177.19999694824</ele>
        <time>2013-10-05T13:53:55Z</time>
      </trkpt>
      <trkpt lat="43.43868" lon="6.0686">
        <ele>176.80000305176</ele>
        <time>2013-10-05T13:53:56Z</time>
      </trkpt>
      <trkpt lat="43.43868" lon="6.06871">
        <ele>176.39999389648</ele>
        <time>2013-10-05T13:53:57Z</time>
      </trkpt>
      <trkpt lat="43.43864" lon="6.06904">
        <ele>176.39999389648</ele>
        <time>2013-10-05T13:54:00Z</time>
      </trkpt>
      <trkpt lat="43.43864" lon="6.06913">
        <ele>176</ele>
        <time>2013-10-05T13:54:01Z</time>
      </trkpt>
      <trkpt lat="43.43863" lon="6.06921">
        <ele>175.60000610352</ele>
        <time>2013-10-05T13:54:02Z</time>
      </trkpt>
      <trkpt lat="43.43861" lon="6.06925">
        <ele>175.19999694824</ele>
        <time>2013-10-05T13:54:03Z</time>
      </trkpt>
      <trkpt lat="43.43861" lon="6.06928">
        <ele>174.80000305176</ele>
        <time>2013-10-05T13:54:04Z</time>
      </trkpt>
      <trkpt lat="43.4386" lon="6.0693">
        <ele>174.39999389648</ele>
        <time>2013-10-05T13:54:05Z</time>
      </trkpt>
      <trkpt lat="43.43852" lon="6.06942">
        <ele>174.39999389648</ele>
        <time>2013-10-05T13:54:09Z</time>
      </trkpt>
      <trkpt lat="43.43847" lon="6.06951">
        <ele>174.39999389648</ele>
        <time>2013-10-05T13:54:11Z</time>
      </trkpt>
      <trkpt lat="43.4384" lon="6.06969">
        <ele>174.39999389648</ele>
        <time>2013-10-05T13:54:14Z</time>
      </trkpt>
      <trkpt lat="43.43831" lon="6.06986">
        <ele>174.39999389648</ele>
        <time>2013-10-05T13:54:17Z</time>
      </trkpt>
      <trkpt lat="43.43823" lon="6.06997">
        <ele>174.39999389648</ele>
        <time>2013-10-05T13:54:19Z</time>
      </trkpt>
      <trkpt lat="43.43797" lon="6.07026">
        <ele>174.39999389648</ele>
        <time>2013-10-05T13:54:25Z</time>
      </trkpt>
      <trkpt lat="43.43775" lon="6.07048">
        <ele>174</ele>
        <time>2013-10-05T13:54:30Z</time>
      </trkpt>
      <trkpt lat="43.43761" lon="6.07062">
        <ele>172.80000305176</ele>
        <time>2013-10-05T13:54:33Z</time>
      </trkpt>
      <trkpt lat="43.43756" lon="6.07067">
        <ele>172.39999389648</ele>
        <time>2013-10-05T13:54:34Z</time>
      </trkpt>
      <trkpt lat="43.43722" lon="6.07099">
        <ele>172.39999389648</ele>
        <time>2013-10-05T13:54:41Z</time>
      </trkpt>
      <trkpt lat="43.43711" lon="6.07107">
        <ele>172.39999389648</ele>
        <time>2013-10-05T13:54:43Z</time>
      </trkpt>
      <trkpt lat="43.43695" lon="6.07116">
        <ele>172.39999389648</ele>
        <time>2013-10-05T13:54:46Z</time>
      </trkpt>
      <trkpt lat="43.43685" lon="6.07119">
        <ele>171.60000610352</ele>
        <time>2013-10-05T13:54:49Z</time>
      </trkpt>
      <trkpt lat="43.43681" lon="6.07119">
        <ele>171.19999694824</ele>
        <time>2013-10-05T13:54:50Z</time>
      </trkpt>
      <trkpt lat="43.43677" lon="6.07119">
        <ele>170.60000610352</ele>
        <time>2013-10-05T13:54:51Z</time>
      </trkpt>
      <trkpt lat="43.43668" lon="6.07118">
        <ele>170.19999694824</ele>
        <time>2013-10-05T13:54:53Z</time>
      </trkpt>
      <trkpt lat="43.43631" lon="6.0711">
        <ele>170.19999694824</ele>
        <time>2013-10-05T13:55:01Z</time>
      </trkpt>
      <trkpt lat="43.43602" lon="6.07103">
        <ele>170.19999694824</ele>
        <time>2013-10-05T13:55:07Z</time>
      </trkpt>
      <trkpt lat="43.43592" lon="6.07101">
        <ele>170.19999694824</ele>
        <time>2013-10-05T13:55:09Z</time>
      </trkpt>
      <trkpt lat="43.43557" lon="6.07092">
        <ele>170.19999694824</ele>
        <time>2013-10-05T13:55:17Z</time>
      </trkpt>
      <trkpt lat="43.43544" lon="6.07087">
        <ele>170.19999694824</ele>
        <time>2013-10-05T13:55:20Z</time>
      </trkpt>
      <trkpt lat="43.43531" lon="6.07083">
        <ele>170.60000610352</ele>
        <time>2013-10-05T13:55:23Z</time>
      </trkpt>
      <trkpt lat="43.43522" lon="6.07081">
        <ele>171.60000610352</ele>
        <time>2013-10-05T13:55:25Z</time>
      </trkpt>
      <trkpt lat="43.43513" lon="6.07078">
        <ele>172.39999389648</ele>
        <time>2013-10-05T13:55:27Z</time>
      </trkpt>
      <trkpt lat="43.43501" lon="6.07073">
        <ele>172.39999389648</ele>
        <time>2013-10-05T13:55:30Z</time>
      </trkpt>
      <trkpt lat="43.43493" lon="6.07071">
        <ele>173.19999694824</ele>
        <time>2013-10-05T13:55:32Z</time>
      </trkpt>
      <trkpt lat="43.43489" lon="6.07069">
        <ele>173.60000610352</ele>
        <time>2013-10-05T13:55:33Z</time>
      </trkpt>
      <trkpt lat="43.43479" lon="6.07066">
        <ele>174.39999389648</ele>
        <time>2013-10-05T13:55:35Z</time>
      </trkpt>
      <trkpt lat="43.4346" lon="6.07061">
        <ele>174.39999389648</ele>
        <time>2013-10-05T13:55:39Z</time>
      </trkpt>
      <trkpt lat="43.43449" lon="6.07057">
        <ele>174.39999389648</ele>
        <time>2013-10-05T13:55:41Z</time>
      </trkpt>
      <trkpt lat="43.43429" lon="6.07051">
        <ele>174.39999389648</ele>
        <time>2013-10-05T13:55:44Z</time>
      </trkpt>
      <trkpt lat="43.434" lon="6.07042">
        <ele>173.80000305176</ele>
        <time>2013-10-05T13:55:48Z</time>
      </trkpt>
      <trkpt lat="43.43393" lon="6.0704">
        <ele>173.39999389648</ele>
        <time>2013-10-05T13:55:49Z</time>
      </trkpt>
      <trkpt lat="43.43385" lon="6.07037">
        <ele>173</ele>
        <time>2013-10-05T13:55:50Z</time>
      </trkpt>
      <trkpt lat="43.43378" lon="6.07035">
        <ele>172.60000610352</ele>
        <time>2013-10-05T13:55:51Z</time>
      </trkpt>
      <trkpt lat="43.4337" lon="6.07032">
        <ele>172</ele>
        <time>2013-10-05T13:55:52Z</time>
      </trkpt>
      <trkpt lat="43.43348" lon="6.07025">
        <ele>171.60000610352</ele>
        <time>2013-10-05T13:55:55Z</time>
      </trkpt>
      <trkpt lat="43.43341" lon="6.07023">
        <ele>171.19999694824</ele>
        <time>2013-10-05T13:55:56Z</time>
      </trkpt>
      <trkpt lat="43.43334" lon="6.0702">
        <ele>170.80000305176</ele>
        <time>2013-10-05T13:55:57Z</time>
      </trkpt>
      <trkpt lat="43.43327" lon="6.07017">
        <ele>170.39999389648</ele>
        <time>2013-10-05T13:55:58Z</time>
      </trkpt>
      <trkpt lat="43.43321" lon="6.07015">
        <ele>170</ele>
        <time>2013-10-05T13:55:59Z</time>
      </trkpt>
      <trkpt lat="43.43303" lon="6.07011">
        <ele>170</ele>
        <time>2013-10-05T13:56:02Z</time>
      </trkpt>
      <trkpt lat="43.43293" lon="6.07013">
        <ele>170</ele>
        <time>2013-10-05T13:56:04Z</time>
      </trkpt>
      <trkpt lat="43.4328" lon="6.0702">
        <ele>170</ele>
        <time>2013-10-05T13:56:07Z</time>
      </trkpt>
      <trkpt lat="43.43276" lon="6.0702">
        <ele>170</ele>
        <time>2013-10-05T13:56:09Z</time>
      </trkpt>
      <trkpt lat="43.43272" lon="6.07017">
        <ele>170</ele>
        <time>2013-10-05T13:56:12Z</time>
      </trkpt>
      <trkpt lat="43.43272" lon="6.07017">
        <ele>170</ele>
        <time>2013-10-05T13:56:20Z</time>
      </trkpt>
      <trkpt lat="43.43272" lon="6.07017">
        <ele>170</ele>
        <time>2013-10-05T13:56:30Z</time>
      </trkpt>
      <trkpt lat="43.43272" lon="6.07016">
        <ele>170</ele>
        <time>2013-10-05T13:56:34Z</time>
      </trkpt>
      <trkpt lat="43.43272" lon="6.07012">
        <ele>170</ele>
        <time>2013-10-05T13:56:36Z</time>
      </trkpt>
      <trkpt lat="43.43275" lon="6.06994">
        <ele>170</ele>
        <time>2013-10-05T13:56:42Z</time>
      </trkpt>
      <trkpt lat="43.43276" lon="6.06986">
        <ele>170</ele>
        <time>2013-10-05T13:56:45Z</time>
      </trkpt>
      <trkpt lat="43.4328" lon="6.06961">
        <ele>170.39999389648</ele>
        <time>2013-10-05T13:56:53Z</time>
      </trkpt>
      <trkpt lat="43.43279" lon="6.06949">
        <ele>172</ele>
        <time>2013-10-05T13:56:57Z</time>
      </trkpt>
      <trkpt lat="43.43279" lon="6.0694">
        <ele>172</ele>
        <time>2013-10-05T13:57:00Z</time>
      </trkpt>
      <trkpt lat="43.43278" lon="6.06916">
        <ele>172.39999389648</ele>
        <time>2013-10-05T13:57:07Z</time>
      </trkpt>
      <trkpt lat="43.43278" lon="6.06909">
        <ele>173.39999389648</ele>
        <time>2013-10-05T13:57:09Z</time>
      </trkpt>
      <trkpt lat="43.43279" lon="6.06903">
        <ele>174.19999694824</ele>
        <time>2013-10-05T13:57:11Z</time>
      </trkpt>
      <trkpt lat="43.43281" lon="6.06888">
        <ele>176.19999694824</ele>
        <time>2013-10-05T13:57:16Z</time>
      </trkpt>
      <trkpt lat="43.43278" lon="6.06874">
        <ele>177.60000610352</ele>
        <time>2013-10-05T13:57:21Z</time>
      </trkpt>
      <trkpt lat="43.43276" lon="6.06869">
        <ele>178.39999389648</ele>
        <time>2013-10-05T13:57:23Z</time>
      </trkpt>
      <trkpt lat="43.43274" lon="6.06859">
        <ele>178.80000305176</ele>
        <time>2013-10-05T13:57:28Z</time>
      </trkpt>
      <trkpt lat="43.43271" lon="6.06854">
        <ele>180</ele>
        <time>2013-10-05T13:57:31Z</time>
      </trkpt>
      <trkpt lat="43.43272" lon="6.06852">
        <ele>180.60000610352</ele>
        <time>2013-10-05T13:57:32Z</time>
      </trkpt>
      <trkpt lat="43.4327" lon="6.06848">
        <ele>180.60000610352</ele>
        <time>2013-10-05T13:57:34Z</time>
      </trkpt>
      <trkpt lat="43.4327" lon="6.06845">
        <ele>180.60000610352</ele>
        <time>2013-10-05T13:57:36Z</time>
      </trkpt>
      <trkpt lat="43.43269" lon="6.06839">
        <ele>180.60000610352</ele>
        <time>2013-10-05T13:57:40Z</time>
      </trkpt>
      <trkpt lat="43.43269" lon="6.06839">
        <ele>180.60000610352</ele>
        <time>2013-10-05T13:57:41Z</time>
      </trkpt>
      <trkpt lat="43.43268" lon="6.06837">
        <ele>180.60000610352</ele>
        <time>2013-10-05T13:57:44Z</time>
      </trkpt>
      <trkpt lat="43.43268" lon="6.06837">
        <ele>180.60000610352</ele>
        <time>2013-10-05T13:57:48Z</time>
      </trkpt>
      <trkpt lat="43.43268" lon="6.06837">
        <ele>180.60000610352</ele>
        <time>2013-10-05T13:57:52Z</time>
      </trkpt>
      <trkpt lat="43.43268" lon="6.06832">
        <ele>180.60000610352</ele>
        <time>2013-10-05T13:57:57Z</time>
      </trkpt>
      <trkpt lat="43.43267" lon="6.06823">
        <ele>180.60000610352</ele>
        <time>2013-10-05T13:58:02Z</time>
      </trkpt>
      <trkpt lat="43.43266" lon="6.06822">
        <ele>181</ele>
        <time>2013-10-05T13:58:03Z</time>
      </trkpt>
      <trkpt lat="43.43266" lon="6.06819">
        <ele>181.39999389648</ele>
        <time>2013-10-05T13:58:04Z</time>
      </trkpt>
      <trkpt lat="43.43265" lon="6.06817">
        <ele>182.19999694824</ele>
        <time>2013-10-05T13:58:06Z</time>
      </trkpt>
      <trkpt lat="43.43266" lon="6.06815">
        <ele>182.60000610352</ele>
        <time>2013-10-05T13:58:07Z</time>
      </trkpt>
      <trkpt lat="43.43265" lon="6.06812">
        <ele>182.60000610352</ele>
        <time>2013-10-05T13:58:08Z</time>
      </trkpt>
      <trkpt lat="43.43258" lon="6.06789">
        <ele>182.60000610352</ele>
        <time>2013-10-05T13:58:18Z</time>
      </trkpt>
      <trkpt lat="43.4325" lon="6.06758">
        <ele>183</ele>
        <time>2013-10-05T13:58:30Z</time>
      </trkpt>
      <trkpt lat="43.43245" lon="6.06748">
        <ele>184.60000610352</ele>
        <time>2013-10-05T13:58:34Z</time>
      </trkpt>
      <trkpt lat="43.4324" lon="6.0674">
        <ele>184.60000610352</ele>
        <time>2013-10-05T13:58:38Z</time>
      </trkpt>
      <trkpt lat="43.43231" lon="6.06724">
        <ele>184.60000610352</ele>
        <time>2013-10-05T13:58:44Z</time>
      </trkpt>
      <trkpt lat="43.43224" lon="6.06711">
        <ele>184.60000610352</ele>
        <time>2013-10-05T13:58:49Z</time>
      </trkpt>
      <trkpt lat="43.43213" lon="6.06692">
        <ele>184.60000610352</ele>
        <time>2013-10-05T13:58:56Z</time>
      </trkpt>
      <trkpt lat="43.43204" lon="6.06674">
        <ele>184.60000610352</ele>
        <time>2013-10-05T13:59:02Z</time>
      </trkpt>
      <trkpt lat="43.432" lon="6.06651">
        <ele>184.60000610352</ele>
        <time>2013-10-05T13:59:08Z</time>
      </trkpt>
      <trkpt lat="43.43194" lon="6.06631">
        <ele>184.60000610352</ele>
        <time>2013-10-05T13:59:14Z</time>
      </trkpt>
      <trkpt lat="43.43187" lon="6.06609">
        <ele>184.60000610352</ele>
        <time>2013-10-05T13:59:22Z</time>
      </trkpt>
      <trkpt lat="43.43182" lon="6.06598">
        <ele>185</ele>
        <time>2013-10-05T13:59:26Z</time>
      </trkpt>
      <trkpt lat="43.43179" lon="6.06587">
        <ele>186.60000610352</ele>
        <time>2013-10-05T13:59:30Z</time>
      </trkpt>
      <trkpt lat="43.43174" lon="6.0657">
        <ele>186.60000610352</ele>
        <time>2013-10-05T13:59:36Z</time>
      </trkpt>
      <trkpt lat="43.4317" lon="6.06561">
        <ele>186.60000610352</ele>
        <time>2013-10-05T13:59:40Z</time>
      </trkpt>
      <trkpt lat="43.43168" lon="6.06559">
        <ele>187.60000610352</ele>
        <time>2013-10-05T13:59:41Z</time>
      </trkpt>
      <trkpt lat="43.43161" lon="6.0655">
        <ele>188.80000305176</ele>
        <time>2013-10-05T13:59:47Z</time>
      </trkpt>
      <trkpt lat="43.43155" lon="6.06541">
        <ele>188.80000305176</ele>
        <time>2013-10-05T13:59:53Z</time>
      </trkpt>
      <trkpt lat="43.43144" lon="6.06522">
        <ele>190.80000305176</ele>
        <time>2013-10-05T14:00:04Z</time>
      </trkpt>
      <trkpt lat="43.43135" lon="6.06514">
        <ele>192.39999389648</ele>
        <time>2013-10-05T14:00:11Z</time>
      </trkpt>
      <trkpt lat="43.43135" lon="6.06513">
        <ele>192.80000305176</ele>
        <time>2013-10-05T14:00:12Z</time>
      </trkpt>
      <trkpt lat="43.43132" lon="6.0651">
        <ele>192.80000305176</ele>
        <time>2013-10-05T14:00:15Z</time>
      </trkpt>
      <trkpt lat="43.43128" lon="6.06506">
        <ele>192.80000305176</ele>
        <time>2013-10-05T14:00:20Z</time>
      </trkpt>
      <trkpt lat="43.43122" lon="6.065">
        <ele>193.39999389648</ele>
        <time>2013-10-05T14:00:26Z</time>
      </trkpt>
      <trkpt lat="43.43121" lon="6.06499">
        <ele>193.80000305176</ele>
        <time>2013-10-05T14:00:27Z</time>
      </trkpt>
      <trkpt lat="43.43121" lon="6.06498">
        <ele>194.19999694824</ele>
        <time>2013-10-05T14:00:28Z</time>
      </trkpt>
      <trkpt lat="43.4312" lon="6.06497">
        <ele>194.60000610352</ele>
        <time>2013-10-05T14:00:29Z</time>
      </trkpt>
      <trkpt lat="43.4312" lon="6.06497">
        <ele>195</ele>
        <time>2013-10-05T14:00:30Z</time>
      </trkpt>
      <trkpt lat="43.43119" lon="6.06497">
        <ele>195</ele>
        <time>2013-10-05T14:00:31Z</time>
      </trkpt>
      <trkpt lat="43.43119" lon="6.06495">
        <ele>195</ele>
        <time>2013-10-05T14:00:32Z</time>
      </trkpt>
      <trkpt lat="43.43113" lon="6.06488">
        <ele>195</ele>
        <time>2013-10-05T14:00:36Z</time>
      </trkpt>
      <trkpt lat="43.43108" lon="6.0648">
        <ele>195</ele>
        <time>2013-10-05T14:00:40Z</time>
      </trkpt>
      <trkpt lat="43.43108" lon="6.06477">
        <ele>195</ele>
        <time>2013-10-05T14:00:41Z</time>
      </trkpt>
      <trkpt lat="43.43108" lon="6.06474">
        <ele>195.80000305176</ele>
        <time>2013-10-05T14:00:43Z</time>
      </trkpt>
      <trkpt lat="43.43105" lon="6.06463">
        <ele>197.19999694824</ele>
        <time>2013-10-05T14:00:49Z</time>
      </trkpt>
      <trkpt lat="43.43102" lon="6.06456">
        <ele>197.19999694824</ele>
        <time>2013-10-05T14:00:54Z</time>
      </trkpt>
      <trkpt lat="43.43101" lon="6.06448">
        <ele>197.60000610352</ele>
        <time>2013-10-05T14:00:59Z</time>
      </trkpt>
      <trkpt lat="43.431" lon="6.06446">
        <ele>198</ele>
        <time>2013-10-05T14:01:00Z</time>
      </trkpt>
      <trkpt lat="43.43093" lon="6.06431">
        <ele>199.19999694824</ele>
        <time>2013-10-05T14:01:09Z</time>
      </trkpt>
      <trkpt lat="43.43087" lon="6.06417">
        <ele>199.60000610352</ele>
        <time>2013-10-05T14:01:17Z</time>
      </trkpt>
      <trkpt lat="43.43084" lon="6.064">
        <ele>201.19999694824</ele>
        <time>2013-10-05T14:01:27Z</time>
      </trkpt>
      <trkpt lat="43.43082" lon="6.0639">
        <ele>201.19999694824</ele>
        <time>2013-10-05T14:01:33Z</time>
      </trkpt>
      <trkpt lat="43.43078" lon="6.06368">
        <ele>201.19999694824</ele>
        <time>2013-10-05T14:01:43Z</time>
      </trkpt>
      <trkpt lat="43.43077" lon="6.06366">
        <ele>201.19999694824</ele>
        <time>2013-10-05T14:01:45Z</time>
      </trkpt>
      <trkpt lat="43.43071" lon="6.06359">
        <ele>201.19999694824</ele>
        <time>2013-10-05T14:01:51Z</time>
      </trkpt>
      <trkpt lat="43.43067" lon="6.06356">
        <ele>201.19999694824</ele>
        <time>2013-10-05T14:01:54Z</time>
      </trkpt>
      <trkpt lat="43.43061" lon="6.06353">
        <ele>201.19999694824</ele>
        <time>2013-10-05T14:01:58Z</time>
      </trkpt>
      <trkpt lat="43.4305" lon="6.06348">
        <ele>201.19999694824</ele>
        <time>2013-10-05T14:02:04Z</time>
      </trkpt>
      <trkpt lat="43.43043" lon="6.06345">
        <ele>203.19999694824</ele>
        <time>2013-10-05T14:02:09Z</time>
      </trkpt>
      <trkpt lat="43.43042" lon="6.06344">
        <ele>203.19999694824</ele>
        <time>2013-10-05T14:02:10Z</time>
      </trkpt>
      <trkpt lat="43.43036" lon="6.06332">
        <ele>203.19999694824</ele>
        <time>2013-10-05T14:02:15Z</time>
      </trkpt>
      <trkpt lat="43.43032" lon="6.06322">
        <ele>203.19999694824</ele>
        <time>2013-10-05T14:02:20Z</time>
      </trkpt>
      <trkpt lat="43.4303" lon="6.06318">
        <ele>203.19999694824</ele>
        <time>2013-10-05T14:02:23Z</time>
      </trkpt>
      <trkpt lat="43.43025" lon="6.06313">
        <ele>203.19999694824</ele>
        <time>2013-10-05T14:02:26Z</time>
      </trkpt>
      <trkpt lat="43.43012" lon="6.06313">
        <ele>203.19999694824</ele>
        <time>2013-10-05T14:02:33Z</time>
      </trkpt>
      <trkpt lat="43.42998" lon="6.06314">
        <ele>205</ele>
        <time>2013-10-05T14:02:42Z</time>
      </trkpt>
      <trkpt lat="43.42996" lon="6.06314">
        <ele>205.39999389648</ele>
        <time>2013-10-05T14:02:43Z</time>
      </trkpt>
      <trkpt lat="43.42989" lon="6.06312">
        <ele>205.39999389648</ele>
        <time>2013-10-05T14:02:48Z</time>
      </trkpt>
      <trkpt lat="43.42984" lon="6.06308">
        <ele>205.39999389648</ele>
        <time>2013-10-05T14:02:51Z</time>
      </trkpt>
      <trkpt lat="43.42976" lon="6.06307">
        <ele>205.39999389648</ele>
        <time>2013-10-05T14:02:57Z</time>
      </trkpt>
      <trkpt lat="43.4297" lon="6.06309">
        <ele>205.80000305176</ele>
        <time>2013-10-05T14:03:01Z</time>
      </trkpt>
      <trkpt lat="43.42968" lon="6.06309">
        <ele>206.19999694824</ele>
        <time>2013-10-05T14:03:02Z</time>
      </trkpt>
      <trkpt lat="43.42962" lon="6.06308">
        <ele>207.39999389648</ele>
        <time>2013-10-05T14:03:06Z</time>
      </trkpt>
      <trkpt lat="43.42956" lon="6.06305">
        <ele>207.39999389648</ele>
        <time>2013-10-05T14:03:10Z</time>
      </trkpt>
      <trkpt lat="43.42955" lon="6.06303">
        <ele>207.39999389648</ele>
        <time>2013-10-05T14:03:11Z</time>
      </trkpt>
      <trkpt lat="43.42949" lon="6.06296">
        <ele>207.39999389648</ele>
        <time>2013-10-05T14:03:15Z</time>
      </trkpt>
      <trkpt lat="43.42945" lon="6.06292">
        <ele>207.39999389648</ele>
        <time>2013-10-05T14:03:19Z</time>
      </trkpt>
      <trkpt lat="43.42942" lon="6.0629">
        <ele>207.80000305176</ele>
        <time>2013-10-05T14:03:21Z</time>
      </trkpt>
      <trkpt lat="43.42935" lon="6.06288">
        <ele>209.39999389648</ele>
        <time>2013-10-05T14:03:24Z</time>
      </trkpt>
      <trkpt lat="43.42932" lon="6.06287">
        <ele>209.39999389648</ele>
        <time>2013-10-05T14:03:26Z</time>
      </trkpt>
      <trkpt lat="43.42929" lon="6.06288">
        <ele>209.39999389648</ele>
        <time>2013-10-05T14:03:28Z</time>
      </trkpt>
      <trkpt lat="43.42925" lon="6.06289">
        <ele>209.39999389648</ele>
        <time>2013-10-05T14:03:30Z</time>
      </trkpt>
      <trkpt lat="43.42923" lon="6.0629">
        <ele>210</ele>
        <time>2013-10-05T14:03:32Z</time>
      </trkpt>
      <trkpt lat="43.42921" lon="6.06291">
        <ele>210.39999389648</ele>
        <time>2013-10-05T14:03:33Z</time>
      </trkpt>
      <trkpt lat="43.42922" lon="6.06292">
        <ele>210.80000305176</ele>
        <time>2013-10-05T14:03:34Z</time>
      </trkpt>
      <trkpt lat="43.42921" lon="6.06293">
        <ele>211.60000610352</ele>
        <time>2013-10-05T14:03:36Z</time>
      </trkpt>
      <trkpt lat="43.42921" lon="6.06293">
        <ele>211.60000610352</ele>
        <time>2013-10-05T14:03:42Z</time>
      </trkpt>
      <trkpt lat="43.42921" lon="6.06293">
        <ele>211.60000610352</ele>
        <time>2013-10-05T14:04:00Z</time>
      </trkpt>
      <trkpt lat="43.42921" lon="6.06293">
        <ele>211.60000610352</ele>
        <time>2013-10-05T14:04:16Z</time>
      </trkpt>
      <trkpt lat="43.42921" lon="6.06294">
        <ele>211.60000610352</ele>
        <time>2013-10-05T14:04:27Z</time>
      </trkpt>
      <trkpt lat="43.42921" lon="6.06294">
        <ele>211.60000610352</ele>
        <time>2013-10-05T14:04:38Z</time>
      </trkpt>
      <trkpt lat="43.42921" lon="6.06294">
        <ele>211.60000610352</ele>
        <time>2013-10-05T14:04:44Z</time>
      </trkpt>
      <trkpt lat="43.4292" lon="6.06297">
        <ele>211.60000610352</ele>
        <time>2013-10-05T14:04:51Z</time>
      </trkpt>
      <trkpt lat="43.42919" lon="6.06298">
        <ele>211.60000610352</ele>
        <time>2013-10-05T14:04:57Z</time>
      </trkpt>
      <trkpt lat="43.42919" lon="6.06298">
        <ele>212.60000610352</ele>
        <time>2013-10-05T14:05:04Z</time>
      </trkpt>
      <trkpt lat="43.42919" lon="6.06298">
        <ele>213</ele>
        <time>2013-10-05T14:05:05Z</time>
      </trkpt>
      <trkpt lat="43.42919" lon="6.06298">
        <ele>213.39999389648</ele>
        <time>2013-10-05T14:05:06Z</time>
      </trkpt>
      <trkpt lat="43.42916" lon="6.06304">
        <ele>213.80000305176</ele>
        <time>2013-10-05T14:05:09Z</time>
      </trkpt>
      <trkpt lat="43.42914" lon="6.06306">
        <ele>213.80000305176</ele>
        <time>2013-10-05T14:05:12Z</time>
      </trkpt>
      <trkpt lat="43.42914" lon="6.06306">
        <ele>213.80000305176</ele>
        <time>2013-10-05T14:05:15Z</time>
      </trkpt>
      <trkpt lat="43.42914" lon="6.06306">
        <ele>213.80000305176</ele>
        <time>2013-10-05T14:05:23Z</time>
      </trkpt>
      <trkpt lat="43.42913" lon="6.06306">
        <ele>214.19999694824</ele>
        <time>2013-10-05T14:05:24Z</time>
      </trkpt>
      <trkpt lat="43.42913" lon="6.06307">
        <ele>215.39999389648</ele>
        <time>2013-10-05T14:05:27Z</time>
      </trkpt>
      <trkpt lat="43.42913" lon="6.06307">
        <ele>215.80000305176</ele>
        <time>2013-10-05T14:05:28Z</time>
      </trkpt>
      <trkpt lat="43.42913" lon="6.06308">
        <ele>215.80000305176</ele>
        <time>2013-10-05T14:05:30Z</time>
      </trkpt>
      <trkpt lat="43.42911" lon="6.0631">
        <ele>215.80000305176</ele>
        <time>2013-10-05T14:05:35Z</time>
      </trkpt>
      <trkpt lat="43.42911" lon="6.0631">
        <ele>215.80000305176</ele>
        <time>2013-10-05T14:05:43Z</time>
      </trkpt>
      <trkpt lat="43.42911" lon="6.06311">
        <ele>216.19999694824</ele>
        <time>2013-10-05T14:05:50Z</time>
      </trkpt>
      <trkpt lat="43.4291" lon="6.06311">
        <ele>217.80000305176</ele>
        <time>2013-10-05T14:05:56Z</time>
      </trkpt>
      <trkpt lat="43.4291" lon="6.06311">
        <ele>217.80000305176</ele>
        <time>2013-10-05T14:06:08Z</time>
      </trkpt>
      <trkpt lat="43.4291" lon="6.06311">
        <ele>217.80000305176</ele>
        <time>2013-10-05T14:06:19Z</time>
      </trkpt>
      <trkpt lat="43.42909" lon="6.06311">
        <ele>217.80000305176</ele>
        <time>2013-10-05T14:06:21Z</time>
      </trkpt>
      <trkpt lat="43.42907" lon="6.06312">
        <ele>217.80000305176</ele>
        <time>2013-10-05T14:06:28Z</time>
      </trkpt>
      <trkpt lat="43.42907" lon="6.06312">
        <ele>217.80000305176</ele>
        <time>2013-10-05T14:06:46Z</time>
      </trkpt>
      <trkpt lat="43.42907" lon="6.06312">
        <ele>217.80000305176</ele>
        <time>2013-10-05T14:07:02Z</time>
      </trkpt>
      <trkpt lat="43.42905" lon="6.06312">
        <ele>217.80000305176</ele>
        <time>2013-10-05T14:07:05Z</time>
      </trkpt>
      <trkpt lat="43.429" lon="6.06312">
        <ele>217.80000305176</ele>
        <time>2013-10-05T14:07:09Z</time>
      </trkpt>
      <trkpt lat="43.42894" lon="6.06314">
        <ele>217.80000305176</ele>
        <time>2013-10-05T14:07:13Z</time>
      </trkpt>
      <trkpt lat="43.42889" lon="6.06317">
        <ele>217.80000305176</ele>
        <time>2013-10-05T14:07:17Z</time>
      </trkpt>
      <trkpt lat="43.4288" lon="6.06318">
        <ele>219.60000610352</ele>
        <time>2013-10-05T14:07:23Z</time>
      </trkpt>
      <trkpt lat="43.42879" lon="6.06318">
        <ele>220</ele>
        <time>2013-10-05T14:07:24Z</time>
      </trkpt>
      <trkpt lat="43.42871" lon="6.06317">
        <ele>220</ele>
        <time>2013-10-05T14:07:29Z</time>
      </trkpt>
      <trkpt lat="43.42857" lon="6.06313">
        <ele>220</ele>
        <time>2013-10-05T14:07:39Z</time>
      </trkpt>
      <trkpt lat="43.42854" lon="6.06313">
        <ele>220</ele>
        <time>2013-10-05T14:07:41Z</time>
      </trkpt>
      <trkpt lat="43.42846" lon="6.06316">
        <ele>220</ele>
        <time>2013-10-05T14:07:46Z</time>
      </trkpt>
      <trkpt lat="43.42837" lon="6.06323">
        <ele>220</ele>
        <time>2013-10-05T14:07:51Z</time>
      </trkpt>
      <trkpt lat="43.42825" lon="6.06333">
        <ele>220</ele>
        <time>2013-10-05T14:07:56Z</time>
      </trkpt>
      <trkpt lat="43.42818" lon="6.06341">
        <ele>220</ele>
        <time>2013-10-05T14:07:58Z</time>
      </trkpt>
      <trkpt lat="43.4281" lon="6.06345">
        <ele>220</ele>
        <time>2013-10-05T14:08:00Z</time>
      </trkpt>
      <trkpt lat="43.42795" lon="6.06345">
        <ele>219.39999389648</ele>
        <time>2013-10-05T14:08:03Z</time>
      </trkpt>
      <trkpt lat="43.4279" lon="6.06345">
        <ele>219</ele>
        <time>2013-10-05T14:08:04Z</time>
      </trkpt>
      <trkpt lat="43.42785" lon="6.06345">
        <ele>218.60000610352</ele>
        <time>2013-10-05T14:08:05Z</time>
      </trkpt>
      <trkpt lat="43.42775" lon="6.06341">
        <ele>217.80000305176</ele>
        <time>2013-10-05T14:08:07Z</time>
      </trkpt>
      <trkpt lat="43.42766" lon="6.06337">
        <ele>217.19999694824</ele>
        <time>2013-10-05T14:08:09Z</time>
      </trkpt>
      <trkpt lat="43.4276" lon="6.06336">
        <ele>216.80000305176</ele>
        <time>2013-10-05T14:08:10Z</time>
      </trkpt>
      <trkpt lat="43.42754" lon="6.06335">
        <ele>216.39999389648</ele>
        <time>2013-10-05T14:08:11Z</time>
      </trkpt>
      <trkpt lat="43.42749" lon="6.06338">
        <ele>215.80000305176</ele>
        <time>2013-10-05T14:08:12Z</time>
      </trkpt>
      <trkpt lat="43.42743" lon="6.06341">
        <ele>215.39999389648</ele>
        <time>2013-10-05T14:08:13Z</time>
      </trkpt>
      <trkpt lat="43.42739" lon="6.06345">
        <ele>214.80000305176</ele>
        <time>2013-10-05T14:08:14Z</time>
      </trkpt>
      <trkpt lat="43.42732" lon="6.06346">
        <ele>214.39999389648</ele>
        <time>2013-10-05T14:08:15Z</time>
      </trkpt>
      <trkpt lat="43.42725" lon="6.06349">
        <ele>213.80000305176</ele>
        <time>2013-10-05T14:08:16Z</time>
      </trkpt>
      <trkpt lat="43.42719" lon="6.0635">
        <ele>213.19999694824</ele>
        <time>2013-10-05T14:08:17Z</time>
      </trkpt>
      <trkpt lat="43.42704" lon="6.0635">
        <ele>213.19999694824</ele>
        <time>2013-10-05T14:08:20Z</time>
      </trkpt>
      <trkpt lat="43.427" lon="6.06348">
        <ele>213.19999694824</ele>
        <time>2013-10-05T14:08:22Z</time>
      </trkpt>
      <trkpt lat="43.42698" lon="6.06347">
        <ele>213.19999694824</ele>
        <time>2013-10-05T14:08:25Z</time>
      </trkpt>
      <trkpt lat="43.42698" lon="6.06347">
        <ele>213.19999694824</ele>
        <time>2013-10-05T14:08:41Z</time>
      </trkpt>
      <trkpt lat="43.42696" lon="6.06346">
        <ele>213.19999694824</ele>
        <time>2013-10-05T14:08:48Z</time>
      </trkpt>
      <trkpt lat="43.42696" lon="6.06346">
        <ele>213.19999694824</ele>
        <time>2013-10-05T14:09:05Z</time>
      </trkpt>
      <trkpt lat="43.42696" lon="6.06346">
        <ele>213.19999694824</ele>
        <time>2013-10-05T14:09:16Z</time>
      </trkpt>
      <trkpt lat="43.42693" lon="6.06342">
        <ele>213.19999694824</ele>
        <time>2013-10-05T14:09:21Z</time>
      </trkpt>
      <trkpt lat="43.42691" lon="6.06342">
        <ele>213.19999694824</ele>
        <time>2013-10-05T14:09:22Z</time>
      </trkpt>
      <trkpt lat="43.42687" lon="6.06337">
        <ele>213.19999694824</ele>
        <time>2013-10-05T14:09:27Z</time>
      </trkpt>
      <trkpt lat="43.42683" lon="6.06335">
        <ele>213.19999694824</ele>
        <time>2013-10-05T14:09:30Z</time>
      </trkpt>
      <trkpt lat="43.4268" lon="6.06333">
        <ele>213.19999694824</ele>
        <time>2013-10-05T14:09:35Z</time>
      </trkpt>
      <trkpt lat="43.4268" lon="6.06333">
        <ele>213.19999694824</ele>
        <time>2013-10-05T14:09:48Z</time>
      </trkpt>
      <trkpt lat="43.42677" lon="6.06331">
        <ele>213.19999694824</ele>
        <time>2013-10-05T14:09:53Z</time>
      </trkpt>
      <trkpt lat="43.42675" lon="6.06329">
        <ele>213.19999694824</ele>
        <time>2013-10-05T14:09:54Z</time>
      </trkpt>
      <trkpt lat="43.42661" lon="6.06327">
        <ele>212.80000305176</ele>
        <time>2013-10-05T14:09:58Z</time>
      </trkpt>
      <trkpt lat="43.42657" lon="6.06326">
        <ele>212</ele>
        <time>2013-10-05T14:09:59Z</time>
      </trkpt>
      <trkpt lat="43.42653" lon="6.06326">
        <ele>211.39999389648</ele>
        <time>2013-10-05T14:10:00Z</time>
      </trkpt>
      <trkpt lat="43.42649" lon="6.06324">
        <ele>211</ele>
        <time>2013-10-05T14:10:01Z</time>
      </trkpt>
      <trkpt lat="43.42645" lon="6.06322">
        <ele>211</ele>
        <time>2013-10-05T14:10:02Z</time>
      </trkpt>
      <trkpt lat="43.42638" lon="6.0632">
        <ele>211</ele>
        <time>2013-10-05T14:10:04Z</time>
      </trkpt>
      <trkpt lat="43.4262" lon="6.06313">
        <ele>210.60000610352</ele>
        <time>2013-10-05T14:10:08Z</time>
      </trkpt>
      <trkpt lat="43.42611" lon="6.06308">
        <ele>209.60000610352</ele>
        <time>2013-10-05T14:10:10Z</time>
      </trkpt>
      <trkpt lat="43.42601" lon="6.06308">
        <ele>208.60000610352</ele>
        <time>2013-10-05T14:10:12Z</time>
      </trkpt>
      <trkpt lat="43.42586" lon="6.06316">
        <ele>208.60000610352</ele>
        <time>2013-10-05T14:10:15Z</time>
      </trkpt>
      <trkpt lat="43.42582" lon="6.06319">
        <ele>208.60000610352</ele>
        <time>2013-10-05T14:10:16Z</time>
      </trkpt>
      <trkpt lat="43.42574" lon="6.06326">
        <ele>208.19999694824</ele>
        <time>2013-10-05T14:10:18Z</time>
      </trkpt>
      <trkpt lat="43.42569" lon="6.0633">
        <ele>207.60000610352</ele>
        <time>2013-10-05T14:10:19Z</time>
      </trkpt>
      <trkpt lat="43.42561" lon="6.06339">
        <ele>206.60000610352</ele>
        <time>2013-10-05T14:10:21Z</time>
      </trkpt>
      <trkpt lat="43.42537" lon="6.06358">
        <ele>205</ele>
        <time>2013-10-05T14:10:26Z</time>
      </trkpt>
      <trkpt lat="43.42532" lon="6.06361">
        <ele>204.60000610352</ele>
        <time>2013-10-05T14:10:27Z</time>
      </trkpt>
      <trkpt lat="43.42527" lon="6.06363">
        <ele>204.19999694824</ele>
        <time>2013-10-05T14:10:28Z</time>
      </trkpt>
      <trkpt lat="43.42514" lon="6.06366">
        <ele>204.19999694824</ele>
        <time>2013-10-05T14:10:31Z</time>
      </trkpt>
      <trkpt lat="43.42509" lon="6.06367">
        <ele>204.19999694824</ele>
        <time>2013-10-05T14:10:32Z</time>
      </trkpt>
      <trkpt lat="43.425" lon="6.06372">
        <ele>203.19999694824</ele>
        <time>2013-10-05T14:10:34Z</time>
      </trkpt>
      <trkpt lat="43.42486" lon="6.06378">
        <ele>202</ele>
        <time>2013-10-05T14:10:37Z</time>
      </trkpt>
      <trkpt lat="43.42477" lon="6.06379">
        <ele>202</ele>
        <time>2013-10-05T14:10:39Z</time>
      </trkpt>
      <trkpt lat="43.42465" lon="6.06379">
        <ele>202</ele>
        <time>2013-10-05T14:10:42Z</time>
      </trkpt>
      <trkpt lat="43.42453" lon="6.06382">
        <ele>202</ele>
        <time>2013-10-05T14:10:45Z</time>
      </trkpt>
      <trkpt lat="43.42442" lon="6.06388">
        <ele>200.80000305176</ele>
        <time>2013-10-05T14:10:48Z</time>
      </trkpt>
      <trkpt lat="43.42417" lon="6.06407">
        <ele>199.80000305176</ele>
        <time>2013-10-05T14:10:56Z</time>
      </trkpt>
      <trkpt lat="43.42406" lon="6.06407">
        <ele>199.80000305176</ele>
        <time>2013-10-05T14:11:00Z</time>
      </trkpt>
      <trkpt lat="43.4238" lon="6.06401">
        <ele>199.80000305176</ele>
        <time>2013-10-05T14:11:07Z</time>
      </trkpt>
      <trkpt lat="43.4237" lon="6.06404">
        <ele>199.39999389648</ele>
        <time>2013-10-05T14:11:09Z</time>
      </trkpt>
      <trkpt lat="43.42366" lon="6.06407">
        <ele>199</ele>
        <time>2013-10-05T14:11:10Z</time>
      </trkpt>
      <trkpt lat="43.42358" lon="6.06416">
        <ele>198.19999694824</ele>
        <time>2013-10-05T14:11:12Z</time>
      </trkpt>
      <trkpt lat="43.42354" lon="6.0642">
        <ele>197.80000305176</ele>
        <time>2013-10-05T14:11:13Z</time>
      </trkpt>
      <trkpt lat="43.42347" lon="6.06428">
        <ele>197.80000305176</ele>
        <time>2013-10-05T14:11:15Z</time>
      </trkpt>
      <trkpt lat="43.42339" lon="6.06434">
        <ele>197.80000305176</ele>
        <time>2013-10-05T14:11:17Z</time>
      </trkpt>
      <trkpt lat="43.42318" lon="6.06448">
        <ele>197.80000305176</ele>
        <time>2013-10-05T14:11:23Z</time>
      </trkpt>
      <trkpt lat="43.42315" lon="6.06452">
        <ele>197.80000305176</ele>
        <time>2013-10-05T14:11:24Z</time>
      </trkpt>
      <trkpt lat="43.42299" lon="6.06469">
        <ele>197.19999694824</ele>
        <time>2013-10-05T14:11:28Z</time>
      </trkpt>
      <trkpt lat="43.42295" lon="6.06474">
        <ele>196.80000305176</ele>
        <time>2013-10-05T14:11:29Z</time>
      </trkpt>
      <trkpt lat="43.42291" lon="6.06479">
        <ele>196.39999389648</ele>
        <time>2013-10-05T14:11:30Z</time>
      </trkpt>
      <trkpt lat="43.42287" lon="6.06484">
        <ele>195.80000305176</ele>
        <time>2013-10-05T14:11:31Z</time>
      </trkpt>
      <trkpt lat="43.42284" lon="6.0649">
        <ele>195.39999389648</ele>
        <time>2013-10-05T14:11:32Z</time>
      </trkpt>
      <trkpt lat="43.4228" lon="6.06495">
        <ele>195.39999389648</ele>
        <time>2013-10-05T14:11:33Z</time>
      </trkpt>
      <trkpt lat="43.42268" lon="6.06507">
        <ele>194.39999389648</ele>
        <time>2013-10-05T14:11:36Z</time>
      </trkpt>
      <trkpt lat="43.42255" lon="6.06515">
        <ele>192.80000305176</ele>
        <time>2013-10-05T14:11:40Z</time>
      </trkpt>
      <trkpt lat="43.42252" lon="6.06516">
        <ele>192.39999389648</ele>
        <time>2013-10-05T14:11:41Z</time>
      </trkpt>
      <trkpt lat="43.4225" lon="6.06516">
        <ele>192</ele>
        <time>2013-10-05T14:11:42Z</time>
      </trkpt>
      <trkpt lat="43.42244" lon="6.06516">
        <ele>191</ele>
        <time>2013-10-05T14:11:44Z</time>
      </trkpt>
      <trkpt lat="43.42236" lon="6.06516">
        <ele>191</ele>
        <time>2013-10-05T14:11:46Z</time>
      </trkpt>
      <trkpt lat="43.42212" lon="6.0651">
        <ele>190.60000610352</ele>
        <time>2013-10-05T14:11:51Z</time>
      </trkpt>
      <trkpt lat="43.42207" lon="6.06509">
        <ele>190.19999694824</ele>
        <time>2013-10-05T14:11:52Z</time>
      </trkpt>
      <trkpt lat="43.42201" lon="6.06509">
        <ele>189.80000305176</ele>
        <time>2013-10-05T14:11:53Z</time>
      </trkpt>
      <trkpt lat="43.42196" lon="6.06509">
        <ele>189.39999389648</ele>
        <time>2013-10-05T14:11:54Z</time>
      </trkpt>
      <trkpt lat="43.42192" lon="6.06508">
        <ele>189</ele>
        <time>2013-10-05T14:11:55Z</time>
      </trkpt>
      <trkpt lat="43.42189" lon="6.06505">
        <ele>188.60000610352</ele>
        <time>2013-10-05T14:11:56Z</time>
      </trkpt>
      <trkpt lat="43.42189" lon="6.065">
        <ele>188.19999694824</ele>
        <time>2013-10-05T14:11:57Z</time>
      </trkpt>
      <trkpt lat="43.42188" lon="6.06496">
        <ele>187.60000610352</ele>
        <time>2013-10-05T14:11:58Z</time>
      </trkpt>
      <trkpt lat="43.42186" lon="6.06489">
        <ele>186.80000305176</ele>
        <time>2013-10-05T14:12:00Z</time>
      </trkpt>
      <trkpt lat="43.42185" lon="6.06481">
        <ele>186.80000305176</ele>
        <time>2013-10-05T14:12:02Z</time>
      </trkpt>
      <trkpt lat="43.42184" lon="6.06477">
        <ele>186.80000305176</ele>
        <time>2013-10-05T14:12:03Z</time>
      </trkpt>
      <trkpt lat="43.4218" lon="6.06451">
        <ele>186.80000305176</ele>
        <time>2013-10-05T14:12:09Z</time>
      </trkpt>
      <trkpt lat="43.42174" lon="6.06419">
        <ele>186.80000305176</ele>
        <time>2013-10-05T14:12:16Z</time>
      </trkpt>
      <trkpt lat="43.42168" lon="6.06393">
        <ele>186.80000305176</ele>
        <time>2013-10-05T14:12:22Z</time>
      </trkpt>
      <trkpt lat="43.42162" lon="6.06362">
        <ele>186.80000305176</ele>
        <time>2013-10-05T14:12:29Z</time>
      </trkpt>
      <trkpt lat="43.42159" lon="6.06336">
        <ele>186.80000305176</ele>
        <time>2013-10-05T14:12:35Z</time>
      </trkpt>
      <trkpt lat="43.42156" lon="6.06325">
        <ele>186.80000305176</ele>
        <time>2013-10-05T14:12:38Z</time>
      </trkpt>
      <trkpt lat="43.42154" lon="6.0631">
        <ele>186.80000305176</ele>
        <time>2013-10-05T14:12:41Z</time>
      </trkpt>
      <trkpt lat="43.42152" lon="6.06295">
        <ele>186.80000305176</ele>
        <time>2013-10-05T14:12:44Z</time>
      </trkpt>
      <trkpt lat="43.42152" lon="6.06289">
        <ele>186.80000305176</ele>
        <time>2013-10-05T14:12:45Z</time>
      </trkpt>
      <trkpt lat="43.42152" lon="6.06283">
        <ele>187.19999694824</ele>
        <time>2013-10-05T14:12:46Z</time>
      </trkpt>
      <trkpt lat="43.42152" lon="6.06277">
        <ele>187.60000610352</ele>
        <time>2013-10-05T14:12:47Z</time>
      </trkpt>
      <trkpt lat="43.42152" lon="6.06271">
        <ele>188</ele>
        <time>2013-10-05T14:12:48Z</time>
      </trkpt>
      <trkpt lat="43.42152" lon="6.06258">
        <ele>188.80000305176</ele>
        <time>2013-10-05T14:12:50Z</time>
      </trkpt>
      <trkpt lat="43.42151" lon="6.06238">
        <ele>190.19999694824</ele>
        <time>2013-10-05T14:12:53Z</time>
      </trkpt>
      <trkpt lat="43.4215" lon="6.06227">
        <ele>191</ele>
        <time>2013-10-05T14:12:55Z</time>
      </trkpt>
      <trkpt lat="43.42148" lon="6.06221">
        <ele>191.39999389648</ele>
        <time>2013-10-05T14:12:57Z</time>
      </trkpt>
      <trkpt lat="43.42145" lon="6.06218">
        <ele>191.80000305176</ele>
        <time>2013-10-05T14:12:58Z</time>
      </trkpt>
      <trkpt lat="43.42142" lon="6.06217">
        <ele>192.19999694824</ele>
        <time>2013-10-05T14:12:59Z</time>
      </trkpt>
      <trkpt lat="43.42138" lon="6.06218">
        <ele>192.80000305176</ele>
        <time>2013-10-05T14:13:00Z</time>
      </trkpt>
      <trkpt lat="43.42135" lon="6.06219">
        <ele>193.19999694824</ele>
        <time>2013-10-05T14:13:01Z</time>
      </trkpt>
      <trkpt lat="43.42119" lon="6.06225">
        <ele>193.19999694824</ele>
        <time>2013-10-05T14:13:05Z</time>
      </trkpt>
      <trkpt lat="43.42114" lon="6.06227">
        <ele>193.19999694824</ele>
        <time>2013-10-05T14:13:06Z</time>
      </trkpt>
      <trkpt lat="43.42098" lon="6.06232">
        <ele>192.60000610352</ele>
        <time>2013-10-05T14:13:09Z</time>
      </trkpt>
      <trkpt lat="43.4208" lon="6.06238">
        <ele>191.19999694824</ele>
        <time>2013-10-05T14:13:12Z</time>
      </trkpt>
      <trkpt lat="43.42066" lon="6.06243">
        <ele>190.19999694824</ele>
        <time>2013-10-05T14:13:14Z</time>
      </trkpt>
      <trkpt lat="43.42059" lon="6.06245">
        <ele>189.80000305176</ele>
        <time>2013-10-05T14:13:15Z</time>
      </trkpt>
      <trkpt lat="43.4205" lon="6.06248">
        <ele>189.19999694824</ele>
        <time>2013-10-05T14:13:16Z</time>
      </trkpt>
      <trkpt lat="43.42041" lon="6.06251">
        <ele>188</ele>
        <time>2013-10-05T14:13:17Z</time>
      </trkpt>
      <trkpt lat="43.42033" lon="6.06254">
        <ele>187.19999694824</ele>
        <time>2013-10-05T14:13:18Z</time>
      </trkpt>
      <trkpt lat="43.42023" lon="6.06257">
        <ele>186.19999694824</ele>
        <time>2013-10-05T14:13:19Z</time>
      </trkpt>
      <trkpt lat="43.42013" lon="6.0626">
        <ele>185.19999694824</ele>
        <time>2013-10-05T14:13:20Z</time>
      </trkpt>
      <trkpt lat="43.42003" lon="6.06263">
        <ele>184.19999694824</ele>
        <time>2013-10-05T14:13:21Z</time>
      </trkpt>
      <trkpt lat="43.41992" lon="6.06267">
        <ele>183</ele>
        <time>2013-10-05T14:13:22Z</time>
      </trkpt>
      <trkpt lat="43.41982" lon="6.06271">
        <ele>182</ele>
        <time>2013-10-05T14:13:23Z</time>
      </trkpt>
      <trkpt lat="43.4197" lon="6.06274">
        <ele>180.80000305176</ele>
        <time>2013-10-05T14:13:24Z</time>
      </trkpt>
      <trkpt lat="43.4196" lon="6.06278">
        <ele>179.80000305176</ele>
        <time>2013-10-05T14:13:25Z</time>
      </trkpt>
      <trkpt lat="43.41949" lon="6.06281">
        <ele>178.80000305176</ele>
        <time>2013-10-05T14:13:26Z</time>
      </trkpt>
      <trkpt lat="43.4194" lon="6.06284">
        <ele>177.80000305176</ele>
        <time>2013-10-05T14:13:27Z</time>
      </trkpt>
      <trkpt lat="43.41932" lon="6.06287">
        <ele>176.80000305176</ele>
        <time>2013-10-05T14:13:28Z</time>
      </trkpt>
      <trkpt lat="43.41925" lon="6.0629">
        <ele>176</ele>
        <time>2013-10-05T14:13:29Z</time>
      </trkpt>
      <trkpt lat="43.41917" lon="6.06292">
        <ele>175</ele>
        <time>2013-10-05T14:13:30Z</time>
      </trkpt>
      <trkpt lat="43.41892" lon="6.06293">
        <ele>173.19999694824</ele>
        <time>2013-10-05T14:13:33Z</time>
      </trkpt>
      <trkpt lat="43.41865" lon="6.06291">
        <ele>172.80000305176</ele>
        <time>2013-10-05T14:13:36Z</time>
      </trkpt>
      <trkpt lat="43.41833" lon="6.0629">
        <ele>170.80000305176</ele>
        <time>2013-10-05T14:13:40Z</time>
      </trkpt>
      <trkpt lat="43.41818" lon="6.0629">
        <ele>169</ele>
        <time>2013-10-05T14:13:42Z</time>
      </trkpt>
      <trkpt lat="43.41803" lon="6.06286">
        <ele>168</ele>
        <time>2013-10-05T14:13:44Z</time>
      </trkpt>
      <trkpt lat="43.41797" lon="6.06282">
        <ele>167.39999389648</ele>
        <time>2013-10-05T14:13:45Z</time>
      </trkpt>
      <trkpt lat="43.41791" lon="6.06277">
        <ele>167</ele>
        <time>2013-10-05T14:13:46Z</time>
      </trkpt>
      <trkpt lat="43.41779" lon="6.06267">
        <ele>166</ele>
        <time>2013-10-05T14:13:48Z</time>
      </trkpt>
      <trkpt lat="43.41772" lon="6.06262">
        <ele>166</ele>
        <time>2013-10-05T14:13:49Z</time>
      </trkpt>
      <trkpt lat="43.41751" lon="6.06253">
        <ele>165.60000610352</ele>
        <time>2013-10-05T14:13:52Z</time>
      </trkpt>
      <trkpt lat="43.41744" lon="6.06251">
        <ele>165.19999694824</ele>
        <time>2013-10-05T14:13:53Z</time>
      </trkpt>
      <trkpt lat="43.41729" lon="6.06249">
        <ele>164.19999694824</ele>
        <time>2013-10-05T14:13:55Z</time>
      </trkpt>
      <trkpt lat="43.41722" lon="6.06248">
        <ele>163.80000305176</ele>
        <time>2013-10-05T14:13:56Z</time>
      </trkpt>
      <trkpt lat="43.41706" lon="6.06249">
        <ele>163.39999389648</ele>
        <time>2013-10-05T14:13:58Z</time>
      </trkpt>
      <trkpt lat="43.41699" lon="6.06249">
        <ele>163</ele>
        <time>2013-10-05T14:13:59Z</time>
      </trkpt>
      <trkpt lat="43.41684" lon="6.06248">
        <ele>162.19999694824</ele>
        <time>2013-10-05T14:14:01Z</time>
      </trkpt>
      <trkpt lat="43.41677" lon="6.06248">
        <ele>161.80000305176</ele>
        <time>2013-10-05T14:14:02Z</time>
      </trkpt>
      <trkpt lat="43.41653" lon="6.06243">
        <ele>161.80000305176</ele>
        <time>2013-10-05T14:14:06Z</time>
      </trkpt>
      <trkpt lat="43.41631" lon="6.06231">
        <ele>161.80000305176</ele>
        <time>2013-10-05T14:14:10Z</time>
      </trkpt>
      <trkpt lat="43.41625" lon="6.06226">
        <ele>161.80000305176</ele>
        <time>2013-10-05T14:14:11Z</time>
      </trkpt>
      <trkpt lat="43.4161" lon="6.06207">
        <ele>161.39999389648</ele>
        <time>2013-10-05T14:14:15Z</time>
      </trkpt>
      <trkpt lat="43.41606" lon="6.06204">
        <ele>161</ele>
        <time>2013-10-05T14:14:16Z</time>
      </trkpt>
      <trkpt lat="43.41603" lon="6.06202">
        <ele>160.39999389648</ele>
        <time>2013-10-05T14:14:17Z</time>
      </trkpt>
      <trkpt lat="43.41597" lon="6.06198">
        <ele>159.60000610352</ele>
        <time>2013-10-05T14:14:19Z</time>
      </trkpt>
      <trkpt lat="43.4159" lon="6.06183">
        <ele>159.60000610352</ele>
        <time>2013-10-05T14:14:23Z</time>
      </trkpt>
      <trkpt lat="43.41584" lon="6.06174">
        <ele>159.60000610352</ele>
        <time>2013-10-05T14:14:27Z</time>
      </trkpt>
      <trkpt lat="43.4158" lon="6.06175">
        <ele>159.60000610352</ele>
        <time>2013-10-05T14:14:29Z</time>
      </trkpt>
      <trkpt lat="43.41574" lon="6.06177">
        <ele>159.60000610352</ele>
        <time>2013-10-05T14:14:32Z</time>
      </trkpt>
      <trkpt lat="43.4156" lon="6.06173">
        <ele>159.60000610352</ele>
        <time>2013-10-05T14:14:37Z</time>
      </trkpt>
      <trkpt lat="43.41547" lon="6.06178">
        <ele>159.60000610352</ele>
        <time>2013-10-05T14:14:41Z</time>
      </trkpt>
      <trkpt lat="43.41543" lon="6.06181">
        <ele>159.60000610352</ele>
        <time>2013-10-05T14:14:42Z</time>
      </trkpt>
      <trkpt lat="43.41534" lon="6.06182">
        <ele>159.19999694824</ele>
        <time>2013-10-05T14:14:44Z</time>
      </trkpt>
      <trkpt lat="43.41523" lon="6.06184">
        <ele>158.39999389648</ele>
        <time>2013-10-05T14:14:46Z</time>
      </trkpt>
      <trkpt lat="43.41512" lon="6.06186">
        <ele>157.60000610352</ele>
        <time>2013-10-05T14:14:48Z</time>
      </trkpt>
      <trkpt lat="43.41494" lon="6.06187">
        <ele>157.19999694824</ele>
        <time>2013-10-05T14:14:51Z</time>
      </trkpt>
      <trkpt lat="43.41483" lon="6.06186">
        <ele>156.39999389648</ele>
        <time>2013-10-05T14:14:53Z</time>
      </trkpt>
      <trkpt lat="43.41478" lon="6.06184">
        <ele>156</ele>
        <time>2013-10-05T14:14:54Z</time>
      </trkpt>
      <trkpt lat="43.41462" lon="6.0618">
        <ele>155.60000610352</ele>
        <time>2013-10-05T14:14:57Z</time>
      </trkpt>
      <trkpt lat="43.41442" lon="6.06174">
        <ele>155.60000610352</ele>
        <time>2013-10-05T14:15:01Z</time>
      </trkpt>
      <trkpt lat="43.41422" lon="6.06168">
        <ele>155.60000610352</ele>
        <time>2013-10-05T14:15:05Z</time>
      </trkpt>
      <trkpt lat="43.41412" lon="6.06163">
        <ele>155.19999694824</ele>
        <time>2013-10-05T14:15:07Z</time>
      </trkpt>
      <trkpt lat="43.41401" lon="6.06157">
        <ele>154.39999389648</ele>
        <time>2013-10-05T14:15:09Z</time>
      </trkpt>
      <trkpt lat="43.41396" lon="6.06152">
        <ele>154</ele>
        <time>2013-10-05T14:15:10Z</time>
      </trkpt>
      <trkpt lat="43.41368" lon="6.06122">
        <ele>153.19999694824</ele>
        <time>2013-10-05T14:15:16Z</time>
      </trkpt>
      <trkpt lat="43.41358" lon="6.06112">
        <ele>152.39999389648</ele>
        <time>2013-10-05T14:15:18Z</time>
      </trkpt>
      <trkpt lat="43.41348" lon="6.06101">
        <ele>151.39999389648</ele>
        <time>2013-10-05T14:15:20Z</time>
      </trkpt>
      <trkpt lat="43.41327" lon="6.06078">
        <ele>150.60000610352</ele>
        <time>2013-10-05T14:15:24Z</time>
      </trkpt>
      <trkpt lat="43.41313" lon="6.06064">
        <ele>149.39999389648</ele>
        <time>2013-10-05T14:15:27Z</time>
      </trkpt>
      <trkpt lat="43.41303" lon="6.06058">
        <ele>149.39999389648</ele>
        <time>2013-10-05T14:15:29Z</time>
      </trkpt>
      <trkpt lat="43.41287" lon="6.06063">
        <ele>149.39999389648</ele>
        <time>2013-10-05T14:15:32Z</time>
      </trkpt>
      <trkpt lat="43.4125" lon="6.06084">
        <ele>149</ele>
        <time>2013-10-05T14:15:39Z</time>
      </trkpt>
      <trkpt lat="43.41245" lon="6.06087">
        <ele>148.60000610352</ele>
        <time>2013-10-05T14:15:40Z</time>
      </trkpt>
      <trkpt lat="43.41239" lon="6.0609">
        <ele>148</ele>
        <time>2013-10-05T14:15:41Z</time>
      </trkpt>
      <trkpt lat="43.41233" lon="6.06093">
        <ele>147.60000610352</ele>
        <time>2013-10-05T14:15:42Z</time>
      </trkpt>
      <trkpt lat="43.41228" lon="6.06096">
        <ele>147.19999694824</ele>
        <time>2013-10-05T14:15:43Z</time>
      </trkpt>
      <trkpt lat="43.41214" lon="6.06105">
        <ele>147.19999694824</ele>
        <time>2013-10-05T14:15:46Z</time>
      </trkpt>
      <trkpt lat="43.41203" lon="6.0611">
        <ele>146.80000305176</ele>
        <time>2013-10-05T14:15:49Z</time>
      </trkpt>
      <trkpt lat="43.41197" lon="6.06116">
        <ele>145.60000610352</ele>
        <time>2013-10-05T14:15:52Z</time>
      </trkpt>
      <trkpt lat="43.41195" lon="6.06117">
        <ele>145</ele>
        <time>2013-10-05T14:15:53Z</time>
      </trkpt>
      <trkpt lat="43.41191" lon="6.06127">
        <ele>145</ele>
        <time>2013-10-05T14:15:56Z</time>
      </trkpt>
      <trkpt lat="43.41191" lon="6.06137">
        <ele>145</ele>
        <time>2013-10-05T14:15:58Z</time>
      </trkpt>
      <trkpt lat="43.41193" lon="6.06154">
        <ele>145</ele>
        <time>2013-10-05T14:16:01Z</time>
      </trkpt>
      <trkpt lat="43.41196" lon="6.06191">
        <ele>145</ele>
        <time>2013-10-05T14:16:08Z</time>
      </trkpt>
      <trkpt lat="43.41195" lon="6.06199">
        <ele>145</ele>
        <time>2013-10-05T14:16:10Z</time>
      </trkpt>
      <trkpt lat="43.4119" lon="6.06204">
        <ele>145</ele>
        <time>2013-10-05T14:16:12Z</time>
      </trkpt>
      <trkpt lat="43.41179" lon="6.06208">
        <ele>145</ele>
        <time>2013-10-05T14:16:15Z</time>
      </trkpt>
      <trkpt lat="43.41175" lon="6.0621">
        <ele>145</ele>
        <time>2013-10-05T14:16:16Z</time>
      </trkpt>
      <trkpt lat="43.41159" lon="6.06212">
        <ele>145</ele>
        <time>2013-10-05T14:16:20Z</time>
      </trkpt>
      <trkpt lat="43.41136" lon="6.06219">
        <ele>145</ele>
        <time>2013-10-05T14:16:26Z</time>
      </trkpt>
      <trkpt lat="43.41127" lon="6.06222">
        <ele>145</ele>
        <time>2013-10-05T14:16:28Z</time>
      </trkpt>
      <trkpt lat="43.41114" lon="6.06229">
        <ele>143.80000305176</ele>
        <time>2013-10-05T14:16:31Z</time>
      </trkpt>
      <trkpt lat="43.41093" lon="6.06236">
        <ele>143</ele>
        <time>2013-10-05T14:16:36Z</time>
      </trkpt>
      <trkpt lat="43.41064" lon="6.06246">
        <ele>143</ele>
        <time>2013-10-05T14:16:43Z</time>
      </trkpt>
      <trkpt lat="43.41034" lon="6.06253">
        <ele>143</ele>
        <time>2013-10-05T14:16:50Z</time>
      </trkpt>
      <trkpt lat="43.41005" lon="6.06258">
        <ele>143</ele>
        <time>2013-10-05T14:16:57Z</time>
      </trkpt>
      <trkpt lat="43.41001" lon="6.06258">
        <ele>143</ele>
        <time>2013-10-05T14:16:58Z</time>
      </trkpt>
      <trkpt lat="43.40983" lon="6.06262">
        <ele>143</ele>
        <time>2013-10-05T14:17:03Z</time>
      </trkpt>
      <trkpt lat="43.40974" lon="6.06264">
        <ele>143</ele>
        <time>2013-10-05T14:17:06Z</time>
      </trkpt>
      <trkpt lat="43.4097" lon="6.06262">
        <ele>143</ele>
        <time>2013-10-05T14:17:08Z</time>
      </trkpt>
      <trkpt lat="43.40965" lon="6.06257">
        <ele>143</ele>
        <time>2013-10-05T14:17:12Z</time>
      </trkpt>
      <trkpt lat="43.4096" lon="6.06256">
        <ele>143</ele>
        <time>2013-10-05T14:17:15Z</time>
      </trkpt>
      <trkpt lat="43.4096" lon="6.06257">
        <ele>143</ele>
        <time>2013-10-05T14:17:16Z</time>
      </trkpt>
      <trkpt lat="43.4096" lon="6.06257">
        <ele>143</ele>
        <time>2013-10-05T14:17:24Z</time>
      </trkpt>
      <trkpt lat="43.40955" lon="6.0626">
        <ele>143</ele>
        <time>2013-10-05T14:17:30Z</time>
      </trkpt>
      <trkpt lat="43.40951" lon="6.06269">
        <ele>143</ele>
        <time>2013-10-05T14:17:33Z</time>
      </trkpt>
      <trkpt lat="43.4095" lon="6.06273">
        <ele>143</ele>
        <time>2013-10-05T14:17:34Z</time>
      </trkpt>
      <trkpt lat="43.40948" lon="6.06281">
        <ele>143</ele>
        <time>2013-10-05T14:17:36Z</time>
      </trkpt>
      <trkpt lat="43.40944" lon="6.06288">
        <ele>143</ele>
        <time>2013-10-05T14:17:38Z</time>
      </trkpt>
      <trkpt lat="43.40928" lon="6.06308">
        <ele>143</ele>
        <time>2013-10-05T14:17:44Z</time>
      </trkpt>
      <trkpt lat="43.40905" lon="6.06338">
        <ele>143</ele>
        <time>2013-10-05T14:17:52Z</time>
      </trkpt>
      <trkpt lat="43.40891" lon="6.06357">
        <ele>143</ele>
        <time>2013-10-05T14:17:57Z</time>
      </trkpt>
      <trkpt lat="43.40884" lon="6.06366">
        <ele>143</ele>
        <time>2013-10-05T14:17:59Z</time>
      </trkpt>
      <trkpt lat="43.40864" lon="6.06391">
        <ele>142.60000610352</ele>
        <time>2013-10-05T14:18:04Z</time>
      </trkpt>
      <trkpt lat="43.40855" lon="6.06401">
        <ele>141.80000305176</ele>
        <time>2013-10-05T14:18:06Z</time>
      </trkpt>
      <trkpt lat="43.4085" lon="6.06405">
        <ele>140.80000305176</ele>
        <time>2013-10-05T14:18:07Z</time>
      </trkpt>
      <trkpt lat="43.40835" lon="6.06414">
        <ele>140.80000305176</ele>
        <time>2013-10-05T14:18:10Z</time>
      </trkpt>
      <trkpt lat="43.40824" lon="6.06419">
        <ele>140.80000305176</ele>
        <time>2013-10-05T14:18:13Z</time>
      </trkpt>
      <trkpt lat="43.40812" lon="6.06417">
        <ele>140.80000305176</ele>
        <time>2013-10-05T14:18:15Z</time>
      </trkpt>
      <trkpt lat="43.40792" lon="6.06409">
        <ele>140.80000305176</ele>
        <time>2013-10-05T14:18:19Z</time>
      </trkpt>
      <trkpt lat="43.40786" lon="6.06409">
        <ele>140.80000305176</ele>
        <time>2013-10-05T14:18:20Z</time>
      </trkpt>
      <trkpt lat="43.40771" lon="6.06413">
        <ele>140.80000305176</ele>
        <time>2013-10-05T14:18:23Z</time>
      </trkpt>
      <trkpt lat="43.40762" lon="6.06415">
        <ele>140.80000305176</ele>
        <time>2013-10-05T14:18:25Z</time>
      </trkpt>
      <trkpt lat="43.40731" lon="6.0642">
        <ele>140.80000305176</ele>
        <time>2013-10-05T14:18:32Z</time>
      </trkpt>
      <trkpt lat="43.40699" lon="6.06427">
        <ele>140.80000305176</ele>
        <time>2013-10-05T14:18:39Z</time>
      </trkpt>
      <trkpt lat="43.40688" lon="6.06434">
        <ele>141.80000305176</ele>
        <time>2013-10-05T14:18:42Z</time>
      </trkpt>
      <trkpt lat="43.40684" lon="6.06437">
        <ele>142.19999694824</ele>
        <time>2013-10-05T14:18:43Z</time>
      </trkpt>
      <trkpt lat="43.40674" lon="6.06446">
        <ele>143</ele>
        <time>2013-10-05T14:18:46Z</time>
      </trkpt>
      <trkpt lat="43.40668" lon="6.06453">
        <ele>143</ele>
        <time>2013-10-05T14:18:48Z</time>
      </trkpt>
      <trkpt lat="43.40652" lon="6.06468">
        <ele>145</ele>
        <time>2013-10-05T14:18:53Z</time>
      </trkpt>
      <trkpt lat="43.40642" lon="6.0648">
        <ele>145.39999389648</ele>
        <time>2013-10-05T14:18:57Z</time>
      </trkpt>
      <trkpt lat="43.40632" lon="6.06491">
        <ele>147.19999694824</ele>
        <time>2013-10-05T14:19:01Z</time>
      </trkpt>
      <trkpt lat="43.4062" lon="6.06502">
        <ele>147.19999694824</ele>
        <time>2013-10-05T14:19:06Z</time>
      </trkpt>
      <trkpt lat="43.40616" lon="6.06505">
        <ele>147.60000610352</ele>
        <time>2013-10-05T14:19:08Z</time>
      </trkpt>
      <trkpt lat="43.40608" lon="6.06508">
        <ele>148.80000305176</ele>
        <time>2013-10-05T14:19:11Z</time>
      </trkpt>
      <trkpt lat="43.40606" lon="6.06508">
        <ele>149.19999694824</ele>
        <time>2013-10-05T14:19:12Z</time>
      </trkpt>
      <trkpt lat="43.40579" lon="6.06502">
        <ele>151.39999389648</ele>
        <time>2013-10-05T14:19:23Z</time>
      </trkpt>
      <trkpt lat="43.40568" lon="6.06499">
        <ele>151.39999389648</ele>
        <time>2013-10-05T14:19:28Z</time>
      </trkpt>
      <trkpt lat="43.40557" lon="6.06497">
        <ele>151.39999389648</ele>
        <time>2013-10-05T14:19:33Z</time>
      </trkpt>
      <trkpt lat="43.40545" lon="6.06493">
        <ele>152.60000610352</ele>
        <time>2013-10-05T14:19:38Z</time>
      </trkpt>
      <trkpt lat="43.40535" lon="6.06489">
        <ele>153.39999389648</ele>
        <time>2013-10-05T14:19:42Z</time>
      </trkpt>
      <trkpt lat="43.40526" lon="6.06486">
        <ele>153.39999389648</ele>
        <time>2013-10-05T14:19:46Z</time>
      </trkpt>
      <trkpt lat="43.4052" lon="6.06484">
        <ele>153.39999389648</ele>
        <time>2013-10-05T14:19:49Z</time>
      </trkpt>
      <trkpt lat="43.40501" lon="6.06477">
        <ele>153.39999389648</ele>
        <time>2013-10-05T14:19:58Z</time>
      </trkpt>
      <trkpt lat="43.40493" lon="6.06474">
        <ele>154.80000305176</ele>
        <time>2013-10-05T14:20:03Z</time>
      </trkpt>
      <trkpt lat="43.40487" lon="6.06471">
        <ele>155.60000610352</ele>
        <time>2013-10-05T14:20:06Z</time>
      </trkpt>
      <trkpt lat="43.40478" lon="6.06469">
        <ele>155.60000610352</ele>
        <time>2013-10-05T14:20:11Z</time>
      </trkpt>
      <trkpt lat="43.4047" lon="6.06466">
        <ele>155.60000610352</ele>
        <time>2013-10-05T14:20:16Z</time>
      </trkpt>
      <trkpt lat="43.40468" lon="6.06465">
        <ele>155.60000610352</ele>
        <time>2013-10-05T14:20:17Z</time>
      </trkpt>
      <trkpt lat="43.40455" lon="6.06461">
        <ele>155.60000610352</ele>
        <time>2013-10-05T14:20:23Z</time>
      </trkpt>
      <trkpt lat="43.40429" lon="6.06454">
        <ele>156.39999389648</ele>
        <time>2013-10-05T14:20:31Z</time>
      </trkpt>
      <trkpt lat="43.40419" lon="6.06452">
        <ele>157.80000305176</ele>
        <time>2013-10-05T14:20:34Z</time>
      </trkpt>
      <trkpt lat="43.40415" lon="6.06456">
        <ele>157.80000305176</ele>
        <time>2013-10-05T14:20:36Z</time>
      </trkpt>
      <trkpt lat="43.40411" lon="6.06468">
        <ele>157.80000305176</ele>
        <time>2013-10-05T14:20:39Z</time>
      </trkpt>
      <trkpt lat="43.40405" lon="6.06495">
        <ele>157.80000305176</ele>
        <time>2013-10-05T14:20:45Z</time>
      </trkpt>
      <trkpt lat="43.404" lon="6.06518">
        <ele>157.80000305176</ele>
        <time>2013-10-05T14:20:51Z</time>
      </trkpt>
      <trkpt lat="43.404" lon="6.06529">
        <ele>157.80000305176</ele>
        <time>2013-10-05T14:20:54Z</time>
      </trkpt>
      <trkpt lat="43.40399" lon="6.06534">
        <ele>157.80000305176</ele>
        <time>2013-10-05T14:20:56Z</time>
      </trkpt>
      <trkpt lat="43.404" lon="6.06538">
        <ele>157.80000305176</ele>
        <time>2013-10-05T14:20:59Z</time>
      </trkpt>
      <trkpt lat="43.40402" lon="6.06538">
        <ele>157.80000305176</ele>
        <time>2013-10-05T14:21:01Z</time>
      </trkpt>
      <trkpt lat="43.40405" lon="6.06539">
        <ele>157.80000305176</ele>
        <time>2013-10-05T14:21:03Z</time>
      </trkpt>
      <trkpt lat="43.4041" lon="6.06539">
        <ele>157.80000305176</ele>
        <time>2013-10-05T14:21:06Z</time>
      </trkpt>
      <trkpt lat="43.40415" lon="6.0654">
        <ele>157.80000305176</ele>
        <time>2013-10-05T14:21:09Z</time>
      </trkpt>
      <trkpt lat="43.40419" lon="6.06542">
        <ele>157.80000305176</ele>
        <time>2013-10-05T14:21:14Z</time>
      </trkpt>
      <trkpt lat="43.4042" lon="6.06547">
        <ele>157.80000305176</ele>
        <time>2013-10-05T14:21:26Z</time>
      </trkpt>
      <trkpt lat="43.4042" lon="6.06547">
        <ele>157.80000305176</ele>
        <time>2013-10-05T14:21:54Z</time>
      </trkpt>
      <trkpt lat="43.4042" lon="6.06546">
        <ele>157.80000305176</ele>
        <time>2013-10-05T14:22:48Z</time>
      </trkpt>
      <trkpt lat="43.4042" lon="6.06546">
        <ele>157.80000305176</ele>
        <time>2013-10-05T14:23:00Z</time>
      </trkpt>
      <trkpt lat="43.40421" lon="6.06546">
        <ele>157.80000305176</ele>
        <time>2013-10-05T14:23:04Z</time>
      </trkpt>
      <trkpt lat="43.40422" lon="6.06548">
        <ele>157.80000305176</ele>
        <time>2013-10-05T14:23:15Z</time>
      </trkpt>
      <trkpt lat="43.40422" lon="6.06548">
        <ele>157.80000305176</ele>
        <time>2013-10-05T14:23:41Z</time>
      </trkpt>
      <trkpt lat="43.40422" lon="6.06548">
        <ele>157.80000305176</ele>
        <time>2013-10-05T14:23:52Z</time>
      </trkpt>
      <trkpt lat="43.40421" lon="6.06547">
        <ele>157.80000305176</ele>
        <time>2013-10-05T14:23:58Z</time>
      </trkpt>
    </trkseg>
  </trk>
</gpx>